[[{"header":{"parameterUnit":"m.s-1","parameterCategory":1,"la1":30.6,"la2":29.2853,"lo1":-89.7004,"lo2":-87.6739,"dy":0.0162,"dx":0.0183,"nx":112,"ny":82,"refTime":"2023-04-17T12:00:00:Z","depth":0,"parameterNumber":2,"parameterNumberName":"U-component_of_WINDS"},"data":[0.0,0.0,0.0,0.0,0.0,0.0,0.0,0.0,0.0,0.0,0.0,0.0,0.0,0.0,0.0,0.0,0.0,0.0,0.0,0.0,0.0,0.0,0.0,0.0,0.0,0.0,0.0,0.0,0.0,0.0,0.0,0.0,0.0,0.0,0.0,0.0,0.0,0.0,0.0,0.0,0.0,0.0,0.0,0.0,0.0,0.0,0.0,0.0,0.0,0.0,0.0,0.0,0.0,0.0,0.0,0.0,0.0,0.0,0.0,0.0,0.0,0.0,0.0,0.0,0.0,0.0,0.0,0.0,0.0,0.0,0.0,0.0,0.0,0.0,0.0,0.0,0.0,0.0,0.0,0.0,0.0,0.0,0.0,0.0,0.0,0.0,0.0,0.0,0.0,0.0,0.6197,0.4229,0.0934,-0.1075,-0.1075,-0.3094,-0.551,-0.844,0.0,0.0,0.0,0.0,0.0,0.0,0.0,0.0,0.0,0.0,0.0,0.0,0.0,0.0,0.0,0.0,0.0,0.0,0.0,0.0,0.0,0.0,0.0,0.0,0.0,0.0,0.0,0.0,0.0,0.0,0.0,0.0,0.0,0.0,0.0,0.0,0.0,0.0,0.0,0.0,0.0,0.0,0.0,0.0,0.0,0.0,0.0,0.0,0.0,0.0,0.0,0.0,0.0,0.0,0.0,0.0,0.0,0.0,0.0,0.0,0.0,0.0,0.0,0.0,0.0,0.0,0.0,0.0,0.0,0.0,0.0,0.0,0.0,0.0,0.0,0.0,0.0,0.0,0.0,0.0,0.0,0.0,0.0,0.0,0.0,0.0,0.0,0.0,0.0,0.0,0.0,0.0,0.0,0.0,0.0,0.0,0.0,0.0,0.0,0.0,0.0,0.0,0.0,0.0,0.4907,0.2682,0.0403,-0.1075,-0.1075,-0.3094,-0.551,-0.844,0.0,0.0,0.0,0.0,0.0,0.0,0.0,0.0,0.0,0.0,0.0,0.0,0.0,0.0,0.0,0.0,0.0,0.0,0.0,0.0,0.0,0.0,0.0,0.0,0.0,0.0,0.0,0.0,0.0,0.0,0.0,0.0,0.0,0.0,0.0,0.0,0.0,0.0,0.0,0.0,0.0,0.0,0.0,0.0,0.0,0.0,0.0,0.0,0.0,0.0,0.0,0.0,0.0,0.0,0.0,0.0,0.0,0.0,0.0,0.0,0.0,0.0,0.0,0.0,0.0,0.0,0.0,0.0,0.0,0.0,0.0,0.0,0.0,0.0,0.0,0.0,0.0,0.0,0.0,0.0,0.0,0.0,0.0,0.0,0.0,0.0,0.0,0.0,0.0,0.0,0.0,0.0,0.0,0.0,0.0,0.0,0.0,0.0,0.0,0.0,0.0,0.0,0.0,0.4784,0.4147,0.2422,0.0269,-0.1075,-0.1075,-0.3094,-0.551,-0.844,-1.0518,0.0,0.0,0.0,0.0,0.0,0.0,0.0,0.0,0.0,0.0,0.0,0.0,0.0,0.0,0.0,0.0,0.0,0.0,0.0,0.0,0.0,0.0,0.0,0.0,0.0,0.0,0.0,0.0,0.0,0.0,0.0,0.0,0.0,0.0,0.0,0.0,0.0,0.0,0.0,0.0,0.0,0.0,0.0,0.0,0.0,0.0,0.0,0.0,0.0,0.0,0.0,0.0,0.0,0.0,0.0,0.0,0.0,0.0,0.0,0.0,0.0,0.0,0.0,0.0,0.0,0.0,0.0,0.0,0.0,0.0,0.0,0.0,0.0,0.0,0.0,0.0,0.0,0.0,0.0,0.0,0.0,0.0,0.0,0.0,0.0,0.0,0.0,0.0,0.0,0.0,0.0,0.0,0.0,0.0,0.0,0.0,0.0,0.0,0.0,0.0,0.0,0.0,0.3633,0.323,0.1885,-0.0,-0.1209,-0.1478,-0.3228,-0.551,-0.844,-1.1162,0.0,0.0,0.0,0.0,0.0,0.0,0.0,0.0,0.0,0.0,0.0,0.0,0.0,0.0,0.0,0.0,0.0,0.0,0.0,0.0,0.0,0.0,0.0,0.0,0.0,0.0,0.0,0.0,0.0,0.0,0.0,0.0,0.0,0.0,0.0,0.0,0.0,0.0,0.0,0.0,0.0,0.0,0.0,0.0,0.0,0.0,0.0,0.0,0.0,0.0,0.0,0.0,0.0,0.0,0.0,0.0,0.0,0.0,0.0,0.0,0.0,0.0,0.0,0.0,0.0,0.0,0.0,0.0,0.0,0.0,0.0,0.0,0.0,0.0,0.0,0.0,0.0,0.0,0.0,0.0,0.0,0.0,0.0,0.0,0.0,0.0,0.0,0.0,0.0,0.0,0.0,0.0,0.0,0.0,0.0,0.0,0.0,0.0,0.0,0.0,0.0,0.0,0.1885,0.1885,0.0808,-0.0403,-0.1478,-0.2554,-0.3633,-0.551,-0.844,-1.1162,0.0,0.0,0.0,0.0,0.0,0.0,0.0,0.0,0.0,0.0,0.0,0.0,0.0,0.0,0.0,0.0,0.0,0.0,0.0,0.0,0.0,0.0,0.0,0.0,0.0,0.0,0.0,0.0,0.0,0.0,0.0,0.0,0.0,0.0,0.0,0.0,0.0,0.0,0.0,0.0,0.0,0.0,0.0,0.0,0.0,0.0,0.0,0.0,0.0,0.0,0.0,0.0,0.0,0.0,0.0,0.0,0.0,0.0,0.0,0.0,0.0,0.0,0.0,0.0,0.0,0.0,0.0,0.0,0.0,0.0,0.0,0.0,0.0,0.0,0.0,0.0,0.0,0.0,0.0,0.0,0.0,0.0,0.0,0.0,0.0,0.0,0.0,0.0,0.0,0.0,0.0,0.0,0.0,0.0,0.0,0.0,0.0,0.0,0.0,0.0,0.0,0.0,0.0673,0.0808,0.0539,-0.1076,-0.2286,-0.2689,-0.3633,-0.551,-0.844,0.0,0.0,0.0,0.0,0.0,0.0,0.0,0.0,0.0,0.0,0.0,0.0,0.0,0.0,0.0,0.0,0.0,0.0,0.0,0.0,0.0,0.0,0.0,0.0,0.0,0.0,0.0,0.0,0.0,0.0,0.0,0.0,0.0,0.0,0.0,0.0,0.0,0.0,0.0,0.0,0.0,0.0,0.0,0.0,0.0,0.0,0.0,0.0,0.0,0.0,0.0,0.0,0.0,0.0,0.0,0.0,0.0,0.0,0.0,0.0,0.0,0.0,0.0,0.0,0.0,0.0,0.0,0.0,0.0,0.0,0.0,0.0,0.0,0.0,0.0,0.0,0.0,0.0,0.0,0.0,0.0,0.0,0.0,0.0,0.0,0.0,0.0,0.0,0.0,0.0,0.0,0.0,0.0,0.0,0.0,0.0,0.0,0.0,0.0,0.0,0.0,0.0,-0.0941,-0.0404,-0.0,-0.0404,-0.1882,-0.2825,-0.3228,-0.3902,-0.5774,-0.9094,0.0,0.0,0.0,0.0,0.0,0.0,0.0,0.0,0.0,0.0,0.0,0.0,0.0,0.0,0.0,0.0,0.0,0.0,0.0,0.0,0.0,0.0,0.0,0.0,0.0,0.0,0.0,0.0,0.0,0.0,0.0,0.0,0.0,0.0,0.0,0.0,0.0,0.0,0.0,0.0,0.0,0.0,0.0,0.0,0.0,0.0,0.0,0.0,0.0,0.0,0.0,0.0,0.0,0.0,0.0,0.0,0.0,0.0,0.0,0.0,0.0,0.0,0.0,0.0,0.0,0.0,0.0,0.0,0.0,0.0,0.0,0.0,0.0,0.0,0.0,0.0,0.0,0.0,0.0,0.0,0.0,0.0,0.0,0.0,0.0,0.0,0.0,0.0,0.0,0.0,0.0,0.0,0.0,0.0,0.0,0.0,0.0,0.0,0.0,0.0,0.0,0.0,-0.3358,-0.121,-0.0269,-0.242,-0.2689,-0.3094,-0.4174,-0.4308,-0.6034,0.0,0.0,0.0,0.0,0.0,0.0,0.0,0.0,0.0,0.0,0.0,0.0,0.0,0.0,0.0,0.0,0.0,0.0,0.0,0.0,0.0,0.0,0.0,0.0,0.0,0.0,0.0,0.0,0.0,0.0,0.0,0.0,0.0,0.0,0.0,0.0,0.0,0.0,0.0,0.0,0.0,0.0,0.0,0.0,0.0,0.0,0.0,0.0,0.0,0.0,0.0,0.0,0.0,0.0,0.0,0.0,0.0,0.0,0.0,0.0,0.0,0.0,0.0,0.0,0.0,0.0,0.0,0.0,0.0,0.0,0.0,0.0,0.0,0.0,0.0,0.0,0.0,0.0,0.0,0.0,0.0,0.0,0.0,0.0,0.0,0.0,0.0,0.0,0.0,0.0,0.0,0.0,0.0,0.0,0.0,0.0,0.0,0.0,0.0,0.0,0.0,0.0,0.0,-0.2689,-0.1614,-0.121,-0.2554,-0.3362,-0.3902,-0.4308,-0.4308,-0.564,-0.8961,0.0,0.0,0.0,0.0,0.0,0.0,0.0,0.0,0.0,0.0,0.0,0.0,0.0,0.0,0.0,0.0,0.0,0.0,0.0,0.0,0.0,0.0,0.0,0.0,0.0,0.0,0.0,0.0,0.0,0.0,0.0,0.0,0.0,0.0,0.0,0.0,0.0,0.0,0.0,0.0,0.0,0.0,0.0,0.0,0.0,0.0,0.0,0.0,0.0,0.0,0.0,0.0,0.0,0.0,0.0,0.0,0.0,0.0,0.0,0.0,0.0,0.0,0.0,0.0,0.0,0.0,0.0,0.0,0.0,0.0,0.0,0.0,0.0,0.0,0.0,0.0,0.0,0.0,0.0,0.0,0.0,0.0,0.0,0.0,0.0,0.0,0.0,0.0,0.0,0.0,0.0,0.0,0.0,0.0,0.0,0.0,0.0,0.0,0.0,0.0,0.0,0.0,-0.3497,-0.215,-0.1614,-0.3228,-0.3902,-0.4308,-0.4308,-0.4308,-0.5774,-0.9221,0.0,0.0,0.0,0.0,0.0,0.0,0.0,0.0,0.0,0.0,0.0,0.0,0.0,0.0,0.0,0.0,0.0,0.0,0.0,0.0,0.0,0.0,0.0,0.0,0.0,0.0,0.0,0.0,0.0,0.0,0.0,0.0,0.0,0.0,0.0,0.0,0.0,0.0,0.0,0.0,0.0,0.0,0.0,0.0,0.0,0.0,0.0,0.0,0.0,0.0,0.0,0.0,0.0,0.0,0.0,0.0,0.0,0.0,0.0,0.0,0.0,0.0,0.0,0.0,0.0,0.0,0.0,0.0,0.0,0.0,0.0,0.0,0.0,0.0,0.0,0.0,0.0,0.0,0.0,0.0,0.0,0.0,0.0,0.0,0.0,0.0,0.0,0.0,0.0,0.0,0.0,0.0,0.0,0.0,0.0,0.0,0.0,0.0,0.0,0.0,0.0,0.0,-0.4977,-0.2957,-0.2017,-0.4037,-0.4308,-0.4308,-0.4308,-0.4308,-0.6034,-1.0122,0.0,0.0,0.0,0.0,0.0,0.0,0.0,0.0,0.0,0.0,0.0,0.0,0.0,0.0,0.0,0.0,0.0,0.0,0.0,0.0,0.0,0.0,0.0,0.0,0.0,0.0,0.0,0.0,0.0,0.0,0.0,0.0,0.0,0.0,0.0,0.0,0.0,0.0,0.0,0.0,0.0,0.0,0.0,0.0,0.0,0.0,0.0,0.0,0.0,0.0,0.0,0.0,0.0,0.0,0.0,0.0,0.0,0.0,0.0,0.0,5.9357,5.9012,0.0,0.0,0.0,0.0,0.0,0.0,0.0,0.0,0.0,0.0,0.0,0.0,0.0,0.0,0.0,0.0,0.0,0.0,0.0,0.0,0.0,0.0,0.0,0.0,0.0,0.0,0.0,0.0,0.0,0.0,0.0,0.0,0.0,0.0,0.0,0.0,0.0,0.0,0.0,0.0,-0.4305,-0.3228,-0.2825,-0.4174,-0.4308,-0.4308,-0.4308,-0.4308,-0.564,-0.8828,-1.0003,0.0,0.0,0.0,0.0,0.0,0.0,0.0,0.0,0.0,0.0,0.0,0.0,0.0,0.0,0.0,0.0,0.0,0.0,0.0,0.0,0.0,0.0,0.0,0.0,0.0,0.0,0.0,0.0,0.0,0.0,0.0,0.0,0.0,0.0,0.0,0.0,0.0,0.0,0.0,0.0,0.0,0.0,0.0,0.0,0.0,0.0,0.0,0.0,0.0,0.0,0.0,0.0,0.0,0.0,0.0,0.0,0.0,0.0,0.0,0.0,5.9012,0.0,0.0,0.0,0.0,0.0,0.0,0.0,0.0,0.0,0.0,0.0,0.0,0.0,0.0,0.0,0.0,0.0,0.0,0.0,0.0,0.0,0.0,0.0,0.0,0.0,0.0,0.0,0.0,0.0,0.0,0.0,0.0,0.0,0.0,0.0,0.0,0.0,0.0,0.0,0.0,-0.4305,-0.3362,-0.3094,-0.4174,-0.4842,-0.4973,-0.4308,-0.4977,-0.6309,-0.844,-0.9221,0.0,0.0,0.0,0.0,0.0,0.0,0.0,0.0,0.0,0.0,0.0,0.0,0.0,0.0,0.0,0.0,0.0,0.0,0.0,0.0,0.0,0.0,0.0,0.0,0.0,0.0,0.0,0.0,0.0,0.0,0.0,0.0,0.0,0.0,0.0,0.0,0.0,0.0,0.0,0.0,0.0,0.0,0.0,0.0,0.0,0.0,0.0,0.0,0.0,0.0,0.0,0.0,0.0,6.1031,6.0129,5.9937,5.9317,5.9012,5.9012,5.9012,5.9012,5.8944,5.8351,0.0,0.0,0.0,0.0,0.0,0.0,0.0,0.0,0.0,0.0,0.0,0.0,0.0,0.0,0.0,0.0,0.0,0.0,0.0,0.0,0.0,0.0,0.0,0.0,1.0638,1.0778,0.6046,0.0,0.0,0.0,0.0,0.0,0.0,0.0,0.0,0.0,0.0,0.0,-0.4305,-0.3499,-0.3362,-0.4174,-0.5376,-0.551,-0.4442,-0.5376,-0.6711,-0.844,-0.8573,-1.0551,0.0,0.0,0.0,0.0,0.0,0.0,0.0,0.0,0.0,0.0,0.0,0.0,0.0,0.0,0.0,0.0,0.0,0.0,0.0,0.0,0.0,0.0,0.0,0.0,0.0,0.0,0.0,0.0,0.0,0.0,0.0,0.0,6.2805,6.2805,0.0,0.0,0.0,0.0,0.0,0.0,0.0,0.0,0.0,0.0,0.0,0.0,0.0,6.439,6.4352,6.4154,6.3356,6.2041,6.1185,6.0529,5.9937,5.9317,5.9012,5.9012,5.9012,0.0,5.8944,5.8351,0.0,0.0,0.0,0.0,0.0,0.0,0.0,0.0,0.0,0.0,0.0,0.0,0.0,0.0,0.0,0.0,0.0,0.0,0.0,0.0,0.0,0.0,1.0969,1.1003,1.0085,0.889,0.0,0.3768,-0.0,-0.0134,-0.3088,-0.5258,0.0,0.0,0.0,0.0,0.0,0.0,-0.4442,-0.4174,-0.4174,-0.4308,-0.4442,-0.444,-0.4308,-0.4442,-0.5778,-0.844,-0.8573,-1.0551,-1.4772,-1.5303,0.0,0.0,0.0,0.0,0.0,0.0,0.0,0.0,0.0,0.0,0.0,0.0,0.0,0.0,0.0,0.0,0.0,0.0,0.0,0.0,0.0,0.0,0.0,0.0,0.0,0.0,0.0,0.0,0.0,6.2805,6.2805,6.2805,6.2805,6.2805,0.0,0.0,0.0,0.0,0.0,0.0,0.0,0.0,0.0,6.3369,6.3505,6.3468,6.3369,6.3115,6.2583,6.1897,6.0891,6.0219,5.9937,5.9317,5.9012,5.9012,5.9012,5.8806,5.8422,5.7814,5.7372,5.6996,0.0,0.0,0.0,0.0,5.0155,4.7333,4.494,4.2478,3.9829,3.7133,0.0,0.0,0.0,0.0,0.0,0.0,0.0,0.0,0.0,0.0,0.9534,0.9806,0.9157,0.866,0.8606,0.136,-0.4346,-0.1346,-0.3785,-0.613,-0.5478,-0.5825,0.0,0.0,0.0,-0.551,-0.4442,-0.4308,-0.4308,-0.4308,-0.4977,-0.551,-0.551,-0.6176,-0.7641,-0.9637,-0.9769,-1.1094,-1.3875,-1.5043,-1.6829,0.0,0.0,0.0,0.0,0.0,0.0,0.0,0.0,0.0,0.0,0.0,0.0,0.0,0.0,0.0,0.0,0.0,0.0,0.0,0.0,0.0,0.0,0.0,0.0,0.0,0.0,0.0,0.0,6.2805,6.2755,6.2603,6.2705,6.2755,0.0,0.0,0.0,0.0,0.0,0.0,6.2805,6.2755,6.2755,6.2855,6.2805,6.2805,6.2904,6.2271,6.2005,6.1951,6.059,6.0001,5.9937,5.9317,5.9012,5.9012,5.8875,5.8422,5.7814,5.7372,5.6844,5.6224,5.5377,5.4433,5.3365,5.1567,4.9127,4.6547,4.3796,4.1207,3.8693,3.6511,3.3711,3.0858,2.8983,0.0,0.0,0.0,0.0,1.2931,1.3079,1.085,0.8617,0.8622,0.743,0.584,0.4387,-0.276,-0.7764,-0.4088,-0.5071,-0.6356,-0.5677,-0.6161,0.0,-0.5401,-0.574,-0.5672,-0.4465,-0.4316,-0.4442,-0.4842,-0.5778,-0.6577,-0.6973,-0.7907,-0.9238,-1.0571,-1.0704,-1.1505,-1.3367,-1.4651,-1.6183,-1.7931,0.0,0.0,0.0,0.0,0.0,0.0,0.0,0.0,0.0,0.0,0.0,0.0,0.0,0.0,0.0,0.0,0.0,0.0,0.0,0.0,0.0,0.0,0.0,0.0,0.0,0.0,0.0,0.0,0.0,6.2005,6.2464,0.0,0.0,0.0,0.0,6.2805,6.2904,6.2953,6.2805,6.2479,6.253,6.3002,6.2682,6.2732,6.3147,6.2581,6.2219,6.2059,6.0651,6.0001,5.9937,5.9317,5.9012,5.8944,5.8422,5.7814,5.7222,5.7222,5.6844,5.6146,5.4653,5.3459,5.2303,4.9685,4.7145,4.4447,4.1518,3.9451,3.7607,3.5356,3.253,2.9257,2.5448,2.3529,0.0,0.0,1.5554,1.3473,1.3936,1.1416,0.8622,0.8649,0.4208,-0.1504,-0.7164,-0.8149,-0.7681,0.0,-0.5324,-0.3932,-0.3274,0.0,-0.421,-0.4556,-0.5162,-0.5214,-0.4532,-0.4343,-0.4842,-0.6176,-0.6309,-0.6973,-0.8307,-0.8573,-0.9238,-1.0571,-1.0704,-1.1505,-1.3367,-1.3752,-1.4782,-1.6602,-1.7496,0.0,0.0,0.0,0.0,0.0,0.0,0.0,0.0,0.0,0.0,0.0,0.0,0.0,0.0,0.0,0.0,0.0,0.0,0.0,0.0,0.0,0.0,0.0,0.0,0.0,0.0,0.0,0.0,6.1897,6.2059,0.0,6.1897,6.2464,6.2654,6.2255,6.2308,6.2271,6.236,6.2166,6.2324,6.3002,6.2427,6.2219,6.2324,6.1358,6.0831,6.0711,5.9809,5.9383,5.9317,5.9149,5.8771,5.8422,5.8174,5.752,5.6614,5.6614,5.6257,5.562,5.4401,5.3177,5.1659,4.8972,4.6384,4.3679,4.0799,3.8526,3.6185,3.2716,2.9827,2.7194,2.4271,2.2438,2.069,1.7367,1.4893,1.3202,1.2592,0.9117,0.5383,0.3259,-0.1775,-0.6773,-0.8879,-0.8965,-0.8302,-0.6761,-0.5713,-0.4829,-0.4142,-0.4241,-0.4642,-0.5838,-0.5344,-0.5144,-0.5833,-0.5087,-0.4907,-0.6258,-0.6476,-0.7374,-0.9769,-0.9902,-1.0571,-1.1901,-1.2033,-1.2568,-1.3621,-1.3884,-1.4399,-1.5443,-1.6353,-1.8244,0.0,0.0,0.0,0.0,0.0,0.0,0.0,0.0,0.0,0.0,0.0,0.0,0.0,0.0,0.0,0.0,0.0,0.0,0.0,0.0,0.0,0.0,0.0,0.0,0.0,6.1915,6.164,6.1897,6.1897,6.1842,6.1584,6.1915,6.2112,6.1897,6.1897,6.1951,6.2005,6.1751,6.186,6.2618,6.1969,6.1751,6.1951,6.101,6.0406,6.0065,5.945,5.9149,5.9012,5.9012,5.8632,5.8103,5.7887,5.7222,5.6224,5.5749,5.5263,5.4851,5.3638,5.2399,5.0727,4.7579,4.5232,4.3157,3.9594,3.6657,3.4069,3.0897,2.8307,2.6106,2.3807,2.195,2.0055,1.684,1.4763,1.3202,1.2211,0.8051,0.2961,-0.2184,-0.6485,-0.9365,-0.9275,-0.9045,-0.8361,-0.6833,-0.6221,-0.575,-0.4746,-0.457,-0.5124,-0.6737,-0.5965,-0.5912,-0.7449,-0.6264,-0.5939,-0.7854,-0.7486,-0.8365,-1.1311,-1.1401,-1.1769,-1.2708,-1.2972,-1.3227,-1.3875,-1.4006,-1.466,-1.5694,-1.6861,-1.864,-2.1407,0.0,0.0,0.0,0.0,0.0,0.0,0.0,0.0,0.0,0.0,0.0,0.0,0.0,0.0,0.0,0.0,0.0,0.0,0.0,0.0,0.0,0.0,0.0,6.1897,6.2412,6.2515,6.1951,6.1897,6.164,6.1033,6.0938,6.1207,6.1842,6.1897,6.1897,6.1897,6.1265,6.1207,6.1897,6.1379,6.1436,6.2059,6.1715,6.1055,6.0184,5.9779,5.9351,5.9012,5.9012,5.8632,5.8031,5.7446,5.6844,5.6146,5.4653,5.3976,5.3828,5.2157,5.0938,4.9604,4.5247,4.3562,4.2731,3.7809,3.3957,3.1053,3.0119,2.8307,2.5984,2.3807,2.2076,2.0309,1.684,1.4754,1.3595,1.2789,0.8467,0.2018,-0.7005,-0.9204,-0.931,-0.9275,-0.8658,-0.7851,-0.7131,-0.699,-0.6555,-0.4956,-0.4665,-0.5244,-0.6833,-0.7048,0.0,-0.9117,-0.7888,-0.796,-1.0875,-0.965,-0.9844,-1.2823,-1.2938,-1.284,-1.284,-1.3235,-1.3498,-1.3875,-1.4277,-1.5434,-1.7474,-1.9291,-2.0829,-2.2201,0.0,0.0,0.0,0.0,0.0,0.0,0.0,0.0,0.0,0.0,0.0,0.0,0.0,0.0,0.0,0.0,0.0,0.0,0.0,0.0,0.0,6.1696,6.1897,6.1897,6.164,6.1379,6.1207,6.1149,6.1265,6.1584,6.164,6.1696,6.1897,6.1472,6.1436,6.2005,6.1322,6.1436,6.2668,6.1548,6.1149,6.1656,6.0344,5.9744,5.9779,5.9351,5.9081,5.9012,5.8562,5.8031,5.7446,5.6844,5.6257,5.5539,5.4433,5.3632,5.2781,5.1242,4.964,4.8062,4.4886,4.1412,3.7809,3.4847,3.226,3.0119,2.9176,2.6624,2.3931,2.3325,2.079,1.7613,1.5404,1.3037,1.0948,0.9946,0.6996,0.2567,-0.4292,-0.7697,-0.9327,-0.9369,-0.9136,-0.8579,-0.7276,-0.699,-0.6555,-0.4956,-0.4665,-0.5531,-0.828,-0.7679,0.0,-1.0668,-0.8561,-0.8072,-1.1028,-0.9781,-0.9936,-1.2831,-1.3051,-1.297,-1.2848,-1.3235,-1.3498,-1.3875,-1.4277,-1.5313,-1.712,-1.9534,-2.1532,0.0,0.0,0.0,0.0,0.0,0.0,0.0,0.0,0.0,0.0,0.0,0.0,0.0,0.0,0.0,0.0,0.0,0.0,0.0,0.0,0.0,0.0,6.1472,6.1732,6.1185,6.1472,6.1604,6.1322,6.1322,6.1322,6.1472,6.1472,6.1472,6.1472,6.1379,6.1379,6.1584,6.1436,6.1548,6.2129,6.1322,6.0855,6.0867,6.0065,5.9516,5.9351,5.9284,5.9149,5.9012,5.8422,5.7741,5.7147,5.6536,5.5749,5.4717,5.3805,5.2688,0.0,0.0,0.0,0.0,0.0,3.9461,3.5859,3.3711,3.1687,2.9648,2.8206,2.5635,2.2952,2.2452,1.9776,1.6581,1.4884,1.2783,1.0419,0.7512,0.5506,0.2702,-0.3612,-0.6729,-0.8484,-0.8678,-0.8579,-0.8,-0.6696,-0.6555,0.0,-0.5825,-0.5677,-0.6547,-0.9002,-0.9141,-0.9862,-1.2309,-1.0364,-0.9752,-1.2179,-1.0907,-1.0783,-1.3054,-1.3254,0.0,0.0,0.0,-1.3972,-1.4277,-1.5434,0.0,0.0,0.0,-2.156,-2.2284,0.0,0.0,0.0,-3.0335,-3.2508,0.0,0.0,0.0,0.0,0.0,0.0,0.0,0.0,0.0,0.0,0.0,0.0,0.0,0.0,0.0,0.0,6.1472,6.1472,6.0254,6.1528,6.2412,6.1842,6.1787,6.1584,6.1149,6.0997,6.0938,6.1055,6.1528,6.1584,6.1149,0.0,0.0,0.0,0.0,6.0555,6.0065,6.0254,5.9873,5.9081,5.9351,5.9284,5.8875,5.8246,5.7668,5.7072,5.6381,5.5231,5.3891,5.2843,5.1334,4.9419,4.7846,4.649,4.4967,4.067,3.7724,3.5508,3.3374,0.0,0.0,2.7091,2.4901,2.2827,2.1447,1.9024,1.6452,1.4884,1.3054,1.0551,0.5889,0.4423,0.2428,-0.3889,-0.617,-0.7209,-0.781,-0.7421,-0.67,-0.5974,-0.5825,-0.6116,-0.6833,-0.6978,-0.7557,-0.9291,-1.0725,-1.2166,-1.3753,-1.2595,-1.2166,-1.3753,0.0,0.0,-1.3504,-1.3498,-1.3319,-1.3141,-1.3914,-1.4485,-1.4941,-1.7109,-1.8011,-1.726,-1.9954,-2.1235,-2.0615,-2.1614,-2.3822,-2.6849,-2.9868,-3.195,0.0,0.0,0.0,0.0,0.0,0.0,0.0,0.0,0.0,0.0,0.0,0.0,0.0,0.0,0.0,6.0974,6.1472,6.164,6.0855,6.1033,6.1207,6.1091,6.1091,6.1436,6.2324,6.1492,6.1322,6.2324,6.1604,6.1492,6.2376,6.1548,6.1265,6.1696,6.0711,6.0254,6.0379,5.9613,5.9351,5.9485,0.0,0.0,5.8246,5.7668,5.7072,5.6381,5.5067,5.4317,5.3891,5.2093,4.9143,4.5635,4.4829,4.2977,4.0492,3.782,3.5485,3.3261,3.1245,2.9766,2.8343,2.6156,2.4317,2.2827,2.1447,1.8384,0.0,1.4903,1.1329,0.7498,0.725,0.497,0.1489,-0.3059,-0.5607,-0.7068,-0.7242,-0.7135,-0.67,-0.5974,-0.5825,-0.6116,-0.6833,-0.6978,-0.7986,-1.0725,-1.1442,-1.2166,-1.3753,-1.2595,-1.2166,-1.3753,-1.243,-1.2073,-1.3512,-1.3612,-1.3653,-1.3738,-1.4262,-1.5016,-1.5724,-1.6742,-1.7636,-1.8291,-1.9711,-2.0602,-2.0982,-2.1978,-2.3574,-2.5879,-2.8015,-3.0703,0.0,0.0,0.0,0.0,0.0,0.0,0.0,0.0,0.0,0.0,0.0,6.059,6.059,0.0,6.0344,6.003,6.0529,6.0711,5.9995,6.0494,6.0879,6.0879,6.1207,6.164,6.2308,6.2059,6.1969,6.236,6.2059,6.1969,6.236,6.1751,6.1379,6.1379,6.0468,5.9937,5.9744,5.9249,5.9081,5.9284,5.9081,5.8702,5.8103,5.752,5.6844,5.6224,5.4653,5.3719,5.3046,4.9961,4.7064,4.4447,4.2431,4.0389,3.8509,3.6834,3.4847,3.2695,3.0684,2.9294,2.7984,2.5056,2.3698,2.2702,2.0703,1.7625,1.4912,1.4912,1.1336,0.7507,0.7794,0.6053,0.3115,-0.1251,-0.4203,-0.5937,-0.6372,-0.6119,-0.5683,-0.5389,-0.5247,-0.5825,-0.7847,-0.8136,-0.8997,-1.1299,-1.2309,-1.3031,-1.3753,-1.2595,-1.2166,-1.3753,-1.2452,-1.2137,-1.3633,-1.3833,-1.4014,-1.4337,-1.4611,-1.5196,-1.6146,-1.6686,-1.7518,-1.8547,-1.9711,-2.0729,-2.1362,-2.2355,-2.3837,-2.5757,-2.7896,-3.049,0.0,0.0,0.0,0.0,0.0,0.0,0.0,6.135,6.1544,6.1544,6.1045,6.0626,6.0686,5.9937,5.9317,5.9317,5.9744,5.9937,5.9415,6.0121,6.0796,6.1091,6.1584,6.1951,6.2059,6.2412,6.2464,6.2112,6.2412,6.2464,6.2059,6.1842,6.1472,6.0879,6.0156,5.9582,5.9012,5.9012,5.9012,5.9012,5.8875,5.8492,5.7887,5.7297,5.6614,5.5716,5.4115,5.2931,5.1759,4.7702,4.5619,4.4509,4.0848,3.8753,3.7536,3.634,3.4403,3.2146,3.0451,2.9057,2.7383,2.4178,2.2952,2.2201,1.9826,1.712,1.4912,1.4912,1.1607,0.8174,0.7927,0.6594,0.4333,-0.0139,-0.2941,-0.4947,-0.565,-0.5244,-0.4665,-0.4665,-0.4953,-0.5967,-0.8858,-0.9579,-1.0293,-1.1872,-1.3031,-1.3904,-1.3904,-1.2888,-1.2452,-1.3753,-1.2452,-1.2166,-1.3468,-1.4048,-1.4509,-1.4754,-1.501,-1.5596,-1.6451,-1.7053,-1.7821,-1.8804,-2.0094,-2.1109,-2.1866,-2.2731,-2.4209,-2.6382,-2.8372,-3.0587,6.1152,6.1152,6.1093,6.1093,6.1093,6.1093,0.0,6.1152,6.1152,6.1152,6.0635,6.0262,6.0547,6.0477,6.0317,6.0317,6.0379,6.0468,6.0676,6.0344,6.0529,6.164,6.1842,6.2112,6.2654,6.2308,6.2166,6.2654,6.2255,6.2202,6.2705,6.164,6.0974,6.0879,5.9709,5.9081,5.9012,5.9012,5.9012,5.9012,5.8492,5.7887,5.7297,5.6691,5.5636,5.4147,5.2274,5.0857,4.9776,4.6835,4.5547,4.5056,4.1014,3.8461,3.6916,3.5291,3.2851,3.0217,3.0001,2.7966,2.5194,2.3574,2.2327,2.1082,1.9571,1.712,1.4912,1.4912,1.0934,0.6836,0.766,0.4839,0.1084,-0.1529,-0.3503,-0.4947,-0.565,-0.5244,-0.4665,-0.4665,-0.5822,-0.7268,-0.9002,-1.0437,-1.1872,-1.3468,-1.3753,-1.3904,-1.3904,-1.3753,-1.3753,-1.3904,-1.2452,-1.1872,-1.2302,-1.3872,-1.4947,-1.519,-1.6234,-1.6848,-1.7124,-1.8125,-1.9054,-1.9979,-2.0602,-2.1488,-2.248,-2.323,-2.4826,-2.7349,-2.9002,-3.107,6.1093,6.1093,6.1093,6.1093,6.1093,6.1093,6.1093,6.1093,6.1093,6.1093,6.0732,6.0423,6.0547,6.0262,5.9972,5.9972,6.01,6.0254,6.0344,6.0772,6.13,6.1842,6.2202,6.2515,6.2755,6.2567,6.2515,6.2755,6.2603,6.2515,6.2805,6.1604,6.0879,6.0879,5.9644,5.9012,5.9012,5.9012,5.9012,5.9012,5.8422,5.7814,5.7222,5.6614,5.5149,5.3108,5.1758,5.0162,4.8596,4.6413,4.4674,4.3119,3.9744,3.7563,3.6204,3.5172,3.2757,2.9884,2.9884,2.7829,2.4826,2.3574,2.2201,2.069,1.8536,1.6462,1.4782,1.3866,1.0148,0.6435,0.6305,0.3761,0.0677,-0.1809,-0.2943,-0.3672,-0.4927,-0.4956,-0.4953,-0.5822,-0.6547,-0.7847,-1.0149,-1.1155,-1.2166,-1.3611,-1.3904,-1.3904,-1.3904,-1.3174,-1.2595,-1.2595,-1.2015,-1.2166,-1.346,-1.4474,-1.5159,-1.5493,-1.648,-1.7159,-1.7641,-1.8438,-1.9422,-2.0606,-2.1075,-2.1866,-2.2856,-2.3604,-2.4702,-2.6399,-2.9102,-3.1281,6.1093,6.1093,6.1093,6.1093,6.1093,6.1093,6.1093,6.1093,6.1093,6.1093,6.0854,6.0609,6.0732,6.0234,5.9783,5.9783,5.9972,6.0192,6.0219,6.1185,6.1951,6.2112,6.2515,6.2805,6.2805,6.2805,6.2805,6.2805,6.2805,6.2805,6.2805,6.1604,6.0879,6.0879,5.9644,5.9012,5.9012,5.9012,5.8944,5.8702,5.8103,5.752,5.692,5.5796,5.42,5.2124,5.1109,4.9679,4.7892,4.6373,4.4388,4.1938,3.9141,3.7241,3.5947,3.488,3.2626,3.0035,2.9686,2.7349,2.444,2.345,2.195,2.0068,1.7753,1.6073,1.4511,1.2668,0.9353,0.6164,0.5232,0.3358,0.0813,-0.2088,-0.2663,-0.2823,-0.4638,-0.481,-0.5098,-0.6688,-0.7412,-0.842,-1.1155,-1.2015,-1.2595,-1.3753,-1.3904,-1.3904,-1.3904,-1.2595,-1.1586,-1.1586,-1.1442,-1.2022,-1.3896,-1.4474,-1.5044,-1.6028,-1.6867,-1.7717,-1.8479,-1.9212,-2.001,-2.1162,-2.1592,-2.2328,-2.323,-2.3852,-2.4718,-2.6067,-2.9201,-3.1512,6.1093,6.1093,6.1093,6.1093,6.1093,6.1093,6.1093,6.1093,6.1093,6.1093,6.0854,6.0671,6.1034,6.0547,6.0107,6.0107,6.029,6.059,6.0855,6.1472,6.2112,6.2705,6.2805,6.2805,6.2805,6.2805,6.2805,6.2805,6.2805,6.2805,6.2805,6.1604,6.0879,6.0879,5.9644,5.9012,5.9012,5.9012,5.8702,5.8103,5.752,5.692,5.6224,5.3773,5.2124,5.1109,5.0124,4.905,4.792,4.6736,4.4862,4.2538,4.0082,3.805,3.6351,3.4065,3.2187,3.0433,2.8966,2.6139,2.3201,2.3076,2.1321,1.8944,1.7496,1.6073,1.4381,1.1593,0.8684,0.6168,0.5242,0.3633,0.1219,-0.2921,-0.3081,-0.2964,-0.5216,-0.5244,-0.5098,-0.6688,-0.828,-0.9718,-1.1299,-1.2888,-1.3904,-1.3904,-1.3904,-1.3904,-1.3904,-1.2595,-1.1586,-1.1586,-1.0868,-1.1012,-1.2588,-1.346,-1.4893,-1.7168,-1.7991,-1.871,-1.9574,-2.065,-2.1327,-2.1421,-2.2181,-2.2921,-2.3604,-2.3991,-2.5087,-2.7056,-2.9573,-3.1647,6.1093,6.1093,6.1093,6.1093,6.1093,6.1093,6.1093,6.1093,6.1093,6.1093,6.1234,6.135,6.135,6.1221,6.1068,6.1022,6.1221,6.1472,6.1528,6.2112,6.2567,6.2755,6.2805,6.2805,6.2805,6.2805,6.2805,6.2805,6.2412,6.2166,6.2166,6.101,6.0282,6.0282,5.945,5.9012,5.9012,5.9012,5.8702,5.8103,5.7072,5.5955,5.4736,5.3284,5.2033,5.1016,4.9317,4.792,4.6764,4.5714,4.339,4.0337,3.9569,3.7821,3.5495,3.3099,3.1788,3.0869,2.9368,2.6355,2.3076,2.3076,2.1335,1.8688,1.6333,1.5294,1.411,1.0419,0.7897,0.6168,0.4836,0.3362,0.1491,-0.1531,-0.1961,-0.2258,-0.4638,-0.481,-0.5389,-0.7991,-0.9002,-1.0155,-1.2745,-1.3611,-1.3904,-1.3904,-1.3904,-1.3468,-1.2452,-1.1872,-1.1155,-1.0149,-1.0293,-1.0725,-1.1442,-1.2316,-1.3325,-1.4608,-1.6291,-1.7238,-1.7027,-1.882,-2.0158,-2.0914,-2.1319,-2.2368,-2.431,-2.4828,-2.57,-2.7056,-3.0354,-3.2427,6.1093,6.1093,6.1093,6.1093,6.1093,6.1093,6.1093,6.1093,6.1093,6.1093,6.1408,6.1656,6.1487,6.1528,6.1584,6.1544,6.1768,6.1897,6.1897,6.2412,6.2805,6.2805,6.2805,6.2805,6.2805,6.2805,6.2705,6.2464,6.2112,6.1787,6.1584,6.0529,6.0001,6.0001,5.9317,5.9012,5.9012,5.8806,5.828,5.7446,5.6113,5.4819,5.3459,5.2485,5.1482,5.0478,4.8724,4.7383,4.6215,4.4617,4.2164,3.9098,3.8744,3.7188,3.5108,3.2661,3.1637,3.0955,2.8571,2.5714,2.3076,2.2577,2.0956,1.8559,1.5694,1.4912,1.3849,0.9094,0.7102,0.59,0.4031,0.2556,0.1085,-0.0835,-0.1541,-0.2399,-0.4348,-0.4665,-0.5677,-0.8714,-0.9291,-1.0299,-1.3325,-1.3904,-1.3904,-1.3904,-1.3468,-1.2888,-1.2452,-1.2015,-1.1442,-1.0587,-1.0293,-1.0581,-1.1305,-1.2309,-1.3309,-1.4449,-1.615,-1.7137,-1.6997,-1.8122,-1.9244,-2.0083,-2.0946,-2.21,-2.3828,-2.5124,-2.6199,-2.7056,-3.0374,-3.2427,6.1093,6.1093,6.1093,6.1093,6.1093,6.1093,6.1093,6.1093,6.1093,6.1093,6.1408,6.1656,6.1544,6.162,6.164,6.16,6.1823,6.1951,6.1951,6.2412,6.2805,6.2805,6.2805,6.2805,6.2805,6.2805,6.2515,6.1897,6.1842,6.1584,6.0915,6.0282,5.9937,5.9937,5.9317,5.9012,5.8944,5.8351,5.7446,5.6303,5.4736,5.3459,5.2606,5.1574,5.0573,4.9571,4.8424,4.728,4.6005,4.3669,4.1347,3.9098,3.7746,3.6438,3.4964,3.2642,3.1475,3.0672,2.6802,2.4469,2.2827,2.1573,2.0195,1.8419,1.5694,1.4912,1.3587,0.802,0.6431,0.5767,0.2959,0.1481,0.0271,-0.0974,-0.2101,-0.3105,-0.4493,-0.4665,-0.5677,-0.8714,-0.9435,-1.0443,-1.3468,-1.3904,-1.3896,-1.3753,-1.2595,-1.2309,-1.3611,-1.2738,-1.2166,-1.2602,-1.1018,-1.0443,-1.1886,-1.3016,-1.4432,-1.6282,-1.7147,-1.8142,-1.9111,-1.8552,-1.8432,-1.8879,-2.1032,-2.2217,-2.241,-2.4952,-2.643,-2.7056,-2.9592,-3.1782,6.1093,6.1093,6.1093,6.1093,6.1093,6.1093,6.1093,6.1093,6.1093,6.1093,6.1636,6.2024,6.1914,6.2308,6.2618,6.2464,6.2552,6.2603,6.2603,6.2705,6.2805,6.2805,6.2805,6.2805,6.2805,6.2805,6.2324,6.1265,6.1149,6.0855,6.0282,5.9613,5.9249,5.9249,5.9081,5.8771,5.8351,5.7297,5.6614,5.6303,5.4736,5.3459,5.2606,5.1574,5.0162,4.8324,4.728,4.6137,4.4859,4.2526,4.0592,3.9075,3.7392,3.5586,3.3613,3.195,3.0672,2.9202,2.547,2.3717,2.2827,2.1573,1.9546,1.7238,1.5424,1.4128,1.2545,0.9099,0.7236,0.603,0.4166,0.2825,0.122,-0.0835,-0.1541,-0.2258,-0.4204,-0.4665,-0.5677,-0.8714,-1.1162,-1.3031,-1.3753,-1.3904,-1.3468,-1.2309,-1.3031,-1.346,-1.2738,-1.1586,-1.0581,-0.9856,-1.0155,-1.0017,-0.9152,-1.0299,-1.1305,-1.2022,-1.3872,-1.4733,-1.4449,-1.6009,-1.7107,-1.7736,-1.9882,-2.1645,-2.273,-2.5707,-2.7293,-2.7401,-3.0198,-3.226,6.1093,6.1093,6.1093,6.1093,6.1093,6.1093,6.1093,6.1093,6.1152,6.1292,6.1804,6.2185,6.2238,6.2654,6.2953,6.2805,6.2805,6.2805,6.2805,6.2805,6.2805,6.2805,6.2805,6.2705,6.2412,6.2412,6.1897,6.0615,6.0736,6.0494,5.9648,5.9182,5.9012,5.9012,5.8702,5.8174,5.7297,5.6614,5.5988,5.5312,5.3976,5.2843,5.185,5.0419,4.9092,4.792,0.0,4.5289,4.4453,4.1509,3.9803,3.8957,3.6905,3.5001,3.3188,3.1654,3.04,2.8674,2.4766,2.3223,2.2827,2.0829,1.878,1.6721,1.5294,1.3866,1.2018,0.8568,0.7102,0.59,0.3897,0.2422,0.0948,-0.0835,-0.1681,-0.2541,-0.4348,-0.4665,-0.5677,-0.8714,-1.1736,-1.3904,-1.3904,-1.3904,-1.3611,-1.2738,-1.3174,-1.3317,-1.2745,-1.2309,-1.1305,-0.9718,-1.0161,-1.0161,-0.9008,-1.0299,-1.1305,-1.2029,-1.3452,-1.4315,-1.4315,-1.5177,-1.616,-1.6997,-1.9209,-2.1327,-2.3036,-2.5834,-2.7514,-2.8268,-3.0077,-3.1727,6.1093,6.1093,6.1093,6.1093,6.1093,6.1093,6.1093,6.1152,6.1292,6.16,6.2024,6.2291,6.2552,6.2805,6.2953,6.2805,6.2755,6.2705,6.2705,6.2705,6.2705,6.2705,6.2705,6.2464,6.1951,6.1842,6.13,6.0065,6.0494,6.0246,5.9081,5.9012,5.8944,5.8875,5.828,5.7446,5.6303,5.6067,5.5312,5.3976,5.2931,5.185,5.0798,4.8894,4.7819,4.7513,4.5502,4.4561,4.4235,4.0707,3.9216,3.898,3.6316,3.4411,3.2863,3.17,3.0185,2.8323,2.4409,2.3076,2.2702,1.9954,1.8022,1.6462,1.5294,1.3735,1.1754,0.7764,0.6564,0.5767,0.3228,0.1616,0.0407,-0.0974,-0.1961,-0.3105,-0.4348,-0.4953,-0.6112,-0.8714,-1.1736,-1.3904,-1.3904,-1.3904,-1.3904,-1.3753,-1.3031,-1.2595,-1.2888,-1.3182,-1.261,-1.0743,-1.0743,-1.0593,-1.0023,-1.1449,-1.2738,-1.3595,-1.4315,-1.5026,-1.5877,-1.5328,-1.5612,-1.6734,-1.9089,-2.1283,-2.3273,-2.5634,-2.7621,-2.9216,-2.9692,-3.0762,6.1093,6.1093,6.1093,6.1093,6.1093,6.1093,6.1093,6.135,6.16,6.1656,6.2149,6.2552,6.2603,6.2705,6.2805,6.2805,6.236,6.2059,6.2059,6.2059,6.2059,6.2059,6.2059,6.2005,6.1897,6.1379,6.0796,6.0065,6.0129,5.9809,5.9012,5.9012,5.8771,5.8246,5.7668,5.6996,5.6303,5.5067,5.4232,5.3976,5.2184,5.0768,4.9785,4.8567,4.6971,4.5208,4.4886,0.0,4.3073,4.0384,3.9216,3.8935,3.6075,3.3598,3.1558,3.0895,2.9276,2.702,2.4085,2.3076,2.2702,1.9954,1.7378,1.5163,1.4912,1.3079,1.0711,0.8706,0.7369,0.6034,0.43,0.2959,0.1356,-0.0835,-0.1401,-0.2117,-0.4204,-0.6688,-0.8714,-0.9147,-1.1736,-1.3904,-1.3904,-1.3904,-1.3611,-1.2595,-1.3603,-1.3603,-1.0875,-1.0587,-1.0731,-1.0881,-1.0455,-1.0023,-0.9879,-1.075,-1.1469,-1.2029,-1.2745,-1.3468,-1.4324,-1.4759,-1.5612,-1.6734,-1.9773,-2.2089,-2.3273,-2.6663,-2.8776,-2.958,-3.0092,-3.1172,6.1093,6.1093,6.1093,6.1093,6.1093,6.1093,6.1093,6.1408,6.1768,6.1951,6.236,6.2755,6.2904,6.2904,6.2855,6.2805,6.2308,6.1897,6.1897,6.1584,6.1379,6.1379,6.1379,6.13,6.095,6.0651,6.0156,5.9516,5.945,5.9317,5.9012,5.8702,5.828,5.7668,5.7072,5.6192,5.5149,5.4401,5.3545,5.2455,5.1574,5.0228,4.8638,4.7559,4.6242,4.467,4.4042,4.3159,4.1923,3.9919,3.8862,3.8007,3.5882,3.3556,3.1237,3.1047,2.8864,2.5823,2.3822,2.2702,2.1699,1.9699,1.7249,1.4912,1.4912,1.2947,1.0313,0.8035,0.6969,0.59,0.3763,0.2692,0.1627,-0.0696,-0.2266,-0.3301,-0.4506,-0.7123,-0.9291,-0.9291,-1.1736,-1.3904,-1.3904,-1.3904,-1.3753,-1.346,-1.4324,-1.4039,-1.1449,-1.1305,-1.1025,-1.0167,-1.0023,-1.0,-1.0072,-1.0849,-1.1579,-1.2066,-1.2851,-1.3761,-1.4474,-1.5044,-1.6028,-1.757,-1.9773,-2.2167,-2.4701,-2.6823,-2.8911,-3.0698,-3.0615,-3.113,6.1093,6.1093,6.1093,6.1093,6.1152,6.127,6.127,6.1636,6.2095,6.2376,6.2718,6.2953,6.3147,6.3099,6.2953,6.2805,6.2308,6.1842,6.1696,6.1207,6.0855,6.0736,6.0736,6.0494,6.0065,5.9873,5.9582,5.9012,5.8875,5.8806,5.8806,5.8351,5.7741,5.7072,5.6536,5.5555,5.3976,5.3805,5.2843,5.1109,5.0922,4.9679,4.7615,4.6764,4.5608,4.4261,4.3406,4.2263,4.0985,3.9686,3.8506,3.7188,3.589,3.3797,3.1389,3.1294,2.8676,2.5043,2.3604,2.2201,2.0829,1.9584,1.7249,1.4912,1.4912,1.2947,1.018,0.7636,0.6698,0.5767,0.3362,0.2423,0.1627,-0.0696,-0.3002,-0.481,-0.5098,-0.7412,-0.9435,-0.9723,-1.2022,-1.3904,-1.4047,-1.4047,-1.4189,-1.4617,-1.4759,-1.4189,-1.2466,-1.2466,-1.1743,-0.959,-0.9735,-1.0114,-1.0272,-1.1239,-1.1973,-1.2529,-1.3381,-1.4189,-1.491,-1.5328,-1.6442,-1.8412,-1.9912,-2.2356,-2.6023,-2.7245,-2.9171,-3.1797,-3.1115,-3.12,6.1093,6.1093,6.1093,6.1093,6.135,6.1656,6.1656,6.2308,6.2904,6.2953,6.3147,6.3289,6.3231,6.3099,6.2953,6.2805,6.2308,6.1696,6.1091,6.0974,6.0676,6.0129,6.0065,6.0065,6.0001,5.945,5.9081,5.9012,5.8492,5.8174,5.8174,5.8103,5.7594,5.6381,5.6303,5.5555,5.3976,5.3108,5.2215,5.1109,5.022,4.8624,4.6424,4.6319,4.5182,4.3184,4.3098,4.2263,0.0,3.9686,3.8506,3.7188,3.589,3.3873,3.1664,3.1408,2.8853,2.5344,2.3678,2.2201,2.0829,1.9584,1.7249,1.4912,1.4912,1.2947,1.0319,0.8839,0.7369,0.6034,0.4568,0.3094,0.1627,-0.0696,-0.3002,-0.5098,-0.6547,-0.8136,-0.9723,-1.1155,-1.2745,-1.4047,-1.4332,-1.4474,-1.4617,-1.5328,-1.4608,-1.3611,-1.2753,-1.2029,-1.1175,-1.0023,-1.0167,-1.0544,-1.0696,-1.1674,-1.2266,-1.2529,-1.3381,-1.4189,-1.491,-1.5328,-1.6442,-1.8412,-2.1121,-2.3569,-2.6023,-2.8689,-3.0627,-3.1816,-3.174,-3.1777,6.1093,6.1093,6.1152,6.1408,6.1544,6.1768,6.2041,6.2567,6.3002,6.3002,6.3289,6.3465,6.3279,6.3147,6.3051,6.2805,6.2308,6.1842,6.1528,6.1149,6.0676,6.0065,6.0001,5.9809,5.945,5.9149,5.8875,5.8492,5.8385,5.7993,5.7331,5.7072,5.6768,5.6303,5.5393,5.4317,5.3196,5.2215,5.1203,5.022,4.9346,4.8151,4.6556,4.6032,4.4859,4.3295,4.3432,4.215,0.0,3.9686,3.8149,3.6013,3.4901,3.3395,3.1721,3.0668,2.786,2.426,2.3429,2.1699,1.9826,1.9328,1.7249,1.4912,1.4912,1.2947,1.018,0.7902,0.6831,0.5897,0.3629,0.1634,-0.0276,-0.1956,-0.3575,-0.5098,-0.6688,-0.828,-0.9718,-1.1299,-1.3031,-1.4332,-1.4474,-1.4625,-1.5044,-1.5461,-1.4608,-1.3753,-1.3182,-1.2173,-1.1319,-1.0606,-1.075,-1.0805,-1.0994,-1.1818,-1.2403,-1.2658,-1.3784,-1.4638,-1.5044,-1.6037,-1.7157,-1.8412,-2.1683,-2.426,-2.6023,-2.8854,-3.0918,-3.2175,-3.1929,-3.2247,6.127,6.1211,6.1211,6.16,6.1823,6.2041,6.2464,6.2904,6.3194,6.3194,6.3419,6.3511,6.3279,6.3194,6.3099,6.2855,6.2464,6.2005,6.164,6.1207,6.0615,5.9809,5.9714,5.9516,5.9081,5.9012,5.8806,5.828,5.8243,5.7808,5.6834,5.6414,5.61,5.5716,5.4569,5.3371,5.2124,5.1482,5.0668,4.9669,4.8881,4.7948,4.6791,4.5926,4.4778,4.3517,4.3764,4.2263,0.0,3.9896,3.8268,3.5541,3.4548,3.3348,3.1766,3.0208,2.7445,2.4284,2.3348,2.1573,1.9571,1.8804,1.6861,1.4782,1.439,1.2553,1.018,0.7769,0.6435,0.5098,0.2422,0.0275,-0.1541,-0.2663,-0.3861,-0.5244,-0.7268,-0.8569,-0.9862,-1.1872,-1.346,-1.4474,-1.4617,-1.4901,-1.5328,-1.5753,-1.4466,-1.3468,-1.3325,-1.218,-1.1175,-1.1044,-1.1188,-1.1355,-1.1324,-1.2139,-1.2727,-1.2964,-1.4094,-1.4841,-1.5177,-1.6603,-1.758,-1.8412,-2.2232,-2.48,-2.6023,-2.9117,-3.1249,-3.2422,-3.2119,-3.2786,6.1712,6.1408,6.1211,6.16,6.2041,6.25,6.2904,6.3289,6.3602,6.3602,6.3602,6.3511,6.3279,6.3194,6.3099,6.2855,6.2805,6.2324,6.1091,6.0879,6.0432,5.9182,5.9012,5.9012,5.9012,5.9012,5.8875,5.8561,5.7954,5.7439,5.6987,5.6447,5.5539,5.4369,5.4147,5.3077,5.1109,5.1109,5.0668,4.9669,4.8881,4.7948,4.6791,4.5926,4.4912,4.3899,4.3899,4.26,0.0,4.0592,3.898,3.63,3.5273,3.3882,3.2143,3.0317,2.8243,2.5866,2.3798,2.2201,2.069,1.7871,1.6073,1.4651,1.321,1.1769,1.0452,0.8972,0.6573,0.3763,0.1211,-0.0412,-0.1541,-0.2663,-0.3861,-0.5535,-0.8569,-0.9291,-1.0155,-1.3325,-1.4189,-1.4625,-1.491,-1.5328,-1.5753,-1.6178,-1.4181,-1.2896,-1.3182,-1.1606,-1.0599,-1.09,-1.1763,-1.2066,-1.1739,-1.2564,-1.3145,-1.3384,-1.4233,-1.4982,-1.5593,-1.6744,-1.758,-1.8412,-2.2739,-2.5308,-2.6023,-2.9639,-3.1763,-3.2422,-3.2422,-3.3539,6.2149,6.2132,6.2132,6.2464,6.2668,6.2904,6.3289,6.3511,6.3602,6.3602,6.3602,6.3511,6.3279,6.3194,6.3099,6.2855,6.2464,6.2059,6.164,6.1207,6.0615,5.9744,5.9249,5.9081,5.9351,5.8944,5.8526,5.8209,5.7701,5.7139,5.6603,5.6402,5.6053,5.5539,5.4232,5.3165,5.2365,5.1263,5.0346,4.9669,4.8453,4.7615,4.6998,4.5635,4.4722,4.4094,4.3764,4.2463,4.0592,4.0152,3.8529,3.63,3.4507,3.3253,3.2143,2.9582,2.7647,2.5881,2.3798,2.2201,2.0829,1.9048,1.6861,1.4782,1.439,1.2553,1.018,0.7769,0.5101,0.2287,-0.0,-0.0961,-0.1821,-0.3503,-0.429,-0.5535,-0.8569,-0.9291,-1.0299,-1.3611,-1.4617,-1.4901,-1.5328,-1.5753,-1.5753,-1.5177,-1.3896,-1.3039,-1.261,-1.1606,-1.1038,-1.1763,-1.233,-1.2484,-1.2015,-1.2589,-1.3157,-1.3651,-1.4242,-1.5108,-1.6291,-1.7429,-1.8412,-1.9111,-2.2519,-2.4815,-2.6023,-2.8706,-3.0843,-3.2422,-3.3038,-3.4161,6.2705,6.2552,6.25,6.2904,6.3002,6.3099,6.3511,6.3602,6.3602,6.3602,6.3602,6.3511,6.3279,6.3194,6.3099,6.2855,6.2308,6.1842,6.1732,6.1185,6.059,6.01,5.9683,5.9418,5.9351,5.8944,5.8456,5.7848,5.7514,5.7063,5.6525,5.6525,5.629,5.5781,5.4147,5.2931,5.1942,5.1011,5.0086,4.9346,4.8122,4.7308,4.6714,4.5368,4.4613,4.4422,4.4068,4.2799,0.0,4.0755,3.9121,3.6524,3.4487,3.301,3.1809,2.9168,2.758,2.6339,2.3878,2.2577,2.1321,1.8396,1.5554,1.3341,1.3341,1.1358,0.8706,0.6965,0.4431,0.175,-0.0,-0.0961,-0.1681,-0.3503,-0.4715,-0.6257,-0.8714,-0.9718,-1.1012,-1.3896,-1.4768,-1.5186,-1.5461,-1.5895,-1.5895,-1.4884,-1.3888,-1.3039,-1.2466,-1.1613,-1.1332,-1.2051,-1.2617,-1.279,-1.2519,-1.2995,-1.3505,-1.4053,-1.4455,-1.5321,-1.6856,-1.7851,-1.8692,-1.9529,-2.2408,-2.4573,-2.6023,-2.8969,-3.1102,-3.2422,-3.3292,-3.449,0.0,6.2805,6.2603,6.2953,6.3051,6.3147,6.3511,6.3602,0.0,6.3602,6.3602,6.3511,6.3279,6.3231,6.3099,6.2805,6.2255,6.1732,6.1487,6.0867,6.0415,6.0135,6.0043,5.9748,5.9081,5.8944,5.8422,5.7439,5.7289,5.7063,5.668,5.668,5.6257,5.5231,5.403,5.2485,5.0692,5.0596,4.996,4.8795,4.7993,4.6998,4.6007,4.5046,4.4722,4.4722,4.4613,4.3602,0.0,4.1899,4.0176,3.7253,3.5067,3.3336,3.1471,2.9081,2.7946,2.7041,2.4052,2.3076,2.2062,1.67,1.3079,1.085,1.0717,0.8706,0.6431,0.6431,0.4431,0.1885,0.0673,-0.0412,-0.1541,-0.2803,-0.4997,-0.7268,-0.9002,-1.0437,-1.2015,-1.4047,-1.4617,-1.5044,-1.5319,-1.5753,-1.5612,-1.4884,-1.3896,-1.3039,-1.2753,-1.1756,-1.1332,-1.2194,-1.2617,-1.2978,-1.3091,-1.3612,-1.4053,-1.4455,-1.4864,-1.5734,-1.7268,-1.7991,-1.8832,-1.9529,-2.2545,-2.4709,-2.6157,-3.029,-3.2422,-3.2422,-3.3038,-3.4383,6.3465,0.0,6.3336,6.3465,6.3465,6.3465,0.0,6.3602,6.3602,6.3602,6.3602,6.3557,6.3382,6.3242,6.3002,6.236,6.1878,6.143,6.0807,6.0415,6.0135,6.0107,5.9617,5.9284,5.9383,5.8351,5.7701,5.7668,5.7181,5.6834,5.668,5.668,5.5908,5.4401,5.3976,5.3196,5.1758,5.1293,5.0316,4.8795,4.8195,4.7205,4.6007,4.5046,4.4722,4.4613,4.3958,4.3048,4.1899,4.1239,3.9615,3.7253,3.5067,3.3336,3.1471,2.9081,2.7303,2.5766,2.3803,2.2452,2.0803,1.6322,1.3735,1.2165,1.0982,0.8706,0.6431,0.6431,0.4431,0.175,-0.0269,-0.0961,-0.1821,-0.3643,-0.4718,-0.5967,-0.8714,-0.9856,-1.1005,-1.3182,-1.3904,-1.4047,-1.3468,-1.3468,-1.3317,-1.2459,-1.2459,-1.218,-1.1469,-1.1763,-1.2051,-1.2617,-1.3039,-1.3397,-1.3924,-1.3888,-1.4053,-1.4455,-1.4864,-1.5933,-1.7866,-1.8175,-1.8971,-2.0388,-2.3746,-2.5905,-2.6839,-3.0567,-3.2422,-3.2422,-3.3038,-3.4258,6.3602,6.3602,6.3602,6.3602,6.3602,6.3602,6.3602,6.3602,6.3602,6.3602,6.3602,6.3557,6.3428,6.3336,6.3099,6.2464,6.1787,6.1068,6.0415,6.045,6.045,6.0135,5.9714,5.9215,5.8806,5.7959,5.748,5.7331,5.6911,5.668,5.668,5.6257,5.5426,5.4062,5.3545,5.2843,5.1789,5.1386,5.0508,4.9219,4.8396,4.7383,4.6191,4.5154,4.4722,4.4722,4.4177,4.327,4.2012,4.1468,3.9709,3.7253,3.5067,3.3218,3.1332,2.901,2.6935,2.5186,2.3634,2.0916,1.7871,1.5684,1.3473,1.1637,1.0982,0.8706,0.6431,0.6431,0.4431,0.1885,0.0673,-0.0412,-0.1541,-0.2801,-0.443,-0.6402,-0.8858,-0.9718,-1.0718,-1.2888,-1.3182,-1.3039,-1.2753,-1.2896,-1.2753,-1.2029,-1.218,-1.218,-1.1332,-1.1763,-1.2338,-1.2753,-1.3039,-1.3571,-1.4331,-1.4292,-1.4457,-1.4871,-1.5147,-1.6196,-1.8218,-1.8347,-1.9251,-2.122,-2.4424,-2.6424,-2.7121,-3.0696,-3.2422,-3.2422,-3.3038,-3.4632,6.3602,6.3602,6.3602,6.3602,6.3602,6.3602,6.3602,6.3602,6.3602,6.3602,6.3602,6.3557,6.3465,6.3336,6.3147,6.2567,6.1696,6.0831,6.0325,6.0732,6.0818,6.01,5.9873,5.9314,5.7959,5.7668,5.7406,5.6757,5.668,5.668,5.668,5.5829,5.4902,5.4062,5.3108,5.2185,5.1229,5.1229,5.0632,4.9611,4.8496,4.7485,4.6374,4.5235,4.4722,4.4722,0.0,0.0,4.2012,4.1899,4.0059,3.7253,3.5067,3.306,3.103,2.894,2.6819,2.4564,2.3076,1.9127,1.4912,1.4912,1.2947,1.0717,1.0452,0.8573,0.6297,0.6168,0.4163,0.2154,0.175,0.0137,-0.1401,-0.1681,-0.4282,-0.7123,-0.8569,-0.9574,-1.0581,-1.2316,-1.2323,-1.2029,-1.2173,-1.2466,-1.261,-1.2036,-1.2323,-1.233,-1.1763,-1.2051,-1.2474,-1.2896,-1.3182,-1.3753,-1.4474,-1.4613,-1.4937,-1.5356,-1.5746,-1.6639,-1.8401,-1.8692,-1.9808,-2.1897,-2.4559,-2.6424,-2.7254,-3.0696,-3.2294,-3.2422,-3.3038,-3.4736,6.3602,6.3602,6.3602,6.3602,6.3602,6.3602,6.3602,6.3602,6.3602,6.3602,6.3602,6.3602,6.3557,6.3194,6.2668,6.2023,6.1221,6.0757,6.0914,6.1034,6.0818,6.01,5.9447,5.8772,5.7887,5.7256,5.6834,5.668,5.668,5.668,5.668,5.5829,5.4902,5.4062,5.3108,5.2185,5.1229,5.1229,5.0632,4.9611,4.8496,4.7485,4.6374,4.5235,4.4722,4.4613,0.0,4.3048,4.1899,4.1239,3.9498,3.7253,3.5067,3.306,3.103,2.894,2.6177,2.3076,2.0576,1.7625,1.4912,1.4912,1.2947,1.0452,0.9244,0.7769,0.6168,0.4967,0.3497,0.175,-0.0134,-0.096,-0.1821,-0.3641,-0.4575,-0.5535,-0.6978,-0.8131,-0.9136,-0.9723,-1.0587,-1.0881,-1.0023,-1.0167,-1.0455,-1.0743,-1.1038,-1.1476,-1.2051,-1.2474,-1.2896,-1.3182,-1.3611,-1.4047,-1.491,-1.4875,-1.5283,-1.599,-1.5961,-1.6639,-1.8401,-1.968,-2.1069,-2.2722,-2.4829,-2.6706,-2.8065,-3.0714,-3.2166,-3.2422,-3.2804,-3.4027,6.3602,6.3602,6.3602,6.3602,6.3602,6.3602,6.3602,6.3602,6.3602,6.3602,6.3602,6.3602,6.3602,6.3194,6.2618,6.164,6.114,6.0854,6.0854,6.0635,6.0227,5.9513,5.8772,5.7997,5.7256,5.6911,5.668,5.668,5.668,5.668,5.668,5.5829,5.4902,5.4062,5.3108,5.2185,5.1229,5.1229,5.0917,5.0412,4.9415,4.8296,4.728,4.6164,4.5235,4.4722,0.0,4.327,4.2012,4.1582,3.9943,3.7594,3.5045,3.3089,3.1283,2.7035,2.4469,2.2702,2.0081,1.7249,1.4912,1.4912,1.2947,1.0585,0.9915,0.8174,0.6297,0.5633,0.3897,0.1885,0.0135,-0.0824,-0.1681,-0.3223,-0.4147,-0.5244,-0.7127,-0.7702,-0.828,-0.9729,-1.0017,-1.0023,-0.9735,-1.0023,-1.0311,-1.075,-1.1044,-1.1476,-1.2051,-1.2617,-1.2896,-1.3325,-1.3904,-1.4474,-1.491,-1.5186,-1.5612,-1.6178,-1.6917,-1.7596,-1.8401,-1.982,-2.1358,-2.2859,-2.4964,-2.6706,-2.8213,-3.0732,-3.2038,-3.2422,-3.2785,-3.4133,6.3602,6.3602,6.3602,6.3602,6.3602,6.3602,6.3602,6.3602,6.3602,6.3602,6.3602,6.3602,6.3602,6.3194,6.2479,6.1336,6.1117,6.1034,6.0732,6.029,5.9744,5.8977,5.8212,5.752,5.6757,5.668,5.668,5.668,5.668,5.668,5.668,5.5829,5.4985,5.4317,5.3196,5.2245,5.1572,5.1293,5.1229,5.1229,5.0124,4.8993,4.7965,4.6867,4.5768,4.4722,4.4505,4.3492,4.2012,4.1785,4.0292,3.8052,3.4939,3.2729,3.0588,2.5107,2.3076,2.2702,2.0081,1.7378,1.4903,1.5033,1.3079,1.0585,1.0319,0.844,0.6297,0.6034,0.4163,0.1885,0.0808,-0.0412,-0.1541,-0.2663,-0.4004,-0.5389,-0.7127,-0.7421,-0.7856,-0.9585,-0.9735,-0.959,-0.9879,-1.0311,-1.075,-1.09,-1.1332,-1.1763,-1.2338,-1.2617,-1.2896,-1.3325,-1.4047,-1.4617,-1.5044,-1.547,-1.5895,-1.6178,-1.757,-1.8412,-1.8412,-1.982,-2.1496,-2.3133,-2.4964,-2.6839,-2.8477,-3.0732,-3.2038,-3.2422,-3.2676,-3.4383,6.3602,6.3602,6.3602,6.3602,6.3602,6.3602,6.3602,6.3602,6.3602,6.3602,6.3602,6.3602,6.3602,6.2917,6.2112,6.1234,6.1093,6.1093,6.1034,6.0415,5.9744,5.8977,5.8212,5.752,5.6757,5.668,5.668,5.668,5.668,5.668,5.668,5.5829,5.5312,5.5231,5.3545,5.2606,5.2516,5.1665,5.1229,5.1229,5.0124,4.8993,4.7965,4.6867,4.5768,4.4613,4.3823,4.2936,4.1899,4.1124,3.9849,3.8052,3.5202,3.1822,2.7956,2.444,2.3076,2.2702,2.0322,1.7507,1.4903,1.5284,1.3202,1.0452,0.9111,0.7636,0.6168,0.4833,0.3362,0.1885,0.0808,-0.0412,-0.1541,-0.2663,-0.429,-0.5825,-0.597,-0.6982,-0.814,-0.8285,-0.9157,-0.9879,-0.9879,-1.0462,-1.09,-1.1044,-1.1332,-1.19,-1.261,-1.2753,-1.3039,-1.3761,-1.4189,-1.4759,-1.5461,-1.5895,-1.6178,-1.6178,-1.757,-1.8412,-1.8412,-1.982,-2.1622,-2.3816,-2.5248,-2.7105,-2.9168,-3.0732,-3.1763,-3.2422,-3.2422,-3.4133,6.3602,6.3602,6.3602,6.3602,6.3602,6.3602,6.3602,6.3602,6.3602,6.3602,6.3602,6.3465,6.2953,6.236,6.1768,6.1211,6.1093,6.1093,6.1093,6.0065,5.9247,5.8943,5.7853,5.703,5.6757,5.668,5.668,5.668,5.668,5.668,5.668,5.6336,5.5908,5.5312,5.4147,5.3196,5.2606,5.1635,5.1229,5.1229,5.0822,4.9708,4.7965,4.7587,4.6451,4.4722,4.4396,4.3381,4.2012,4.1672,3.9872,3.6925,3.3376,3.0223,2.7349,2.4239,2.3201,2.2952,1.9546,1.698,1.5033,1.4381,1.2553,1.0452,0.8978,0.7636,0.6168,0.4699,0.3228,0.1885,0.0808,-0.0412,-0.1681,-0.3221,-0.4718,-0.6116,-0.6982,-0.7706,-0.8285,-0.8724,-0.9446,-1.0023,-1.0167,-1.075,-1.1044,-1.1332,-1.1763,-1.2194,-1.2753,-1.3039,-1.3325,-1.3904,-1.4474,-1.5186,-1.5895,-1.6178,-1.6178,-1.6178,-1.757,-1.8412,-1.8412,-1.982,-2.176,-2.3816,-2.5233,-2.7105,-2.9316,-3.0732,-3.1763,-3.2422,-3.2422,-3.4133,6.3602,6.3602,6.3602,6.3602,6.3602,6.3602,6.3602,6.3602,6.3602,6.3602,6.3511,6.3194,6.2515,6.1987,6.1544,6.1152,6.1093,6.1093,6.1093,5.9873,5.8909,5.8909,5.7594,5.668,5.668,5.668,5.668,5.668,5.668,5.668,5.668,5.668,5.6414,5.5716,5.4902,5.3976,5.302,5.2094,5.1479,5.1229,5.1229,5.0095,4.7965,4.7965,4.6764,4.4722,4.4396,4.3381,4.2012,4.1501,3.9035,3.5361,3.1879,2.9389,2.728,2.4178,2.3201,2.2937,1.9036,1.6721,1.5163,1.3857,1.2289,1.0717,0.9643,0.7902,0.6168,0.5235,0.3629,0.2019,0.1212,-0.0137,-0.1681,-0.3079,-0.4858,-0.6551,-0.7851,-0.8285,-0.8574,-0.9157,-0.9735,-1.0167,-1.0455,-1.0894,-1.1332,-1.1763,-1.2051,-1.2338,-1.2896,-1.3182,-1.3468,-1.4189,-1.4759,-1.5337,-1.6178,-1.6178,-1.6178,-1.6178,-1.757,-1.8412,-1.8412,-2.0237,-2.2035,-2.3802,-2.5651,-2.7387,-2.9316,-3.0732,-3.1763,-3.2422,-3.2785,-3.4612,6.3602,6.3602,6.3602,6.3602,6.3602,6.3602,6.3602,6.3602,6.3602,6.3602,6.3242,6.2904,6.2464,6.1987,6.1544,6.1152,6.1093,6.1093,6.1093,5.9873,5.8909,5.8909,5.7594,5.668,5.668,5.668,5.668,5.668,5.668,5.668,5.668,5.668,5.668,5.668,5.5829,5.4902,5.3976,5.302,5.2185,5.1229,5.1229,5.0095,4.7965,4.7965,4.6764,4.4613,4.3848,4.2824,4.185,4.0434,3.7291,3.321,3.1307,2.9527,2.7521,2.4301,2.3076,2.2577,1.9164,1.6861,1.5173,1.4119,1.2553,1.1115,1.085,0.8706,0.6431,0.6431,0.4297,0.2155,0.2155,0.0412,-0.154,-0.2238,-0.4712,-0.7131,-0.7996,-0.8724,-0.9302,-0.9302,-1.0023,-1.0455,-1.0455,-1.1181,-1.1763,-1.2194,-1.2194,-1.2481,-1.3182,-1.3325,-1.3753,-1.491,-1.5052,-1.5337,-1.6178,-1.6178,-1.6178,-1.6178,-1.757,-1.8412,-1.8412,-2.0918,-2.2859,-2.3952,-2.647,-2.8213,-2.9316,-3.0732,-3.1763,-3.2422,-3.3776,-3.5479,6.3602,6.3602,6.3602,6.3602,6.3602,6.3602,6.3602,6.3602,6.3602,6.3602,6.3051,6.2552,6.2449,6.1804,6.127,6.1093,6.1093,6.0914,6.0415,5.9513,5.8703,5.8212,5.7331,5.668,5.668,5.668,5.668,5.668,5.668,5.668,5.668,5.668,5.668,5.668,5.5829,5.4902,5.3976,5.302,5.2185,5.1229,5.1229,5.0508,4.9092,4.8396,4.728,4.5874,4.4804,4.3288,4.1174,3.7063,3.4602,3.3073,3.0187,2.8091,2.6277,2.4178,2.2812,2.1573,1.7871,1.6203,1.5424,1.3079,1.1901,1.0982,0.9643,0.7902,0.6164,0.5235,0.3629,0.2155,0.2155,0.1099,-0.056,-0.2796,-0.4564,-0.6253,-0.843,-0.9157,-0.9446,-0.9735,-1.0167,-1.0599,-1.075,-1.1332,-1.1763,-1.2194,-1.2474,-1.2896,-1.3611,-1.3753,-1.4047,-1.491,-1.5052,-1.5337,-1.6178,-1.6178,-1.6178,-1.6178,-1.757,-1.8821,-1.9507,-2.1333,-2.3119,-2.5022,-2.6871,-2.8213,-2.9316,-3.0732,-3.1763,-3.2422,-3.3776,-3.5479,6.3602,6.3602,6.3602,6.3602,6.3602,6.3602,6.3602,6.3602,6.3557,6.3419,6.2855,6.2308,6.2149,6.1579,6.1093,6.1093,6.1093,6.0818,6.0065,5.938,5.8633,5.7887,5.7181,5.668,5.668,5.668,5.668,5.668,5.668,5.668,5.668,5.668,5.668,5.668,5.6146,5.5393,5.4569,5.3976,5.302,5.1727,5.1727,5.1263,5.022,4.8696,4.7383,4.6269,4.4219,4.2073,3.9768,3.5272,3.3223,3.2786,2.9643,2.7521,2.5774,2.4178,2.2688,2.1069,1.7356,1.6073,1.5684,1.2692,1.1644,1.1247,0.9782,0.8035,0.6168,0.5369,0.3763,0.2155,0.2155,0.1098,-0.056,-0.3075,-0.4422,-0.596,-0.8719,-0.9302,-0.9446,-0.9879,-1.0167,-1.0599,-1.09,-1.1332,-1.1763,-1.233,-1.2904,-1.3468,-1.3904,-1.4047,-1.4332,-1.491,-1.5186,-1.547,-1.6178,-1.6178,-1.6178,-1.6178,-1.757,-1.91,-2.0743,-2.2147,-2.3802,-2.5562,-2.7419,-2.8625,-2.9316,-3.0732,-3.1763,-3.2422,-3.3776,-3.5479,6.3647,6.3647,6.3602,6.3602,6.3602,6.3602,6.3602,6.3557,6.3465,6.3099,6.2705,6.2255,6.1768,6.135,6.1093,6.1093,6.1093,6.0818,6.0065,5.938,5.8633,5.7887,5.7181,5.668,5.668,5.668,5.668,5.668,5.668,5.668,5.668,5.668,5.668,5.668,5.668,5.6257,5.5312,5.5312,5.4369,5.2606,5.2606,5.2094,5.1135,4.8993,4.7355,4.5951,4.2645,4.0099,3.8115,3.4761,3.3016,3.2395,2.9667,2.7401,2.5652,2.4178,2.2688,2.0943,1.7356,1.6213,1.5954,1.2824,1.1784,1.1644,1.0982,0.8706,0.6431,0.6431,0.4431,0.2155,0.2158,0.0824,-0.1259,-0.3079,-0.4424,-0.6105,-0.8719,-0.9302,-0.9446,-0.9879,-1.0311,-1.0599,-1.1044,-1.1332,-1.19,-1.2753,-1.3468,-1.3904,-1.3904,-1.4189,-1.4617,-1.491,-1.5328,-1.5744,-1.6178,-1.6178,-1.6178,-1.6178,-1.757,-1.9367,-2.1558,-2.3106,-2.4481,-2.5697,-2.8114,-2.9316,-2.9316,-3.0732,-3.1763,-3.2657,-3.4007,-3.5602,6.4087,6.383,6.3602,6.3602,6.3602,6.3602,6.3602,6.3373,6.3099,6.3002,6.2705,6.2255,6.1768,6.135,6.1093,6.1093,6.1093,6.0818,6.0065,5.938,5.8633,5.7887,5.7181,5.668,5.668,5.668,5.668,5.668,5.668,5.668,5.668,5.668,5.668,5.668,5.668,5.6257,5.5312,5.5312,5.4369,0.0,5.2606,5.2094,5.1135,4.8993,4.6696,4.4309,4.1361,3.9741,3.9043,3.4597,3.2706,3.2395,2.9903,2.7246,2.4763,2.4409,2.2688,2.0094,1.7378,1.6473,1.6084,1.3087,1.2048,1.1652,1.1247,0.8839,0.6431,0.6431,0.4431,0.2161,0.2184,0.0692,-0.1121,-0.3113,-0.4884,-0.6684,-0.8868,-0.959,-0.9879,-1.0311,-1.0606,-1.1038,-1.1332,-1.1763,-1.2338,-1.3039,-1.3611,-1.3904,-1.3904,-1.4189,-1.4617,-1.491,-1.5328,-1.5744,-1.6178,-1.6178,-1.6178,-1.6178,-1.757,-1.9367,-2.1558,-2.3106,-2.4887,-2.6784,-2.851,-2.9316,-2.9316,-3.0732,-3.2256,-3.4007,-3.5335,-3.6924,6.4445,6.4172,6.383,6.3647,6.3602,6.3602,6.3602,6.3465,6.3194,6.2805,6.236,6.1933,6.1523,6.1234,6.1093,6.1093,6.1093,6.0818,6.0065,5.938,5.8633,5.7887,5.7181,5.668,5.668,5.668,5.668,5.668,5.668,5.668,5.668,5.668,5.668,5.668,5.668,5.6447,5.5988,5.5988,5.5067,5.3284,5.3284,5.2121,4.994,4.8338,4.6137,4.3618,4.0913,3.948,3.8867,3.4491,3.2623,3.2395,2.9884,2.7125,2.4517,2.4517,2.2688,1.9966,1.7378,1.6602,1.6203,1.3087,1.1909,1.1512,1.0313,0.8302,0.6297,0.5633,0.3917,0.218,0.2196,0.0557,-0.1556,-0.3132,-0.5039,-0.6974,-0.9152,-0.9735,-1.0023,-1.0606,-1.0894,-1.1188,-1.1476,-1.2043,-1.2617,-1.3182,-1.3611,-1.3904,-1.3904,-1.4189,-1.4617,-1.491,-1.5328,-1.5744,-1.6178,-1.6178,-1.6178,-1.6178,-1.757,-1.9367,-2.1558,-2.3106,-2.4902,-2.72,-2.8527,-2.9316,-2.9316,-3.0732,-3.2384,-3.4383,-3.5108,-3.6803,6.4803,6.452,6.4087,6.3736,6.3602,6.3602,6.3602,6.3557,6.3289,6.2552,6.2095,6.1656,6.1211,6.1093,6.1093,6.1093,6.1093,6.0914,6.029,5.9447,5.8703,5.8069,5.7331,5.6834,5.668,5.6834,5.6834,5.668,5.668,5.668,5.668,5.668,5.668,5.668,5.668,5.668,5.668,5.668,5.5749,5.3976,5.3507,5.1693,4.8494,4.7316,4.5607,4.3517,4.0768,3.9234,3.8453,3.427,3.2623,3.2395,2.9884,2.7246,2.4655,2.4655,2.2937,2.0348,1.7507,1.6721,1.6462,1.2955,1.1909,1.138,0.9371,0.7636,0.6168,0.4714,0.3267,0.2203,0.2213,0.0562,-0.1428,-0.2576,-0.4472,-0.6536,-0.8863,-0.9446,-0.9735,-1.0167,-1.0462,-1.0894,-1.1619,-1.233,-1.2896,-1.3325,-1.3761,-1.3904,-1.3904,-1.4189,-1.4617,-1.491,-1.5328,-1.5744,-1.6178,-1.6178,-1.6178,-1.6178,-1.757,-1.9367,-2.1283,-2.2969,-2.4887,-2.6934,-2.851,-2.9316,-2.9316,-3.0972,-3.2873,-3.4736,-3.4984,-3.6682,6.5238,6.4701,6.4087,6.3736,6.3602,6.3602,6.3602,6.3336,6.2953,6.2464,6.2271,6.2005,6.1234,6.1093,6.1093,6.1093,6.1093,6.1034,6.0974,5.9774,5.8875,5.8737,5.8069,5.7372,5.6757,5.7256,5.7406,5.6757,5.668,5.668,5.668,5.668,5.668,5.668,5.668,5.668,5.668,5.668,5.5749,5.3976,5.1754,4.9885,4.8268,4.644,4.4899,4.349,4.0337,3.8865,3.8453,3.427,3.2623,3.2395,2.9884,2.7383,2.4917,2.4917,2.3325,2.0589,1.7882,1.698,1.6462,1.3218,1.2041,1.1512,0.9637,0.7769,0.6049,0.4635,0.3291,0.2213,0.2264,0.1568,0.0715,0.0579,-0.1886,-0.4794,-0.6982,-0.772,-0.786,-0.7123,-0.842,-1.0155,-1.2323,-1.2753,-1.3039,-1.3753,-1.3904,-1.3904,-1.3904,-1.4189,-1.4617,-1.491,-1.5328,-1.5744,-1.6178,-1.6178,-1.6178,-1.6178,-1.757,-1.896,-2.019,-2.2559,-2.4481,-2.5831,-2.8114,-2.9316,-2.9316,-3.2091,-3.4342,-3.6051,-3.7506,-3.9098,6.5276,6.4841,6.4369,6.3878,6.3691,6.3602,6.3602,6.3465,6.3194,6.2855,6.2515,6.2095,6.127,6.1093,6.1093,6.1093,6.1093,6.1093,6.1093,6.0192,5.9513,5.9513,5.8841,5.8283,5.7925,5.8212,5.8283,5.7925,5.752,5.7331,5.7331,5.6877,5.668,5.668,5.668,5.668,5.668,5.668,5.5632,5.3376,5.0974,4.8953,4.7433,4.5531,4.4422,4.3849,4.0287,3.8792,3.8453,3.427,3.2623,3.2395,2.9884,2.7383,2.5056,2.5056,2.3325,2.0729,1.8011,1.684,1.6193,1.3087,1.124,0.9902,0.8169,0.6468,0.4898,0.3563,0.264,0.2115,0.1713,0.1726,0.1737,0.131,-0.1019,-0.3205,-0.4226,-0.5825,-0.6982,-0.6829,-0.8271,-1.0011,-1.1305,-1.2316,-1.3325,-1.3753,-1.3174,-1.2888,-1.3753,-1.3317,-1.346,-1.4901,-1.5186,-1.547,-1.6178,-1.6178,-1.6178,-1.6178,-1.757,-1.896,-2.0063,-2.2559,-2.4617,-2.6084,-2.823,-2.9316,-2.9316,-3.2346,-3.4716,-3.6295,-3.7985,-3.9592,6.5307,6.4942,6.4628,6.4212,6.383,6.3602,6.3691,6.3647,6.3511,6.3099,6.2668,6.2149,6.1408,6.1152,6.1093,6.1093,6.1093,6.1093,6.1093,6.0477,6.0001,6.0001,5.9513,5.9113,5.8909,5.9113,5.9113,5.8875,5.8424,5.8069,5.8069,5.7372,5.6954,5.6954,5.6834,5.668,5.668,5.6327,5.4872,5.2396,5.0443,4.8611,4.6897,4.5096,4.4312,4.4097,4.0363,3.8792,3.8453,3.427,3.2623,3.2395,2.9884,2.7383,2.5056,2.5056,2.3325,2.0729,1.795,1.6795,1.6025,1.2938,1.0953,0.9332,0.7175,0.5737,0.4555,0.2774,0.2256,0.215,0.1581,0.1304,0.1022,0.0438,-0.0876,-0.2043,-0.2189,-0.4223,-0.6105,-0.6825,-0.8559,-1.0149,-1.0868,-1.2316,-1.3468,-1.3904,-1.2888,-1.2595,-1.3753,-1.2888,-1.2881,-1.4759,-1.5052,-1.5337,-1.6178,-1.6178,-1.6178,-1.6178,-1.7851,-1.9228,-2.0051,-2.2819,-2.5008,-2.6604,-2.8362,-2.9447,-2.9578,-3.2473,-3.4716,-3.6295,-3.8007,-3.9709,6.5475,6.5099,6.4769,6.4593,6.4087,6.3647,6.3873,6.3742,6.3511,6.3099,6.2631,6.2166,6.1768,6.135,6.1093,6.1093,6.1093,6.1093,6.1093,6.0477,6.0001,6.0001,5.9937,5.9679,5.8977,5.9513,5.9644,5.8943,5.8875,5.8806,5.8806,5.814,5.7741,5.7741,5.703,5.668,5.668,5.5175,5.3311,5.0974,5.0009,4.8743,4.7165,4.5173,4.4312,4.4097,4.0363,3.8792,3.8453,3.427,3.2623,3.2395,2.9884,2.7383,2.5056,2.5056,2.3325,2.0755,1.8154,1.6918,1.6155,1.3271,1.1964,1.0993,0.7664,0.6696,0.6019,0.3128,0.2289,0.2154,0.218,0.0146,-0.2043,-0.2043,-0.1606,-0.146,-0.2187,-0.3641,-0.5235,-0.668,-0.8559,-1.0443,-1.2316,-1.3039,-1.3468,-1.3904,-1.3904,-1.3753,-1.3904,-1.3904,-1.4047,-1.491,-1.5052,-1.5337,-1.6178,-1.6178,-1.6178,-1.6178,-1.8541,-2.0063,-2.0063,-2.3638,-2.5816,-2.6604,-2.8362,-2.9561,-3.0213,-3.3,-3.4984,-3.6295,-3.8246,-4.0059,6.5731,6.5437,6.513,6.4737,6.4292,6.3967,6.3742,6.3647,6.3557,6.3419,6.3051,6.2618,6.2202,6.1579,6.1093,6.1093,6.1093,6.1093,6.1093,6.0878,6.0696,6.0696,6.0696,6.06,6.0352,6.0538,6.0635,6.0352,5.9873,5.9613,5.9613,5.8909,5.8283,5.7814,5.752,5.6947,5.6017,5.4491,5.3041,5.1752,5.0325,4.881,4.7073,4.5207,4.3937,4.3177,4.0084,3.8792,3.8453,3.427,3.2623,3.2416,3.0187,2.7748,2.5296,2.5643,2.3947,2.128,1.8195,1.6882,1.6086,1.2917,1.102,0.9769,0.8521,0.6885,0.5244,0.4422,0.3022,0.1741,0.2187,-0.0,-0.2335,-0.2334,-0.2042,-0.2042,-0.2187,-0.277,-0.335,-0.4221,-0.596,-0.7553,-0.8559,-0.9862,-1.1162,-1.2309,-1.1592,-1.1592,-1.3611,-1.3031,-1.3031,-1.4759,-1.5052,-1.5337,-1.6178,-1.6178,-1.6178,-1.6178,-1.8681,-2.0063,-2.0063,-2.3638,-2.6084,-2.727,-2.8625,-2.9952,-3.123,-3.4218,-3.6194,-3.7309,-3.9474,-4.0894,6.5905,6.5666,6.5312,6.5009,6.4593,6.4172,6.3873,6.3742,6.3691,6.3602,6.3289,6.2904,6.2464,6.1804,6.127,6.1093,6.1093,6.1093,6.1093,6.1093,6.1093,6.1093,6.1093,6.1093,6.1093,6.1093,6.1093,6.1093,6.0635,0.0,6.0352,5.9644,5.8841,5.7814,5.7285,5.6479,5.5256,5.403,5.2902,5.1782,5.042,4.9054,4.7558,4.5269,4.3937,4.3177,4.0084,3.8792,3.8453,3.427,3.2706,3.2526,3.0395,2.8026,2.5786,2.6009,2.4301,2.1595,1.8306,1.6974,1.6157,1.2959,1.0894,0.9765,0.9198,0.7553,0.5747,0.4597,0.304,0.146,0.0876,-0.073,-0.2335,-0.2334,-0.2333,-0.2333,-0.2333,-0.2768,-0.3205,-0.3644,-0.5238,-0.6684,-0.7119,-0.842,-0.9579,-1.0725,-1.0006,-1.0011,-1.2029,-1.1449,-1.1729,-1.4039,-1.4181,-1.475,-1.6037,-1.6178,-1.632,-1.6603,-1.9089,-2.0743,-2.102,-2.4317,-2.6769,-2.8213,-2.9282,-3.0696,-3.2746,-3.4716,-3.6438,-3.779,-3.9732,-4.0918,0.0,0.0,0.0,6.5542,6.4875,6.4249,6.4209,6.4046,6.3873,6.3647,6.3289,6.2904,6.2464,6.2041,6.16,6.1211,6.1093,6.1093,6.1093,6.1093,6.1093,6.1093,6.1093,6.1093,6.1093,6.1093,6.1093,6.1093,6.1093,6.1093,6.1093,6.0415,5.9314,5.7853,5.6371,5.5222,5.4494,5.3765,5.2638,5.1102,5.0229,4.9407,4.8543,4.5631,4.4312,4.4097,4.0363,3.8792,3.8477,3.4292,3.2798,3.2977,3.0528,2.8199,2.6104,2.612,2.4461,2.1647,1.8494,1.7189,1.6263,1.312,1.1907,1.1325,0.9873,0.9013,0.7715,0.3488,0.2331,0.1606,-0.146,-0.2337,-0.2335,-0.2334,-0.2333,-0.2333,-0.2333,-0.3496,-0.4805,-0.5096,-0.6684,-0.8131,-0.8569,-0.8858,-0.9147,-0.9291,-0.9291,-0.9291,-0.9291,-0.9291,-1.0149,-1.2445,-1.2731,-1.3595,-1.5895,-1.6178,-1.6461,-1.7168,-2.0051,-2.1971,-2.2682,-2.5562,-2.7865,-2.9316,-3.0307,-3.1963,-3.4383,-3.4507,-3.5602,-3.7932,-3.8862,-4.0408,6.6165,0.0,0.0,0.0,0.0,0.0,6.4251,6.4169,6.4046,6.3873,6.3705,6.3482,6.2917,6.2718,6.2412,6.1656,6.1292,6.1093,6.1093,6.1093,6.1093,6.1093,6.1093,6.1093,6.1093,6.1093,6.1093,0.0,6.1093,6.1093,6.1093,6.0415,5.9334,5.781,5.6399,5.4979,5.3732,5.3036,5.25,5.2053,5.0538,4.9647,4.9327,4.5871,4.4312,4.4097,4.0363,3.9037,3.9062,3.4815,3.3087,3.3039,3.1172,2.8841,2.6356,2.674,2.4997,2.2076,1.8528,1.7157,1.6467,1.2873,1.1619,1.1476,1.075,0.959,0.814,0.5525,0.3201,0.102,-0.1021,-0.1896,-0.2334,-0.2333,-0.2478,-0.2771,-0.2771,-0.3352,-0.3789,-0.3937,-0.466,-0.5383,-0.5677,-0.5967,-0.6402,-0.7412,-0.7702,-0.7991,-0.9147,-0.9723,-1.0437,-1.1442,-1.2022,-1.3031,-1.4884,-1.5035,-1.5461,-1.6461,-1.9773,-2.1833,-2.1971,-2.5412,-2.7865,-2.9316,-3.0307,-3.1963,-3.4383,-3.6093,-3.7572,-3.893,-4.1395,-4.3194,6.6102,6.5905,6.5678,6.5291,0.0,0.0,6.4445,6.4366,6.4287,6.3963,6.3878,6.3705,6.3147,6.3002,6.2718,6.1823,6.1523,6.1292,6.1093,6.1093,6.1093,6.1093,6.1093,6.1093,6.1093,6.1093,6.1093,6.1093,6.1093,6.1093,6.1093,6.0129,5.9033,5.7838,5.6094,5.4534,5.3434,5.2705,5.2373,5.2373,5.0615,4.9805,4.9647,4.5931,4.4312,4.4125,4.0645,3.9332,3.9355,3.6042,3.424,3.3571,3.1569,2.9188,2.6835,2.7042,2.5248,2.216,1.9217,1.7669,1.6545,1.3595,1.2043,1.1332,1.1044,1.0173,0.9023,0.8015,0.393,-0.0437,-0.1459,-0.2042,-0.2333,-0.2333,-0.2624,-0.2917,-0.2917,-0.3354,-0.3791,-0.3791,-0.3935,-0.4226,-0.4665,-0.5244,-0.5967,-0.6833,-0.7557,-0.828,-0.9147,-0.9862,-1.0431,-1.1012,-1.1592,-1.2595,-1.4315,-1.4457,-1.5443,-1.7429,-2.0178,-2.2108,-2.3079,-2.5697,-2.8114,-2.9935,-3.0936,-3.3068,-3.6481,-3.7089,-3.841,-4.0316,-4.3083,-4.4643,6.5928,6.5731,6.5513,6.5276,6.5057,0.0,6.4671,6.4634,6.452,6.4083,6.3963,6.3749,6.3205,6.3099,6.2768,6.1987,6.1823,6.1656,6.1152,6.1093,6.1093,6.1093,6.1093,6.1093,6.1093,6.1093,6.1093,6.1093,6.1093,6.1093,6.1093,5.9768,5.8628,5.7832,5.5711,5.425,5.3446,5.2743,5.2373,5.2373,5.0615,4.9805,4.9647,4.5931,4.4312,4.4153,4.1004,3.9677,3.9477,3.7402,3.5755,3.443,3.2047,2.9473,2.6972,2.6972,2.4979,2.2035,2.0074,1.8239,1.6404,1.4441,1.2602,1.1044,1.09,1.0474,1.0058,0.9635,0.3787,-0.2335,-0.2334,-0.2333,-0.2333,-0.2333,-0.2624,-0.2917,-0.2917,-0.3644,-0.4226,-0.4226,-0.4226,-0.4226,-0.4665,-0.5822,-0.6688,-0.6688,-0.7847,-0.8858,-0.8858,-0.9136,-0.9712,-1.0718,-1.1155,-1.2302,-1.4315,-1.4457,-1.5858,-1.9217,-2.0869,-2.2669,-2.4902,-2.6517,-2.8493,-3.0807,-3.2072,-3.482,-3.919,-3.7812,-3.8839,-4.1899,-4.4209,-4.5289,6.5928,6.5731,6.5513,6.5276,6.5057,0.0,6.4853,6.4817,6.4781,6.452,6.4326,6.4046,6.3792,6.361,6.3289,6.2818,6.2718,6.236,6.127,6.1093,6.1093,6.1093,6.1093,6.1093,6.1093,6.1093,6.1093,6.1093,6.1093,6.1093,6.1093,6.0214,5.9107,5.7744,5.6146,5.4701,5.3415,5.2761,5.2373,5.2373,5.0615,4.9805,4.9647,4.5931,4.4312,4.4153,4.1004,3.9766,3.9989,3.7653,3.5755,3.445,3.3355,3.0312,2.6706,2.6706,2.4709,2.1622,1.9796,1.81,1.6404,1.4156,1.2316,1.09,1.0317,1.0029,0.9152,0.5081,0.0872,-0.2334,-0.2333,-0.2333,-0.2333,-0.2333,-0.2917,-0.3354,-0.3354,-0.4083,-0.4519,-0.4519,-0.4519,-0.4665,-0.4665,-0.4953,-0.5098,-0.5098,-0.5389,-0.5531,-0.5531,-0.6112,-0.7268,-0.8992,-0.9862,-1.1442,-1.4315,-1.4457,-1.5858,-1.8787,-2.0731,-2.2519,-2.4438,-2.7503,-2.977,-3.0807,-3.3717,-3.6237,-3.8477,-3.9451,-4.1052,-4.3466,-4.5502,-4.6791,6.5782,6.5569,6.5337,6.5123,6.4993,0.0,0.0,6.4888,6.4817,6.4634,6.4482,6.4326,6.3963,6.383,6.361,6.3099,6.3002,6.2668,6.1859,6.1712,6.16,6.1408,6.1408,6.1292,6.1093,6.1093,6.1093,6.1093,6.1093,6.1093,6.1093,6.0012,5.886,5.7719,5.5973,5.4497,5.3382,5.2764,5.2373,5.2373,5.0615,4.9805,4.9647,4.5931,4.4481,4.4601,4.131,4.0207,4.0636,3.8781,3.672,3.4923,3.3658,3.0495,2.6573,2.6455,2.4317,2.1346,2.0364,1.8809,1.6977,1.5,1.3167,1.1325,1.0311,0.8863,0.6825,0.2615,-0.0291,-0.2333,-0.2333,-0.2333,-0.2333,-0.2624,-0.2624,-0.277,-0.2917,-0.2915,-0.3059,-0.3641,-0.3787,-0.3935,-0.4665,-0.5389,-0.5822,-0.5822,-0.6547,-0.6978,-0.6978,-0.7553,-0.8415,-0.9712,-1.0437,-1.1729,-1.4315,-1.515,-1.6826,-1.99,-2.1833,-2.3624,-2.5532,-2.78,-2.99,-3.1963,-3.5683,-3.8149,-3.9474,-4.1281,-4.2637,-4.3466,-4.6137,-4.7643,6.5624,6.5397,6.515,6.4958,6.4888,6.4888,0.0,0.0,0.0,6.4671,6.4634,6.4444,6.4125,6.3963,6.3712,6.3067,6.3036,6.2929,6.2485,6.2508,6.2376,6.1878,6.1768,6.1544,6.127,6.1211,6.1211,6.1093,6.1152,6.114,6.0879,5.9547,5.8431,5.7691,5.5572,5.4194,5.3583,5.2834,5.2373,5.2373,5.0615,4.9805,4.9647,4.5931,4.465,4.5049,4.1929,4.0819,4.1139,3.9988,3.7932,3.5253,3.3862,3.0624,2.6839,2.6188,2.4046,2.1484,2.1207,1.9657,1.7549,1.5981,1.3721,1.1319,1.0023,0.7408,0.4361,0.1745,-0.0583,-0.2333,-0.2333,-0.2187,-0.2187,-0.2478,-0.2041,-0.1604,-0.1895,-0.1749,-0.1749,-0.2766,-0.3057,-0.3496,-0.4517,-0.568,-0.6547,-0.6547,-0.7557,-0.8425,-0.8425,-0.8703,-0.9275,-1.0431,-1.1005,-1.2158,-1.4315,-1.599,-1.8229,-2.1007,-2.2942,-2.4738,-2.6666,-2.8246,-3.0549,-3.3485,-3.7045,-3.9451,-4.0592,-4.2501,-4.3441,-4.3441,-4.6556,-4.8179,6.5624,6.5397,6.515,6.4958,6.4888,6.4888,6.4888,0.0,6.4888,6.4853,0.0,6.4596,6.452,0.0,0.0,6.286,6.3208,6.3251,6.2501,6.302,6.3194,6.2412,6.1933,6.1656,6.16,6.16,6.1466,6.1152,6.1408,6.1142,6.0094,5.9216,5.8374,5.759,5.5567,5.4367,5.4264,5.3008,5.2373,5.2373,5.0615,4.9805,4.9647,4.5931,4.465,4.5049,4.258,4.1389,4.1139,4.0679,3.8506,3.5376,3.484,3.1888,2.78,2.6188,2.4303,2.2421,2.1207,1.9529,1.7549,1.5698,1.2287,0.9018,0.8874,0.625,0.3054,0.2763,0.0291,-0.2333,-0.2333,-0.175,-0.1311,-0.1311,-0.102,-0.0729,-0.0729,-0.1748,-0.2766,-0.2912,-0.3787,-0.4517,-0.4665,-0.481,-0.4953,-0.4953,-0.5098,-0.5244,-0.5244,-0.5244,-0.6253,-0.8703,-0.985,-1.1572,-1.4307,-1.6715,-1.9089,-2.1007,-2.2942,-2.4738,-2.6666,-3.0012,-3.2689,-3.4592,-3.6603,-3.8648,-4.0592,-4.1598,-4.3083,-4.4912,-4.7129,-4.8453,6.5624,6.5513,6.5337,6.4993,6.4993,6.5023,6.4924,6.4888,6.4888,6.4888,0.0,0.0,0.0,0.0,0.0,0.0,6.3519,6.349,6.3156,6.3416,6.3419,6.2805,6.2567,0.0,6.1768,6.1712,6.1487,6.1152,6.127,6.0912,5.9951,5.9166,5.8174,5.7046,5.5305,5.42,5.3813,5.2903,5.2373,5.2373,5.0615,4.9805,4.9647,4.631,4.5183,4.5483,4.318,4.1948,4.158,4.0913,3.8484,3.4964,3.4696,3.1888,2.7949,2.5935,2.4181,2.2545,2.0931,1.968,1.8261,1.5132,1.2144,0.9579,0.7408,0.5525,0.378,0.1746,0.0437,-0.0437,-0.1457,-0.102,-0.0583,-0.0729,-0.0729,-0.0729,-0.0874,-0.1457,-0.204,-0.2766,-0.335,-0.3932,-0.4519,-0.4665,-0.4665,-0.4665,-0.4665,-0.4665,-0.4665,-0.5535,-0.6688,-0.8559,-1.0568,-1.2437,-1.4315,-1.7679,-2.019,-2.1421,-2.4167,-2.6753,-2.874,-3.1047,-3.3214,-3.5129,-3.733,-3.9451,-4.1371,-4.2501,-4.4183,-4.6428,-4.8021,-4.8923,6.5624,6.5542,6.5367,6.4993,6.4989,6.509,6.4924,6.4888,6.4888,6.4888,6.4888,0.0,0.0,0.0,6.4174,6.3705,0.0,6.3617,6.3305,6.3453,6.3511,6.3194,6.3051,6.2718,0.0,6.1987,6.1823,6.1292,6.1171,6.0705,5.963,5.8845,5.7797,5.6576,5.5323,5.4328,5.3715,5.3008,5.2553,5.2373,5.0843,5.0041,4.9647,4.6843,4.5712,4.5874,4.3835,4.2519,4.1899,4.1124,3.8602,3.5191,3.4322,3.2053,2.874,2.6069,2.4181,2.2942,2.0792,1.9401,1.7981,1.4858,1.2294,1.0006,0.7115,0.567,0.4509,0.2037,0.1311,0.0874,-0.0291,-0.0146,0.0291,-0.0,-0.0,0.0146,-0.0146,-0.0437,-0.102,-0.1748,-0.2475,-0.3059,-0.3644,-0.4226,-0.4665,-0.4665,-0.4665,-0.4665,-0.4665,-0.5677,-0.6978,-0.8559,-1.0712,-1.2731,-1.4315,-1.7819,-2.0605,-2.2245,-2.5278,-2.7716,-2.9413,-3.1304,-3.2961,-3.4507,-3.7648,-4.0129,-4.1938,-4.3194,-4.4967,-4.7288,-4.8453,-4.9219,6.5624,6.5397,6.515,6.4958,6.4888,6.4888,6.4888,6.4888,6.4888,6.4888,6.4888,6.4888,6.4888,6.4708,6.4256,6.3197,6.348,0.0,0.0,6.3119,6.3602,6.3557,6.3242,6.2855,6.2449,6.2755,6.2618,0.0,6.1369,6.0501,5.8809,5.8024,5.7239,5.6454,5.5729,5.5069,5.4391,5.3681,5.3008,5.2373,5.1508,5.0615,4.9726,4.7376,4.6195,4.5874,4.4514,4.3201,4.1899,4.1329,3.9216,3.6114,3.4113,3.2492,3.0843,2.6604,2.4723,2.3882,2.1057,1.8131,1.5584,1.5168,1.2452,0.9302,0.9157,0.7123,0.4657,0.4511,0.2912,0.1166,0.1166,0.1166,0.1166,0.1166,0.175,0.2187,0.2187,0.1311,0.0583,0.0437,-0.1311,-0.2621,-0.1457,-0.3207,-0.4665,-0.4665,-0.4665,-0.4665,-0.4665,-0.481,-0.5822,-0.8415,-0.9706,-1.1572,-1.4307,-1.6997,-2.0063,-2.3638,-2.5697,-2.6934,-2.7334,-3.0531,-3.2308,-3.2435,-3.6881,-4.0129,-4.1938,-4.3194,-4.4967,-4.7288,-4.7875,-4.9219,0.0,0.0,6.5718,6.5213,0.0,6.5283,6.4958,6.4888,6.4888,6.4888,6.4888,6.4888,6.4888,6.4745,6.4407,6.3873,6.3859,6.3718,0.0,6.3453,6.3602,6.3602,6.3465,6.3242,6.2855,6.2953,0.0,0.0,6.1118,0.0,5.8774,5.7989,5.7036,5.5786,5.5519,5.4887,5.3781,5.3516,5.3076,5.2373,5.0951,5.0073,4.9757,4.7284,4.6079,4.5902,4.4914,4.3314,4.1444,4.1215,3.8839,3.5253,3.3862,3.2091,2.9917,2.6886,2.5128,2.3882,2.0491,1.8142,1.6301,1.4148,1.2294,1.0443,0.8435,0.6986,0.5967,0.4947,0.4514,0.4078,0.3059,0.277,0.277,0.277,0.1895,0.1166,0.1166,0.0291,-0.0583,-0.0583,-0.1166,-0.1603,-0.1311,-0.1894,-0.2622,-0.335,-0.3496,-0.3787,-0.4665,-0.597,-0.7412,-0.8559,-1.1149,-1.3167,-1.4457,-1.81,-2.1296,-2.3774,-2.6455,-2.8592,-2.99,-3.2327,-3.4113,-3.5005,-3.7768,-4.0129,-4.1938,-4.3194,-4.5182,-4.7875,-4.8553,-4.9679,6.5928,6.5974,0.0,6.5485,6.5456,0.0,6.509,6.5027,6.5027,6.5027,6.4958,6.4958,6.509,6.4924,6.4633,6.4483,6.4289,6.4042,0.0,6.3647,6.3602,6.3602,6.3602,6.3511,6.3242,6.2936,6.2463,0.0,0.0,0.0,0.0,0.0,5.6751,5.5786,5.5751,5.5129,5.3781,5.3781,5.3315,5.2373,5.1252,5.0384,4.9757,4.7821,4.6633,4.5902,4.4944,4.327,4.11,4.0731,3.8602,3.5273,3.3882,3.2091,3.003,2.7153,2.4858,2.2656,1.9518,1.7731,1.6452,1.3721,1.2151,1.0731,0.8285,0.7276,0.6837,0.5791,0.5657,0.5528,0.449,0.3921,0.35,0.35,0.2333,0.1166,0.1166,0.0583,-0.0,-0.0,-0.0291,-0.0437,-0.0,-0.0291,-0.102,-0.2184,-0.2621,-0.3203,-0.3935,-0.5677,-0.7412,-0.8559,-1.1005,-1.3587,-1.5726,-1.9206,-2.2108,-2.3774,-2.7121,-2.9509,-3.0678,-3.3107,-3.4799,-3.5537,-3.8416,-4.0497,-4.1643,-4.3945,-4.6215,-4.8553,-4.9386,-5.0449]},{"header":{"parameterUnit":"m.s-1","parameterCategory":1,"la1":30.6,"la2":29.2853,"lo1":-89.7004,"lo2":-87.6739,"dy":0.0162,"dx":0.0183,"nx":112,"ny":82,"refTime":"2023-04-17T12:00:00:Z","depth":0,"parameterNumber":3,"parameterNumberName":"V-component_of_WINDS"},"data":[0.0,0.0,0.0,0.0,0.0,0.0,0.0,0.0,0.0,0.0,0.0,0.0,0.0,0.0,0.0,0.0,0.0,0.0,0.0,0.0,0.0,0.0,0.0,0.0,0.0,0.0,0.0,0.0,0.0,0.0,0.0,0.0,0.0,0.0,0.0,0.0,0.0,0.0,0.0,0.0,0.0,0.0,0.0,0.0,0.0,0.0,0.0,0.0,0.0,0.0,0.0,0.0,0.0,0.0,0.0,0.0,0.0,0.0,0.0,0.0,0.0,0.0,0.0,0.0,0.0,0.0,0.0,0.0,0.0,0.0,0.0,0.0,0.0,0.0,0.0,0.0,0.0,0.0,0.0,0.0,0.0,0.0,0.0,0.0,0.0,0.0,0.0,0.0,0.0,0.0,-6.0229,-6.0477,-6.1165,-6.1592,-6.1592,-6.1602,-6.1433,-6.102,0.0,0.0,0.0,0.0,0.0,0.0,0.0,0.0,0.0,0.0,0.0,0.0,0.0,0.0,0.0,0.0,0.0,0.0,0.0,0.0,0.0,0.0,0.0,0.0,0.0,0.0,0.0,0.0,0.0,0.0,0.0,0.0,0.0,0.0,0.0,0.0,0.0,0.0,0.0,0.0,0.0,0.0,0.0,0.0,0.0,0.0,0.0,0.0,0.0,0.0,0.0,0.0,0.0,0.0,0.0,0.0,0.0,0.0,0.0,0.0,0.0,0.0,0.0,0.0,0.0,0.0,0.0,0.0,0.0,0.0,0.0,0.0,0.0,0.0,0.0,0.0,0.0,0.0,0.0,0.0,0.0,0.0,0.0,0.0,0.0,0.0,0.0,0.0,0.0,0.0,0.0,0.0,0.0,0.0,0.0,0.0,0.0,0.0,0.0,0.0,0.0,0.0,0.0,0.0,-6.0661,-6.1426,-6.1561,-6.1592,-6.1592,-6.1602,-6.1433,-6.102,0.0,0.0,0.0,0.0,0.0,0.0,0.0,0.0,0.0,0.0,0.0,0.0,0.0,0.0,0.0,0.0,0.0,0.0,0.0,0.0,0.0,0.0,0.0,0.0,0.0,0.0,0.0,0.0,0.0,0.0,0.0,0.0,0.0,0.0,0.0,0.0,0.0,0.0,0.0,0.0,0.0,0.0,0.0,0.0,0.0,0.0,0.0,0.0,0.0,0.0,0.0,0.0,0.0,0.0,0.0,0.0,0.0,0.0,0.0,0.0,0.0,0.0,0.0,0.0,0.0,0.0,0.0,0.0,0.0,0.0,0.0,0.0,0.0,0.0,0.0,0.0,0.0,0.0,0.0,0.0,0.0,0.0,0.0,0.0,0.0,0.0,0.0,0.0,0.0,0.0,0.0,0.0,0.0,0.0,0.0,0.0,0.0,0.0,0.0,0.0,0.0,0.0,0.0,-6.0788,-6.1227,-6.1632,-6.164,-6.1592,-6.1592,-6.1602,-6.1433,-6.102,-6.0419,0.0,0.0,0.0,0.0,0.0,0.0,0.0,0.0,0.0,0.0,0.0,0.0,0.0,0.0,0.0,0.0,0.0,0.0,0.0,0.0,0.0,0.0,0.0,0.0,0.0,0.0,0.0,0.0,0.0,0.0,0.0,0.0,0.0,0.0,0.0,0.0,0.0,0.0,0.0,0.0,0.0,0.0,0.0,0.0,0.0,0.0,0.0,0.0,0.0,0.0,0.0,0.0,0.0,0.0,0.0,0.0,0.0,0.0,0.0,0.0,0.0,0.0,0.0,0.0,0.0,0.0,0.0,0.0,0.0,0.0,0.0,0.0,0.0,0.0,0.0,0.0,0.0,0.0,0.0,0.0,0.0,0.0,0.0,0.0,0.0,0.0,0.0,0.0,0.0,0.0,0.0,0.0,0.0,0.0,0.0,0.0,0.0,0.0,0.0,0.0,0.0,0.0,-6.1612,-6.1634,-6.169,-6.164,-6.159,-6.1584,-6.1595,-6.1433,-6.102,-6.0224,0.0,0.0,0.0,0.0,0.0,0.0,0.0,0.0,0.0,0.0,0.0,0.0,0.0,0.0,0.0,0.0,0.0,0.0,0.0,0.0,0.0,0.0,0.0,0.0,0.0,0.0,0.0,0.0,0.0,0.0,0.0,0.0,0.0,0.0,0.0,0.0,0.0,0.0,0.0,0.0,0.0,0.0,0.0,0.0,0.0,0.0,0.0,0.0,0.0,0.0,0.0,0.0,0.0,0.0,0.0,0.0,0.0,0.0,0.0,0.0,0.0,0.0,0.0,0.0,0.0,0.0,0.0,0.0,0.0,0.0,0.0,0.0,0.0,0.0,0.0,0.0,0.0,0.0,0.0,0.0,0.0,0.0,0.0,0.0,0.0,0.0,0.0,0.0,0.0,0.0,0.0,0.0,0.0,0.0,0.0,0.0,0.0,0.0,0.0,0.0,0.0,0.0,-6.169,-6.169,-6.1713,-6.1639,-6.1584,-6.1588,-6.1612,-6.1433,-6.102,-6.0224,0.0,0.0,0.0,0.0,0.0,0.0,0.0,0.0,0.0,0.0,0.0,0.0,0.0,0.0,0.0,0.0,0.0,0.0,0.0,0.0,0.0,0.0,0.0,0.0,0.0,0.0,0.0,0.0,0.0,0.0,0.0,0.0,0.0,0.0,0.0,0.0,0.0,0.0,0.0,0.0,0.0,0.0,0.0,0.0,0.0,0.0,0.0,0.0,0.0,0.0,0.0,0.0,0.0,0.0,0.0,0.0,0.0,0.0,0.0,0.0,0.0,0.0,0.0,0.0,0.0,0.0,0.0,0.0,0.0,0.0,0.0,0.0,0.0,0.0,0.0,0.0,0.0,0.0,0.0,0.0,0.0,0.0,0.0,0.0,0.0,0.0,0.0,0.0,0.0,0.0,0.0,0.0,0.0,0.0,0.0,0.0,0.0,0.0,0.0,0.0,0.0,0.0,-6.1715,-6.1713,-6.1716,-6.1631,-6.1598,-6.1582,-6.1612,-6.1433,-6.102,0.0,0.0,0.0,0.0,0.0,0.0,0.0,0.0,0.0,0.0,0.0,0.0,0.0,0.0,0.0,0.0,0.0,0.0,0.0,0.0,0.0,0.0,0.0,0.0,0.0,0.0,0.0,0.0,0.0,0.0,0.0,0.0,0.0,0.0,0.0,0.0,0.0,0.0,0.0,0.0,0.0,0.0,0.0,0.0,0.0,0.0,0.0,0.0,0.0,0.0,0.0,0.0,0.0,0.0,0.0,0.0,0.0,0.0,0.0,0.0,0.0,0.0,0.0,0.0,0.0,0.0,0.0,0.0,0.0,0.0,0.0,0.0,0.0,0.0,0.0,0.0,0.0,0.0,0.0,0.0,0.0,0.0,0.0,0.0,0.0,0.0,0.0,0.0,0.0,0.0,0.0,0.0,0.0,0.0,0.0,0.0,0.0,0.0,0.0,0.0,0.0,0.0,-6.1633,-6.1678,-6.168,-6.1678,-6.1612,-6.1615,-6.1595,-6.1595,-6.1369,-6.0848,0.0,0.0,0.0,0.0,0.0,0.0,0.0,0.0,0.0,0.0,0.0,0.0,0.0,0.0,0.0,0.0,0.0,0.0,0.0,0.0,0.0,0.0,0.0,0.0,0.0,0.0,0.0,0.0,0.0,0.0,0.0,0.0,0.0,0.0,0.0,0.0,0.0,0.0,0.0,0.0,0.0,0.0,0.0,0.0,0.0,0.0,0.0,0.0,0.0,0.0,0.0,0.0,0.0,0.0,0.0,0.0,0.0,0.0,0.0,0.0,0.0,0.0,0.0,0.0,0.0,0.0,0.0,0.0,0.0,0.0,0.0,0.0,0.0,0.0,0.0,0.0,0.0,0.0,0.0,0.0,0.0,0.0,0.0,0.0,0.0,0.0,0.0,0.0,0.0,0.0,0.0,0.0,0.0,0.0,0.0,0.0,0.0,0.0,0.0,0.0,0.0,0.0,-6.151,-6.1629,-6.1679,-6.1593,-6.1582,-6.1602,-6.1616,-6.1607,-6.1266,0.0,0.0,0.0,0.0,0.0,0.0,0.0,0.0,0.0,0.0,0.0,0.0,0.0,0.0,0.0,0.0,0.0,0.0,0.0,0.0,0.0,0.0,0.0,0.0,0.0,0.0,0.0,0.0,0.0,0.0,0.0,0.0,0.0,0.0,0.0,0.0,0.0,0.0,0.0,0.0,0.0,0.0,0.0,0.0,0.0,0.0,0.0,0.0,0.0,0.0,0.0,0.0,0.0,0.0,0.0,0.0,0.0,0.0,0.0,0.0,0.0,0.0,0.0,0.0,0.0,0.0,0.0,0.0,0.0,0.0,0.0,0.0,0.0,0.0,0.0,0.0,0.0,0.0,0.0,0.0,0.0,0.0,0.0,0.0,0.0,0.0,0.0,0.0,0.0,0.0,0.0,0.0,0.0,0.0,0.0,0.0,0.0,0.0,0.0,0.0,0.0,0.0,0.0,-6.1582,-6.1619,-6.1629,-6.1588,-6.1588,-6.1595,-6.1607,-6.1607,-6.1382,-6.0867,0.0,0.0,0.0,0.0,0.0,0.0,0.0,0.0,0.0,0.0,0.0,0.0,0.0,0.0,0.0,0.0,0.0,0.0,0.0,0.0,0.0,0.0,0.0,0.0,0.0,0.0,0.0,0.0,0.0,0.0,0.0,0.0,0.0,0.0,0.0,0.0,0.0,0.0,0.0,0.0,0.0,0.0,0.0,0.0,0.0,0.0,0.0,0.0,0.0,0.0,0.0,0.0,0.0,0.0,0.0,0.0,0.0,0.0,0.0,0.0,0.0,0.0,0.0,0.0,0.0,0.0,0.0,0.0,0.0,0.0,0.0,0.0,0.0,0.0,0.0,0.0,0.0,0.0,0.0,0.0,0.0,0.0,0.0,0.0,0.0,0.0,0.0,0.0,0.0,0.0,0.0,0.0,0.0,0.0,0.0,0.0,0.0,0.0,0.0,0.0,0.0,0.0,-6.158,-6.1564,-6.1619,-6.1595,-6.1595,-6.1607,-6.1607,-6.1607,-6.1369,-6.0789,0.0,0.0,0.0,0.0,0.0,0.0,0.0,0.0,0.0,0.0,0.0,0.0,0.0,0.0,0.0,0.0,0.0,0.0,0.0,0.0,0.0,0.0,0.0,0.0,0.0,0.0,0.0,0.0,0.0,0.0,0.0,0.0,0.0,0.0,0.0,0.0,0.0,0.0,0.0,0.0,0.0,0.0,0.0,0.0,0.0,0.0,0.0,0.0,0.0,0.0,0.0,0.0,0.0,0.0,0.0,0.0,0.0,0.0,0.0,0.0,0.0,0.0,0.0,0.0,0.0,0.0,0.0,0.0,0.0,0.0,0.0,0.0,0.0,0.0,0.0,0.0,0.0,0.0,0.0,0.0,0.0,0.0,0.0,0.0,0.0,0.0,0.0,0.0,0.0,0.0,0.0,0.0,0.0,0.0,0.0,0.0,0.0,0.0,0.0,0.0,0.0,0.0,-6.1518,-6.1569,-6.1607,-6.1586,-6.1607,-6.1607,-6.1607,-6.1607,-6.1266,-6.0487,0.0,0.0,0.0,0.0,0.0,0.0,0.0,0.0,0.0,0.0,0.0,0.0,0.0,0.0,0.0,0.0,0.0,0.0,0.0,0.0,0.0,0.0,0.0,0.0,0.0,0.0,0.0,0.0,0.0,0.0,0.0,0.0,0.0,0.0,0.0,0.0,0.0,0.0,0.0,0.0,0.0,0.0,0.0,0.0,0.0,0.0,0.0,0.0,0.0,0.0,0.0,0.0,0.0,0.0,0.0,0.0,0.0,0.0,0.0,0.0,-3.1561,-3.1377,0.0,0.0,0.0,0.0,0.0,0.0,0.0,0.0,0.0,0.0,0.0,0.0,0.0,0.0,0.0,0.0,0.0,0.0,0.0,0.0,0.0,0.0,0.0,0.0,0.0,0.0,0.0,0.0,0.0,0.0,0.0,0.0,0.0,0.0,0.0,0.0,0.0,0.0,0.0,0.0,-6.1568,-6.1595,-6.1615,-6.1616,-6.1607,-6.1607,-6.1607,-6.1607,-6.1382,-6.0887,-6.0586,0.0,0.0,0.0,0.0,0.0,0.0,0.0,0.0,0.0,0.0,0.0,0.0,0.0,0.0,0.0,0.0,0.0,0.0,0.0,0.0,0.0,0.0,0.0,0.0,0.0,0.0,0.0,0.0,0.0,0.0,0.0,0.0,0.0,0.0,0.0,0.0,0.0,0.0,0.0,0.0,0.0,0.0,0.0,0.0,0.0,0.0,0.0,0.0,0.0,0.0,0.0,0.0,0.0,0.0,0.0,0.0,0.0,0.0,0.0,0.0,-3.1377,0.0,0.0,0.0,0.0,0.0,0.0,0.0,0.0,0.0,0.0,0.0,0.0,0.0,0.0,0.0,0.0,0.0,0.0,0.0,0.0,0.0,0.0,0.0,0.0,0.0,0.0,0.0,0.0,0.0,0.0,0.0,0.0,0.0,0.0,0.0,0.0,0.0,0.0,0.0,0.0,-6.1568,-6.1588,-6.1602,-6.1616,-6.1528,-6.1479,-6.1607,-6.1518,-6.1317,-6.102,-6.0789,0.0,0.0,0.0,0.0,0.0,0.0,0.0,0.0,0.0,0.0,0.0,0.0,0.0,0.0,0.0,0.0,0.0,0.0,0.0,0.0,0.0,0.0,0.0,0.0,0.0,0.0,0.0,0.0,0.0,0.0,0.0,0.0,0.0,0.0,0.0,0.0,0.0,0.0,0.0,0.0,0.0,0.0,0.0,0.0,0.0,0.0,0.0,0.0,0.0,0.0,0.0,0.0,0.0,-2.7814,-2.9003,-2.9395,-3.0714,-3.1377,-3.1377,-3.1377,-3.1377,-3.1506,-3.2511,0.0,0.0,0.0,0.0,0.0,0.0,0.0,0.0,0.0,0.0,0.0,0.0,0.0,0.0,0.0,0.0,0.0,0.0,0.0,0.0,0.0,0.0,0.0,0.0,-6.1112,-6.1127,-6.1383,0.0,0.0,0.0,0.0,0.0,0.0,0.0,0.0,0.0,0.0,0.0,-6.1568,-6.1619,-6.1588,-6.1616,-6.1445,-6.1433,-6.1598,-6.1445,-6.1274,-6.102,-6.1002,-6.0612,0.0,0.0,0.0,0.0,0.0,0.0,0.0,0.0,0.0,0.0,0.0,0.0,0.0,0.0,0.0,0.0,0.0,0.0,0.0,0.0,0.0,0.0,0.0,0.0,0.0,0.0,0.0,0.0,0.0,0.0,0.0,0.0,-2.2859,-2.2859,0.0,0.0,0.0,0.0,0.0,0.0,0.0,0.0,0.0,0.0,0.0,0.0,0.0,-2.2486,-2.2946,-2.3034,-2.3846,-2.5066,-2.6604,-2.8065,-2.9395,-3.0714,-3.1377,-3.1377,-3.1377,0.0,-3.1506,-3.2511,0.0,0.0,0.0,0.0,0.0,0.0,0.0,0.0,0.0,0.0,0.0,0.0,0.0,0.0,0.0,0.0,0.0,0.0,0.0,0.0,0.0,0.0,-6.0657,-6.0849,-6.1087,-6.1312,0.0,-6.1603,-6.1601,-6.1562,-6.1485,-6.1651,0.0,0.0,0.0,0.0,0.0,0.0,-6.1598,-6.1616,-6.1616,-6.1607,-6.1598,-6.1559,-6.1607,-6.1598,-6.1408,-6.102,-6.1002,-6.0612,-5.9804,-5.9711,0.0,0.0,0.0,0.0,0.0,0.0,0.0,0.0,0.0,0.0,0.0,0.0,0.0,0.0,0.0,0.0,0.0,0.0,0.0,0.0,0.0,0.0,0.0,0.0,0.0,0.0,0.0,0.0,0.0,-2.2859,-2.2859,-2.2859,-2.2859,-2.2859,0.0,0.0,0.0,0.0,0.0,0.0,0.0,0.0,0.0,-2.2908,-2.2644,-2.2631,-2.2908,-2.3598,-2.4337,-2.5008,-2.727,-2.8723,-2.9395,-3.0714,-3.1377,-3.1377,-3.1377,-3.1763,-3.2384,-3.3379,-3.4133,-3.4757,0.0,0.0,0.0,0.0,-4.1529,-4.2995,-4.494,-4.5952,-4.684,-4.9054,0.0,0.0,0.0,0.0,0.0,0.0,0.0,0.0,0.0,0.0,-6.1057,-6.1053,-6.1272,-6.1621,-6.222,-6.2329,-6.2153,-6.1665,-6.1876,-6.2238,-6.2612,-6.1914,0.0,0.0,0.0,-6.1433,-6.1598,-6.1607,-6.1607,-6.1607,-6.1518,-6.1433,-6.1433,-6.133,-6.1126,-6.0843,-6.0822,-6.0594,-6.0099,-5.9777,-5.9177,0.0,0.0,0.0,0.0,0.0,0.0,0.0,0.0,0.0,0.0,0.0,0.0,0.0,0.0,0.0,0.0,0.0,0.0,0.0,0.0,0.0,0.0,0.0,0.0,0.0,0.0,0.0,0.0,-2.2859,-2.2996,-2.3406,-2.3133,-2.2996,0.0,0.0,0.0,0.0,0.0,0.0,-2.2859,-2.2996,-2.2996,-2.2722,-2.2859,-2.2859,-2.2585,-2.406,-2.4738,-2.4873,-2.7932,-2.9265,-2.9395,-3.0714,-3.1377,-3.1377,-3.1635,-3.2384,-3.3379,-3.4133,-3.5005,-3.5992,-3.7352,-3.8648,-3.9849,-4.0652,-4.2144,-4.3787,-4.5352,-4.6576,-4.7782,-4.9567,-5.1418,-5.318,-5.4224,0.0,0.0,0.0,0.0,-6.0189,-6.0237,-6.0757,-6.1311,-6.135,-6.1624,-6.2069,-6.2737,-6.3221,-6.3236,-6.2366,-6.2686,-6.3118,-6.33,-6.2549,0.0,-6.3325,-6.2471,-6.1732,-6.1909,-6.1724,-6.1598,-6.1528,-6.1408,-6.1289,-6.1205,-6.1092,-6.0905,-6.0727,-6.0704,-6.0597,-6.0294,-5.9874,-5.9357,-5.8648,0.0,0.0,0.0,0.0,0.0,0.0,0.0,0.0,0.0,0.0,0.0,0.0,0.0,0.0,0.0,0.0,0.0,0.0,0.0,0.0,0.0,0.0,0.0,0.0,0.0,0.0,0.0,0.0,0.0,-2.4738,-2.3665,0.0,0.0,0.0,0.0,-2.2859,-2.2585,-2.2448,-2.2859,-2.3515,-2.3379,-2.231,-2.2969,-2.2832,-2.1897,-2.3243,-2.4196,-2.4602,-2.78,-2.9265,-2.9395,-3.0714,-3.1377,-3.1506,-3.2384,-3.3379,-3.4383,-3.4383,-3.5005,-3.6114,-3.8268,-3.9919,-4.1233,-4.2812,-4.4349,-4.6026,-4.7342,-4.8071,-4.879,-5.0493,-5.2312,-5.4166,-5.5842,-5.6804,0.0,0.0,-5.9605,-6.015,-6.0365,-6.0852,-6.135,-6.1543,-6.2123,-6.2677,-6.2874,-6.4054,-6.4898,0.0,-6.4076,-6.4294,-6.5191,0.0,-6.4237,-6.5153,-6.3815,-6.2752,-6.2844,-6.2114,-6.1528,-6.133,-6.1317,-6.1205,-6.1039,-6.1002,-6.0905,-6.0727,-6.0704,-6.0597,-6.0294,-6.0167,-5.9842,-5.9363,-5.9065,0.0,0.0,0.0,0.0,0.0,0.0,0.0,0.0,0.0,0.0,0.0,0.0,0.0,0.0,0.0,0.0,0.0,0.0,0.0,0.0,0.0,0.0,0.0,0.0,0.0,0.0,0.0,0.0,-2.5008,-2.4602,0.0,-2.5008,-2.3665,-2.327,-2.421,-2.4074,-2.406,-2.3938,-2.4331,-2.3924,-2.231,-2.3652,-2.4196,-2.3924,-2.6203,-2.7403,-2.7668,-2.9657,-3.0584,-3.0714,-3.112,-3.1744,-3.2384,-3.2746,-3.3882,-3.5376,-3.5376,-3.6013,-3.6989,-3.8625,-3.9709,-4.0725,-4.2383,-4.4017,-4.5627,-4.6933,-4.8218,-4.9805,-5.2103,-5.3809,-5.5144,-5.6491,-5.7328,-5.8023,-5.9103,-5.9734,-6.017,-6.054,-6.1002,-6.1523,-6.218,-6.2553,-6.3114,-6.4193,-6.4812,-6.5255,-6.5708,-6.5297,-6.4977,-6.5377,-6.4705,-6.4364,-6.509,-6.4309,-6.3581,-6.3482,-6.288,-6.2346,-6.2147,-6.1614,-6.1158,-6.0822,-6.08,-6.0727,-6.052,-6.0494,-6.0425,-6.0197,-6.0137,-5.9975,-5.9715,-5.9472,-5.8756,0.0,0.0,0.0,0.0,0.0,0.0,0.0,0.0,0.0,0.0,0.0,0.0,0.0,0.0,0.0,0.0,0.0,0.0,0.0,0.0,0.0,0.0,0.0,0.0,0.0,-2.4858,-2.5532,-2.5008,-2.5008,-2.5143,-2.5667,-2.4858,-2.4467,-2.5008,-2.5008,-2.4873,-2.4738,-2.5263,-2.4993,-2.3256,-2.4723,-2.5263,-2.4873,-2.7004,-2.8328,-2.9134,-3.0455,-3.112,-3.1377,-3.1377,-3.2001,-3.2873,-3.3253,-3.4383,-3.5992,-3.6724,-3.7451,-3.8052,-3.915,-4.0026,-4.1078,-4.284,-4.4256,-4.5477,-4.7396,-4.9313,-5.1229,-5.3247,-5.4668,-5.5667,-5.6773,-5.7558,-5.8245,-5.9214,-5.9766,-6.017,-6.0698,-6.1152,-6.1648,-6.254,-6.3026,-6.3611,-6.4966,-6.5393,-6.572,-6.6407,-6.6114,-6.5725,-6.5805,-6.5348,-6.5111,-6.5474,-6.4922,-6.4338,-6.4139,-6.3598,-6.312,-6.2831,-6.2089,-6.1465,-6.1031,-6.0776,-6.0546,-6.0436,-6.038,-6.0285,-6.0099,-6.0068,-5.9912,-5.9609,-5.929,-5.8673,-5.7637,0.0,0.0,0.0,0.0,0.0,0.0,0.0,0.0,0.0,0.0,0.0,0.0,0.0,0.0,0.0,0.0,0.0,0.0,0.0,0.0,0.0,0.0,0.0,-2.5008,-2.3802,-2.3529,-2.4873,-2.5008,-2.5532,-2.6855,-2.6972,-2.6455,-2.5143,-2.5008,-2.5008,-2.5008,-2.6321,-2.6455,-2.5008,-2.6054,-2.592,-2.4602,-2.5248,-2.6706,-2.8706,-2.9805,-3.0732,-3.1377,-3.1377,-3.2001,-3.3,-3.4007,-3.5005,-3.6114,-3.8268,-3.9216,-3.9288,-4.0021,-4.1065,-4.2366,-4.4464,-4.5307,-4.5824,-4.8831,-5.1303,-5.3247,-5.3781,-5.4668,-5.5724,-5.6773,-5.751,-5.8157,-5.9214,-5.9728,-6.0082,-6.0818,-6.1214,-6.1647,-6.2696,-6.3477,-6.4211,-6.4966,-6.5761,-6.6334,-6.6454,-6.6508,-6.6553,-6.6691,-6.6712,-6.663,-6.6407,-6.5677,0.0,-6.487,-6.4244,-6.3684,-6.3291,-6.2699,-6.2155,-6.1649,-6.0867,-6.0408,-6.0408,-6.0323,-6.0264,-6.0099,-6.0045,-5.9677,-5.899,-5.8503,-5.8015,-5.7462,0.0,0.0,0.0,0.0,0.0,0.0,0.0,0.0,0.0,0.0,0.0,0.0,0.0,0.0,0.0,0.0,0.0,0.0,0.0,0.0,0.0,-2.5398,-2.5008,-2.5008,-2.5532,-2.6054,-2.6455,-2.6588,-2.6321,-2.5667,-2.5532,-2.5398,-2.5008,-2.5935,-2.592,-2.4738,-2.6188,-2.592,-2.3119,-2.5651,-2.6588,-2.5697,-2.846,-2.9787,-2.9805,-3.0732,-3.1249,-3.1377,-3.2128,-3.3,-3.4007,-3.5005,-3.6013,-3.711,-3.8648,-3.9686,-4.0683,-4.131,-4.2023,-4.2709,-4.4496,-4.6602,-4.8831,-5.0703,-5.2387,-5.3781,-5.4299,-5.5507,-5.6721,-5.7015,-5.7904,-5.8989,-5.9564,-6.0046,-6.0541,-6.107,-6.1399,-6.19,-6.337,-6.3834,-6.4327,-6.5624,-6.6051,-6.6283,-6.6439,-6.6508,-6.6553,-6.6691,-6.6712,-6.6567,-6.6242,-6.6118,0.0,-6.5504,-6.5025,-6.4575,-6.4176,-6.3548,-6.2734,-6.1687,-6.1402,-6.1019,-6.0446,-6.0323,-6.0264,-6.0099,-6.0045,-5.9748,-5.9215,-5.8381,-5.7591,0.0,0.0,0.0,0.0,0.0,0.0,0.0,0.0,0.0,0.0,0.0,0.0,0.0,0.0,0.0,0.0,0.0,0.0,0.0,0.0,0.0,0.0,-2.5935,-2.5412,-2.6604,-2.5935,-2.5517,-2.6188,-2.6188,-2.6188,-2.5935,-2.5935,-2.5935,-2.5935,-2.6054,-2.6054,-2.5667,-2.592,-2.5651,-2.4317,-2.6188,-2.7254,-2.7419,-2.9134,-3.0325,-3.0732,-3.0861,-3.112,-3.1377,-3.2384,-3.3505,-3.4507,-3.55,-3.6724,-3.8313,-3.9451,-4.0612,0.0,0.0,0.0,0.0,0.0,-4.7658,-5.0041,-5.1418,-5.2736,-5.4042,-5.4765,-5.5928,-5.7166,-5.7364,-5.8258,-5.9287,-5.9696,-6.0141,-6.0635,-6.1181,-6.1394,-6.1894,-6.3608,-6.4022,-6.4444,-6.5915,-6.6283,-6.6355,-6.65,-6.6553,0.0,-6.6581,-6.6555,-6.6475,-6.6148,-6.6089,-6.5986,-6.5613,-6.5434,-6.5252,-6.4922,-6.4316,-6.3584,-6.2758,-6.2357,0.0,0.0,0.0,-6.0517,-6.0045,-5.9677,0.0,0.0,0.0,-5.7664,-5.7304,0.0,0.0,0.0,-5.3075,-5.1773,0.0,0.0,0.0,0.0,0.0,0.0,0.0,0.0,0.0,0.0,0.0,0.0,0.0,0.0,0.0,0.0,-2.5935,-2.5935,-2.874,-2.5801,-2.3802,-2.5143,-2.5278,-2.5667,-2.6588,-2.6839,-2.6972,-2.6706,-2.5801,-2.5667,-2.6588,0.0,0.0,0.0,0.0,-2.7916,-2.9134,-2.874,-2.9526,-3.1249,-3.0732,-3.0861,-3.1635,-3.2619,-3.3631,-3.4632,-3.5746,-3.7429,-3.9334,-4.0731,-4.1755,-4.2582,-4.2892,-4.3734,-4.4967,-4.6786,-4.8502,-5.0242,-5.1638,0.0,0.0,-5.5238,-5.6259,-5.7216,-5.7747,-5.8549,-5.9323,-5.9696,-6.0122,-6.0612,-6.1162,-6.1325,-6.1788,-6.3592,-6.4078,-6.452,-6.5985,-6.6422,-6.6538,-6.6607,-6.6581,-6.6555,-6.6407,-6.6392,-6.6329,-6.6108,-6.5851,-6.564,-6.5405,-6.5559,-6.564,-6.5405,0.0,0.0,-6.422,-6.3503,-6.2662,-6.1822,-6.1492,-6.0919,-5.9923,-5.9178,-5.891,-5.9215,-5.8363,-5.795,-5.8215,-5.781,-5.6809,-5.5355,-5.3608,-5.2394,0.0,0.0,0.0,0.0,0.0,0.0,0.0,0.0,0.0,0.0,0.0,0.0,0.0,0.0,0.0,-2.6988,-2.5935,-2.5532,-2.7254,-2.6855,-2.6455,-2.6722,-2.6722,-2.592,-2.3924,-2.5786,-2.6188,-2.3924,-2.5517,-2.5786,-2.3788,-2.5651,-2.6321,-2.5398,-2.7668,-2.874,-2.8477,-3.0048,-3.0732,-3.0473,0.0,0.0,-3.2619,-3.3631,-3.4632,-3.5746,-3.767,-3.8744,-3.9334,-4.1623,-4.3669,-4.5238,-4.4829,-4.5486,-4.6786,-4.8625,-5.0211,-5.1711,-5.3044,-5.3977,-5.4738,-5.5773,-5.6599,-5.7216,-5.7747,-5.8753,0.0,-5.9772,-6.0392,-6.1065,-6.1252,-6.144,-6.2052,-6.3676,-6.4091,-6.4536,-6.6128,-6.6493,-6.6538,-6.6607,-6.6581,-6.6555,-6.6407,-6.6392,-6.6239,-6.5851,-6.573,-6.564,-6.5405,-6.5559,-6.564,-6.5405,-6.5471,-6.514,-6.4259,-6.4038,-6.355,-6.2612,-6.1773,-6.079,-5.9723,-5.9364,-5.9064,-5.8905,-5.8486,-5.8179,-5.8042,-5.7631,-5.6912,-5.5816,-5.4687,-5.3179,0.0,0.0,0.0,0.0,0.0,0.0,0.0,0.0,0.0,0.0,0.0,-2.7932,-2.7932,0.0,-2.846,-2.9117,-2.8065,-2.7668,-2.91,-2.8048,-2.7105,-2.7105,-2.6455,-2.5532,-2.4074,-2.4602,-2.4723,-2.3938,-2.4602,-2.4723,-2.3938,-2.5263,-2.6054,-2.6054,-2.8196,-2.9395,-2.9787,-3.0843,-3.1249,-3.0861,-3.1249,-3.1873,-3.2873,-3.3882,-3.5005,-3.5992,-3.8268,-3.9569,-4.0337,-4.2671,-4.4662,-4.6026,-4.6102,-4.6874,-4.7981,-4.9327,-5.0703,-5.207,-5.3415,-5.4235,-5.4922,-5.6276,-5.6861,-5.7266,-5.806,-5.9026,-5.9809,-5.9809,-6.043,-6.1142,-6.1264,-6.146,-6.2031,-6.3699,-6.412,-6.461,-6.6178,-6.6594,-6.6633,-6.6618,-6.6669,-6.6581,-6.6295,-6.626,-6.6109,-6.5755,-6.5613,-6.5513,-6.5405,-6.5559,-6.564,-6.5405,-6.5586,-6.5486,-6.4832,-6.439,-6.3871,-6.3359,-6.2053,-6.0947,-6.0257,-5.9664,-5.914,-5.8825,-5.8486,-5.8133,-5.7904,-5.7486,-5.6845,-5.5872,-5.4748,-5.3347,0.0,0.0,0.0,0.0,0.0,0.0,0.0,-2.6517,-2.5965,-2.5965,-2.702,-2.7949,-2.7816,-2.9395,-3.0714,-3.0714,-2.9787,-2.9395,-3.0437,-2.8838,-2.7387,-2.6722,-2.5667,-2.4873,-2.4602,-2.3802,-2.3665,-2.4467,-2.3802,-2.3665,-2.4602,-2.5143,-2.5935,-2.7105,-2.8854,-3.0195,-3.1377,-3.1377,-3.1377,-3.1377,-3.1635,-3.2256,-3.3253,-3.4258,-3.5376,-3.6703,-3.8957,-4.0616,-4.1914,-4.4095,-4.542,-4.6292,-4.7407,-4.8286,-4.914,-4.9789,-5.1005,-5.2457,-5.3549,-5.4362,-5.5224,-5.6616,-5.7166,-5.7462,-5.8406,-5.9215,-5.9809,-5.9809,-6.0418,-6.1057,-6.1247,-6.1444,-6.1958,-6.3672,-6.4151,-6.4655,-6.6244,-6.663,-6.6712,-6.6712,-6.6652,-6.653,-6.6167,-6.6067,-6.592,-6.5654,-6.5513,-6.5413,-6.5413,-6.5542,-6.5586,-6.5405,-6.5586,-6.564,-6.5465,-6.4703,-6.4121,-6.3905,-6.252,-6.141,-6.0863,-5.9966,-5.9212,-5.8743,-5.8356,-5.7997,-5.7715,-5.7338,-5.6688,-5.5623,-5.4503,-5.3246,-2.7067,-2.7067,-2.72,-2.72,-2.72,-2.72,0.0,-2.7067,-2.7067,-2.7067,-2.8114,-2.8905,-2.8395,-2.8362,-2.8608,-2.8608,-2.8477,-2.8196,-2.7652,-2.846,-2.8065,-2.5532,-2.5143,-2.4467,-2.327,-2.4074,-2.4331,-2.327,-2.421,-2.4345,-2.3133,-2.5532,-2.6988,-2.7105,-2.977,-3.1249,-3.1377,-3.1377,-3.1377,-3.1377,-3.2256,-3.3253,-3.4258,-3.5253,-3.6824,-3.898,-4.1395,-4.3245,-4.4427,-4.6024,-4.6755,-4.7066,-4.9314,-5.035,-5.0578,-5.0871,-5.2065,-5.3681,-5.3847,-5.4887,-5.6257,-5.6912,-5.7413,-5.7923,-5.8492,-5.9215,-5.9809,-5.9809,-6.0465,-6.1182,-6.1281,-6.1489,-6.21,-6.3692,-6.4162,-6.4655,-6.6244,-6.663,-6.6712,-6.6712,-6.6543,-6.6361,-6.6148,-6.5897,-6.5654,-6.5465,-6.5405,-6.5413,-6.5413,-6.5405,-6.5405,-6.5413,-6.5586,-6.5654,-6.5575,-6.5261,-6.4742,-6.3883,-6.3343,-6.2333,-6.0717,-6.0222,-5.9525,-5.8437,-5.8179,-5.7857,-5.7437,-5.7138,-5.642,-5.5154,-5.4259,-5.3011,-2.72,-2.72,-2.72,-2.72,-2.72,-2.72,-2.72,-2.72,-2.72,-2.72,-2.7998,-2.8659,-2.8395,-2.8905,-2.9413,-2.9413,-2.9151,-2.874,-2.846,-2.7535,-2.6337,-2.5143,-2.4345,-2.3529,-2.2996,-2.3393,-2.3529,-2.2996,-2.3406,-2.3529,-2.2859,-2.5517,-2.7105,-2.7105,-2.99,-3.1377,-3.1377,-3.1377,-3.1377,-3.1377,-3.2384,-3.3379,-3.4383,-3.5376,-3.755,-4.0384,-4.21,-4.3991,-4.5714,-4.6616,-4.7698,-4.8952,-5.0641,-5.1701,-5.2187,-5.19,-5.2677,-5.3912,-5.3912,-5.4913,-5.642,-5.6912,-5.7462,-5.8023,-5.8788,-5.9361,-5.9842,-6.0061,-6.0641,-6.1225,-6.1278,-6.1487,-6.2106,-6.3763,-6.419,-6.4661,-6.6301,-6.6691,-6.6652,-6.6543,-6.6475,-6.6295,-6.5942,-6.5779,-6.564,-6.5435,-6.5413,-6.5413,-6.5413,-6.5485,-6.5559,-6.5559,-6.5628,-6.564,-6.5427,-6.529,-6.5014,-6.4533,-6.3724,-6.2937,-6.2032,-6.0781,-5.9775,-5.9005,-5.83,-5.7715,-5.7289,-5.6984,-5.6474,-5.5658,-5.4161,-5.2841,-2.72,-2.72,-2.72,-2.72,-2.72,-2.72,-2.72,-2.72,-2.72,-2.72,-2.7733,-2.8263,-2.7998,-2.9053,-2.997,-2.997,-2.9413,-2.8871,-2.8723,-2.6604,-2.4873,-2.4467,-2.3529,-2.2859,-2.2859,-2.2859,-2.2859,-2.2859,-2.2859,-2.2859,-2.2859,-2.5517,-2.7105,-2.7105,-2.99,-3.1377,-3.1377,-3.1377,-3.1506,-3.1873,-3.2873,-3.3882,-3.4881,-3.6581,-3.8839,-4.1647,-4.2886,-4.4535,-4.6451,-4.6985,-4.8441,-5.0425,-5.1942,-5.294,-5.3545,-5.3455,-5.3766,-5.4185,-5.411,-5.5154,-5.6546,-5.6964,-5.7558,-5.8282,-5.8988,-5.9467,-5.9868,-6.0245,-6.0769,-6.1214,-6.134,-6.151,-6.2104,-6.3794,-6.4202,-6.4665,-6.6322,-6.6702,-6.6641,-6.6422,-6.6345,-6.6185,-6.5779,-6.5628,-6.5559,-6.5405,-6.5413,-6.5413,-6.5413,-6.5559,-6.5705,-6.5705,-6.573,-6.5666,-6.5375,-6.529,-6.5161,-6.4886,-6.4067,-6.335,-6.2888,-6.14,-6.024,-5.9348,-5.8527,-5.779,-5.7138,-5.6881,-5.651,-5.5901,-5.4063,-5.2704,-2.72,-2.72,-2.72,-2.72,-2.72,-2.72,-2.72,-2.72,-2.72,-2.72,-2.7733,-2.813,-2.7334,-2.8395,-2.9316,-2.9316,-2.8757,-2.7932,-2.7254,-2.5935,-2.4467,-2.3133,-2.2859,-2.2859,-2.2859,-2.2859,-2.2859,-2.2859,-2.2859,-2.2859,-2.2859,-2.5517,-2.7105,-2.7105,-2.99,-3.1377,-3.1377,-3.1377,-3.1873,-3.2873,-3.3882,-3.4881,-3.5992,-3.9428,-4.1647,-4.2886,-4.4152,-4.5342,-4.6478,-4.7559,-4.9173,-5.1146,-5.319,-5.409,-5.4403,-5.5862,-5.575,-5.4903,-5.4765,-5.5738,-5.7065,-5.7116,-5.7794,-5.8739,-5.9065,-5.9467,-5.9899,-6.0342,-6.0828,-6.1253,-6.1456,-6.1612,-6.2097,-6.3722,-6.4145,-6.4658,-6.6279,-6.663,-6.6641,-6.6422,-6.6242,-6.6007,-6.5755,-6.5542,-6.5413,-6.5413,-6.5413,-6.5413,-6.5413,-6.5559,-6.5705,-6.5705,-6.5827,-6.5804,-6.552,-6.5427,-6.5155,-6.4634,-6.4328,-6.3675,-6.2556,-6.2168,-6.1071,-5.9255,-5.8933,-5.8187,-5.6984,-5.6865,-5.6347,-5.5472,-5.3905,-5.2669,-2.72,-2.72,-2.72,-2.72,-2.72,-2.72,-2.72,-2.72,-2.72,-2.72,-2.6784,-2.6517,-2.6517,-2.662,-2.6871,-2.7169,-2.662,-2.5935,-2.5801,-2.4467,-2.3393,-2.2996,-2.2859,-2.2859,-2.2859,-2.2859,-2.2859,-2.2859,-2.3802,-2.4331,-2.4331,-2.7004,-2.8592,-2.8592,-3.0455,-3.1377,-3.1377,-3.1377,-3.1873,-3.2873,-3.4632,-3.6338,-3.8149,-4.0152,-4.1761,-4.2997,-4.4993,-4.6478,-4.7587,-4.8596,-5.0579,-5.3046,-5.3719,-5.4773,-5.5985,-5.6757,-5.6472,-5.5689,-5.5524,-5.6197,-5.7116,-5.7116,-5.7831,-5.8821,-5.9397,-5.9673,-5.9924,-6.0635,-6.1014,-6.1253,-6.145,-6.1588,-6.213,-6.3771,-6.4189,-6.4648,-6.6322,-6.6702,-6.6618,-6.6278,-6.6148,-6.5981,-6.5569,-6.5435,-6.5413,-6.5413,-6.5413,-6.5465,-6.5586,-6.5654,-6.5779,-6.5942,-6.592,-6.5851,-6.573,-6.5651,-6.5494,-6.522,-6.4739,-6.4332,-6.4105,-6.3031,-6.2041,-6.1172,-5.9789,-5.8653,-5.7621,-5.6761,-5.607,-5.5472,-5.3379,-5.2146,-2.72,-2.72,-2.72,-2.72,-2.72,-2.72,-2.72,-2.72,-2.72,-2.72,-2.6383,-2.5697,-2.61,-2.5801,-2.5667,-2.5965,-2.5427,-2.5008,-2.5008,-2.3802,-2.2859,-2.2859,-2.2859,-2.2859,-2.2859,-2.2859,-2.3133,-2.3665,-2.4467,-2.5278,-2.5667,-2.8065,-2.9265,-2.9265,-3.0714,-3.1377,-3.1377,-3.1763,-3.2638,-3.4007,-3.6093,-3.8029,-3.9919,-4.1191,-4.2438,-4.3687,-4.5635,-4.6971,-4.8066,-4.9553,-5.1606,-5.4062,-5.4317,-5.5393,-5.6734,-5.7145,-5.6781,-5.6132,-5.6377,-5.6751,-5.7116,-5.7315,-5.7969,-5.8862,-5.9609,-5.9809,-5.9985,-6.0848,-6.1151,-6.1279,-6.1509,-6.1627,-6.2139,-6.3783,-6.42,-6.4643,-6.6342,-6.6712,-6.6555,-6.6187,-6.6108,-6.5958,-6.5494,-6.5413,-6.5413,-6.5413,-6.5465,-6.5542,-6.5586,-6.5628,-6.573,-6.5913,-6.592,-6.5874,-6.5793,-6.5613,-6.5417,-6.5175,-6.4775,-6.452,-6.4558,-6.3723,-6.2944,-6.2271,-6.0831,-5.9505,-5.8244,-5.71,-5.6184,-5.5472,-5.3413,-5.2146,-2.72,-2.72,-2.72,-2.72,-2.72,-2.72,-2.72,-2.72,-2.72,-2.72,-2.6383,-2.5697,-2.5965,-2.5682,-2.5532,-2.5831,-2.5292,-2.4873,-2.4873,-2.3802,-2.2859,-2.2859,-2.2859,-2.2859,-2.2859,-2.2859,-2.3529,-2.5008,-2.5143,-2.5667,-2.7121,-2.8592,-2.9395,-2.9395,-3.0714,-3.1377,-3.1506,-3.2511,-3.4007,-3.5869,-3.8149,-3.9919,-4.11,-4.2326,-4.3577,-4.483,-4.5953,-4.7074,-4.8267,-5.0235,-5.2213,-5.4062,-5.492,-5.5843,-5.6778,-5.7111,-5.6782,-5.6198,-5.7152,-5.7298,-5.7216,-5.77,-5.8238,-5.8865,-5.9609,-5.9809,-6.0044,-6.0919,-6.1186,-6.1292,-6.1609,-6.1701,-6.2109,-6.3781,-6.4184,-6.4652,-6.6332,-6.6712,-6.6555,-6.6187,-6.6088,-6.5936,-6.5465,-6.5413,-6.5375,-6.5405,-6.5559,-6.5613,-6.5435,-6.5531,-6.564,-6.5597,-6.5842,-6.5936,-6.5731,-6.5437,-6.5099,-6.4701,-6.4558,-6.4326,-6.4004,-6.4169,-6.3756,-6.2728,-6.1957,-6.0628,-5.8762,-5.7729,-5.668,-5.5472,-5.3939,-5.2633,-2.72,-2.72,-2.72,-2.72,-2.72,-2.72,-2.72,-2.72,-2.72,-2.72,-2.5846,-2.4902,-2.5172,-2.4074,-2.3256,-2.3665,-2.3543,-2.3406,-2.3406,-2.3133,-2.2859,-2.2859,-2.2859,-2.2859,-2.2859,-2.2859,-2.3924,-2.6321,-2.6588,-2.7254,-2.8592,-3.0048,-3.0843,-3.0843,-3.1249,-3.1744,-3.2511,-3.4258,-3.5376,-3.5869,-3.8149,-3.9919,-4.11,-4.2326,-4.3991,-4.6058,-4.7074,-4.8195,-4.9386,-5.1359,-5.29,-5.403,-5.4405,-5.5324,-5.6499,-5.6471,-5.6198,-5.6096,-5.7545,-5.7614,-5.7216,-5.77,-5.8418,-5.914,-5.9639,-6.0,-6.0311,-6.0886,-6.1136,-6.1227,-6.15,-6.1615,-6.2136,-6.3783,-6.42,-6.4648,-6.6351,-6.6712,-6.6555,-6.6187,-6.5818,-6.5513,-6.5405,-6.5413,-6.5465,-6.5613,-6.5513,-6.5427,-6.5531,-6.5705,-6.5874,-6.5947,-6.5981,-6.6041,-6.6167,-6.5958,-6.5793,-6.5666,-6.5261,-6.5112,-6.5175,-6.481,-6.4407,-6.3953,-6.2582,-6.1124,-5.9602,-5.7739,-5.6269,-5.5259,-5.3647,-5.2387,-2.72,-2.72,-2.72,-2.72,-2.72,-2.72,-2.72,-2.72,-2.7067,-2.6651,-2.5442,-2.4495,-2.436,-2.327,-2.2448,-2.2859,-2.2859,-2.2859,-2.2859,-2.2859,-2.2859,-2.2859,-2.2859,-2.3133,-2.3802,-2.3802,-2.5008,-2.7784,-2.7519,-2.8048,-3.0065,-3.0972,-3.1377,-3.1377,-3.1873,-3.2746,-3.4258,-3.5376,-3.6359,-3.7309,-3.9216,-4.0731,-4.1987,-4.3636,-4.5182,-4.6478,0.0,-4.8993,-4.9805,-5.2184,-5.3545,-5.4115,-5.4972,-5.5742,-5.6342,-5.6234,-5.599,-5.5973,-5.7299,-5.7478,-5.7216,-5.8015,-5.8669,-5.9289,-5.9673,-6.0061,-6.0418,-6.0963,-6.1151,-6.1279,-6.1517,-6.1632,-6.2102,-6.3783,-6.4197,-6.4677,-6.6342,-6.6712,-6.6555,-6.6187,-6.5718,-6.5413,-6.5413,-6.5413,-6.5435,-6.5531,-6.5485,-6.5456,-6.5569,-6.5613,-6.5793,-6.6007,-6.6019,-6.6019,-6.6187,-6.5958,-6.5793,-6.5705,-6.5388,-6.5245,-6.5245,-6.509,-6.4813,-6.4558,-6.3322,-6.1939,-6.0405,-5.8366,-5.6726,-5.5479,-5.3983,-5.2803,-2.72,-2.72,-2.72,-2.72,-2.72,-2.72,-2.72,-2.7067,-2.6651,-2.5831,-2.4902,-2.4224,-2.3543,-2.2859,-2.2448,-2.2859,-2.2996,-2.3133,-2.3133,-2.3133,-2.3133,-2.3133,-2.3133,-2.3665,-2.4873,-2.5143,-2.6337,-2.9134,-2.8048,-2.8575,-3.1249,-3.1377,-3.1506,-3.1635,-3.2638,-3.4007,-3.5869,-3.6237,-3.7309,-3.9216,-4.0616,-4.1987,-4.3194,-4.5395,-4.6583,-4.6895,-4.8795,-4.9708,-4.9999,-5.2812,-5.3976,-5.4147,-5.5922,-5.6429,-5.6352,-5.6029,-5.5884,-5.5889,-5.6814,-5.7116,-5.7266,-5.8363,-5.8947,-5.9361,-5.9673,-6.0091,-6.047,-6.1031,-6.1172,-6.1292,-6.1595,-6.1697,-6.2108,-6.3781,-6.4189,-6.4652,-6.6342,-6.6652,-6.6517,-6.6187,-6.5718,-6.5413,-6.5413,-6.5413,-6.5413,-6.5405,-6.5513,-6.5559,-6.5542,-6.5523,-6.5635,-6.5967,-6.5967,-6.5951,-6.608,-6.5769,-6.5531,-6.5359,-6.5245,-6.5085,-6.4882,-6.5095,-6.5027,-6.4707,-6.393,-6.2697,-6.1025,-5.9307,-5.7585,-5.5825,-5.4686,-5.3551,-2.72,-2.72,-2.72,-2.72,-2.72,-2.72,-2.72,-2.6517,-2.5831,-2.5697,-2.4481,-2.3543,-2.3406,-2.3133,-2.2859,-2.2859,-2.3938,-2.4602,-2.4602,-2.4602,-2.4602,-2.4602,-2.4602,-2.4738,-2.5008,-2.6054,-2.7387,-2.9134,-2.9003,-2.9657,-3.1377,-3.1377,-3.1744,-3.2619,-3.3631,-3.4757,-3.5869,-3.767,-3.8862,-3.9216,-4.1509,-4.3169,-4.424,-4.5688,-4.7383,-4.912,-4.9415,0.0,-5.1105,-5.3108,-5.3976,-5.4084,-5.5287,-5.5917,-5.6064,-5.545,-5.5352,-5.5707,-5.674,-5.7116,-5.7266,-5.8363,-5.914,-5.9706,-5.9809,-6.0237,-6.0742,-6.0983,-6.112,-6.1266,-6.149,-6.1609,-6.2134,-6.3783,-6.4203,-6.4653,-6.6351,-6.6422,-6.6187,-6.6128,-6.5718,-6.5413,-6.5413,-6.5413,-6.5435,-6.5559,-6.5397,-6.5397,-6.5866,-6.5913,-6.589,-6.5905,-6.6013,-6.608,-6.6102,-6.6005,-6.5884,-6.5705,-6.5569,-6.5465,-6.5283,-6.5226,-6.5027,-6.4707,-6.368,-6.2376,-6.1025,-5.9536,-5.7716,-5.5632,-5.5135,-5.3991,-2.72,-2.72,-2.72,-2.72,-2.72,-2.72,-2.72,-2.6383,-2.5427,-2.4873,-2.3938,-2.2996,-2.2585,-2.2585,-2.2722,-2.2859,-2.4074,-2.5008,-2.5008,-2.5667,-2.6054,-2.6054,-2.6054,-2.6337,-2.7137,-2.78,-2.8854,-3.0325,-3.0455,-3.0714,-3.1377,-3.1873,-3.2638,-3.3631,-3.4632,-3.5971,-3.755,-3.8625,-3.9803,-4.1167,-4.2326,-4.3855,-4.5555,-4.6736,-4.8094,-4.9611,-5.022,-5.0981,-5.2002,-5.3459,-5.4232,-5.4787,-5.5784,-5.6124,-5.6065,-5.5723,-5.5744,-5.6014,-5.6809,-5.7266,-5.7653,-5.8449,-5.9178,-5.9809,-5.9809,-6.0265,-6.0811,-6.1036,-6.1167,-6.1279,-6.1526,-6.166,-6.2127,-6.3785,-6.4882,-6.5737,-6.6527,-6.6377,-6.6108,-6.6108,-6.5718,-6.5413,-6.5413,-6.5413,-6.5405,-6.5427,-6.5283,-6.5345,-6.5769,-6.5793,-6.5881,-6.6058,-6.608,-6.5925,-6.544,-6.5712,-6.5667,-6.5102,-6.535,-6.5444,-6.529,-6.5161,-6.4886,-6.4445,-6.368,-6.2597,-6.1136,-5.9893,-5.8304,-5.6539,-5.5516,-5.4466,-2.72,-2.72,-2.72,-2.72,-2.7067,-2.68,-2.68,-2.5846,-2.4617,-2.3788,-2.2983,-2.2448,-2.1897,-2.2035,-2.2448,-2.2859,-2.4074,-2.5143,-2.5398,-2.6455,-2.7254,-2.7519,-2.7519,-2.8048,-2.9134,-2.9526,-3.0195,-3.1377,-3.1635,-3.1763,-3.1763,-3.2511,-3.3505,-3.4632,-3.55,-3.6946,-3.9216,-3.9451,-4.0731,-4.2886,-4.3108,-4.4535,-4.6791,-4.7587,-4.8696,-5.0028,-5.0822,-5.1727,-5.2695,-5.3632,-5.4485,-5.5393,-5.6336,-5.6526,-5.6338,-5.6167,-5.6279,-5.658,-5.6984,-5.7462,-5.8015,-5.8529,-5.9178,-5.9809,-5.9809,-6.0265,-6.0834,-6.1087,-6.1158,-6.1292,-6.1588,-6.1671,-6.2127,-6.3785,-6.5478,-6.6702,-6.6641,-6.6345,-6.6088,-6.6046,-6.5666,-6.5413,-6.5383,-6.5383,-6.5352,-6.5258,-6.5226,-6.5352,-6.5663,-6.5663,-6.5756,-6.6144,-6.6123,-6.571,-6.4855,-6.5408,-6.5397,-6.4457,-6.5044,-6.5352,-6.5232,-6.5095,-6.4741,-6.4209,-6.3637,-6.2696,-6.1307,-6.0131,-5.8829,-5.7363,-5.6133,-5.5145,-2.72,-2.72,-2.72,-2.72,-2.6517,-2.5697,-2.5697,-2.4074,-2.2585,-2.2448,-2.1897,-2.1484,-2.1772,-2.2035,-2.2448,-2.2859,-2.4074,-2.5398,-2.6722,-2.6988,-2.7652,-2.9003,-2.9134,-2.9134,-2.9265,-3.0455,-3.1249,-3.1377,-3.2256,-3.2746,-3.2746,-3.2873,-3.3757,-3.5746,-3.5869,-3.6946,-3.9216,-4.0384,-4.1533,-4.2886,-4.4042,-4.5741,-4.7864,-4.7965,-4.9092,-5.1011,-5.1135,-5.1727,0.0,-5.3632,-5.4485,-5.5393,-5.6336,-5.6936,-5.7123,-5.6372,-5.6628,-5.7259,-5.7165,-5.7462,-5.8015,-5.8529,-5.9178,-5.9809,-5.9809,-6.0265,-6.085,-6.0964,-6.112,-6.1266,-6.1471,-6.1602,-6.2127,-6.3785,-6.5478,-6.6641,-6.6475,-6.626,-6.6046,-6.5779,-6.5569,-6.5383,-6.5321,-6.529,-6.5258,-6.5095,-6.522,-6.5435,-6.5608,-6.5705,-6.5895,-6.608,-6.6058,-6.5643,-6.4787,-6.5372,-6.5383,-6.4457,-6.5044,-6.5352,-6.5232,-6.5095,-6.4741,-6.4209,-6.3123,-6.2208,-6.1307,-6.0149,-5.8834,-5.7397,-5.726,-5.6165,-2.72,-2.72,-2.7067,-2.6383,-2.5965,-2.5427,-2.4752,-2.3393,-2.231,-2.231,-2.1484,-2.1081,-2.1634,-2.1897,-2.2173,-2.2859,-2.4074,-2.5143,-2.5801,-2.6588,-2.7652,-2.9134,-2.9265,-2.9657,-3.0455,-3.112,-3.1635,-3.2256,-3.253,-3.3146,-3.4278,-3.4632,-3.5129,-3.5869,-3.7188,-3.8744,-4.0268,-4.1533,-4.2774,-4.4042,-4.502,-4.6296,-4.7791,-4.8296,-4.9386,-5.0917,-5.0852,-5.1819,0.0,-5.3632,-5.4736,-5.6257,-5.6954,-5.7263,-5.7226,-5.6778,-5.7122,-5.7854,-5.7268,-5.7653,-5.8406,-5.8614,-5.9178,-5.9809,-5.9809,-6.0265,-6.0834,-6.1053,-6.1143,-6.124,-6.1534,-6.24,-6.3359,-6.4032,-6.5488,-6.6641,-6.6422,-6.6242,-6.6007,-6.5755,-6.5513,-6.5321,-6.529,-6.5296,-6.5161,-6.5023,-6.522,-6.5405,-6.5523,-6.5678,-6.587,-6.6029,-6.6005,-6.5442,-6.3984,-6.4552,-6.4561,-6.3636,-6.4161,-6.4692,-6.5161,-6.4924,-6.4596,-6.4209,-6.2973,-6.1984,-6.1307,-6.0156,-5.9078,-5.8046,-5.7602,-5.6707,-2.68,-2.6934,-2.6934,-2.5831,-2.5292,-2.4752,-2.3665,-2.2585,-2.176,-2.176,-2.122,-2.0943,-2.1634,-2.176,-2.2035,-2.2722,-2.3665,-2.4738,-2.5532,-2.6455,-2.7784,-2.9657,-2.9935,-3.0325,-3.1249,-3.1377,-3.1763,-3.2638,-3.2785,-3.3544,-3.517,-3.5767,-3.6258,-3.6703,-3.8387,-4.0036,-4.1647,-4.2438,-4.3466,-4.4722,-4.5582,-4.6506,-4.7615,-4.8396,-4.9513,-5.0728,-5.0567,-5.1727,0.0,-5.3427,-5.4653,-5.6603,-5.7214,-5.7471,-5.7603,-5.7113,-5.754,-5.8267,-5.7427,-5.77,-5.8492,-5.8743,-5.929,-5.9842,-5.9937,-6.0349,-6.0834,-6.107,-6.1225,-6.1351,-6.1632,-6.2929,-6.42,-6.4202,-6.5472,-6.663,-6.6361,-6.6205,-6.5986,-6.5654,-6.5427,-6.529,-6.5258,-6.5194,-6.5095,-6.4993,-6.5252,-6.5465,-6.5494,-6.5717,-6.5895,-6.5996,-6.5972,-6.523,-6.3411,-6.3936,-6.3981,-6.3016,-6.3574,-6.4285,-6.509,-6.4781,-6.4482,-6.4209,-6.2781,-6.177,-6.1307,-6.003,-5.9081,-5.849,-5.7943,-5.7074,-2.5562,-2.6383,-2.6934,-2.5831,-2.4752,-2.3679,-2.2585,-2.1484,-2.0665,-2.0665,-2.0665,-2.0943,-2.1634,-2.176,-2.2035,-2.2722,-2.2859,-2.3924,-2.6722,-2.7105,-2.818,-3.0972,-3.1377,-3.1377,-3.1377,-3.1377,-3.1635,-3.2294,-3.3292,-3.4173,-3.4922,-3.5788,-3.711,-3.8602,-3.898,-4.0361,-4.2886,-4.2886,-4.3466,-4.4722,-4.5582,-4.6506,-4.7615,-4.8396,-4.9444,-5.0501,-5.0501,-5.1449,0.0,-5.29,-5.4147,-5.6165,-5.6724,-5.752,-5.8287,-5.732,-5.7588,-5.8438,-5.7454,-5.7462,-5.8023,-5.8912,-5.9467,-5.9874,-6.0208,-6.0546,-6.0827,-6.0945,-6.125,-6.1526,-6.1668,-6.2928,-6.42,-6.4202,-6.5472,-6.6606,-6.6205,-6.6108,-6.5981,-6.5494,-6.5352,-6.5296,-6.5232,-6.5095,-6.4993,-6.4888,-6.5314,-6.558,-6.5523,-6.582,-6.599,-6.602,-6.5872,-6.5102,-6.3335,-6.3893,-6.3896,-6.2968,-6.3543,-6.4253,-6.4951,-6.4745,-6.4482,-6.4209,-6.2475,-6.1479,-6.1307,-5.9774,-5.8806,-5.849,-5.849,-5.7223,-2.4481,-2.4631,-2.4631,-2.3665,-2.3119,-2.2585,-2.1484,-2.0943,-2.0665,-2.0665,-2.0665,-2.0943,-2.1634,-2.176,-2.2035,-2.2722,-2.3665,-2.4602,-2.5532,-2.6455,-2.7784,-2.9787,-3.0843,-3.1249,-3.0732,-3.1506,-3.2275,-3.2765,-3.365,-3.4673,-3.5541,-3.5932,-3.6401,-3.711,-3.8862,-4.0245,-4.1281,-4.2824,-4.3958,-4.4722,-4.598,-4.6791,-4.741,-4.8724,-4.9669,-5.0279,-5.0567,-5.1512,-5.29,-5.3284,-5.4517,-5.6165,-5.7147,-5.7887,-5.8287,-5.7746,-5.7963,-5.8473,-5.7454,-5.7462,-5.8015,-5.8624,-5.929,-5.9842,-5.9937,-6.0349,-6.0834,-6.107,-6.139,-6.1637,-6.164,-6.2922,-6.4193,-6.4162,-6.5445,-6.6606,-6.6205,-6.6108,-6.5958,-6.5435,-6.5258,-6.5194,-6.5095,-6.4993,-6.4993,-6.509,-6.5375,-6.5552,-6.5635,-6.582,-6.5958,-6.5872,-6.5728,-6.4983,-6.3283,-6.3291,-6.3255,-6.2871,-6.294,-6.3541,-6.4739,-6.4483,-6.4209,-6.4004,-6.272,-6.1806,-6.1307,-6.0184,-5.9249,-5.849,-5.8099,-5.6854,-2.3133,-2.3543,-2.3679,-2.2585,-2.231,-2.2035,-2.0943,-2.0665,-2.0665,-2.0665,-2.0665,-2.0943,-2.1634,-2.176,-2.2035,-2.2722,-2.4074,-2.5143,-2.5412,-2.6604,-2.7932,-2.9151,-3.0083,-3.0602,-3.0732,-3.1506,-3.2403,-3.3398,-3.4047,-3.4797,-3.5665,-3.5665,-3.6034,-3.6746,-3.898,-4.0616,-4.1874,-4.3184,-4.4313,-4.502,-4.6269,-4.7102,-4.7745,-4.9079,-4.9766,-4.999,-5.025,-5.1233,0.0,-5.2874,-5.4094,-5.5974,-5.7114,-5.7755,-5.798,-5.7869,-5.7822,-5.7797,-5.7293,-5.7315,-5.7794,-5.8791,-5.9605,-6.0179,-6.0179,-6.0545,-6.0983,-6.1128,-6.1442,-6.1694,-6.164,-6.2922,-6.4197,-6.4162,-6.5377,-6.6503,-6.6187,-6.6007,-6.5804,-6.5375,-6.5264,-6.5128,-6.5023,-6.4958,-6.4958,-6.5117,-6.5337,-6.5552,-6.5663,-6.5859,-6.5947,-6.582,-6.5674,-6.5043,-6.3663,-6.3169,-6.2862,-6.2742,-6.2611,-6.3209,-6.4595,-6.4367,-6.4128,-6.3878,-6.2843,-6.1986,-6.1307,-6.0058,-5.9114,-5.849,-5.7954,-5.6838,0.0,-2.2859,-2.3406,-2.2448,-2.2173,-2.1897,-2.0943,-2.0665,0.0,-2.0665,-2.0665,-2.0943,-2.1634,-2.1772,-2.2035,-2.2859,-2.421,-2.5412,-2.61,-2.7419,-2.8493,-2.9168,-2.9447,-2.9952,-3.1249,-3.1506,-3.2384,-3.4173,-3.4423,-3.4797,-3.5418,-3.5418,-3.6013,-3.7429,-3.9075,-4.1191,-4.3679,-4.3789,-4.4396,-4.5502,-4.6347,-4.741,-4.8481,-4.9375,-4.9669,-4.9669,-4.9766,-5.0603,0.0,-5.1972,-5.3315,-5.5491,-5.6668,-5.7161,-5.7364,-5.7695,-5.7298,-5.6694,-5.7009,-5.7116,-5.7473,-5.9213,-6.0237,-6.0757,-6.0781,-6.0983,-6.1186,-6.1186,-6.1442,-6.169,-6.1676,-6.2928,-6.42,-6.4197,-6.5317,-6.6361,-6.6148,-6.5897,-6.5628,-6.5383,-6.5258,-6.5161,-6.5057,-6.4993,-6.5027,-6.5117,-6.5375,-6.5552,-6.5608,-6.5833,-6.5947,-6.5793,-6.5674,-6.5245,-6.4346,-6.3359,-6.2742,-6.2611,-6.2515,-6.3107,-6.4445,-6.4328,-6.4087,-6.3878,-6.2794,-6.1933,-6.125,-5.9447,-5.849,-5.849,-5.8099,-5.7222,-2.1081,0.0,-2.1346,-2.1081,-2.1081,-2.1081,0.0,-2.0665,-2.0665,-2.0665,-2.0665,-2.0804,-2.1207,-2.1622,-2.231,-2.3938,-2.5158,-2.6234,-2.7551,-2.8493,-2.9168,-2.9316,-3.0213,-3.0861,-3.0584,-3.2511,-3.365,-3.3631,-3.4528,-3.517,-3.5418,-3.5418,-3.6481,-3.8625,-3.9216,-4.0268,-4.21,-4.2849,-4.3932,-4.5502,-4.6137,-4.7205,-4.8481,-4.9375,-4.9669,-4.9766,-5.0346,-5.1075,-5.1972,-5.2547,-5.3782,-5.5491,-5.6668,-5.7161,-5.7364,-5.7695,-5.7564,-5.7199,-5.7113,-5.7364,-5.7941,-5.9359,-6.0091,-6.0468,-6.0734,-6.0983,-6.1186,-6.1186,-6.1442,-6.1694,-6.164,-6.2922,-6.4193,-6.4154,-6.5416,-6.653,-6.6187,-6.5947,-6.5765,-6.5523,-6.5413,-6.5383,-6.5465,-6.5465,-6.5456,-6.5624,-6.5624,-6.5717,-6.5884,-6.5872,-6.582,-6.5674,-6.5552,-6.512,-6.4131,-6.3299,-6.2742,-6.2611,-6.2515,-6.2735,-6.3349,-6.3911,-6.4046,-6.3691,-6.2266,-6.14,-6.0997,-5.9349,-5.849,-5.849,-5.8099,-5.7297,-2.0665,-2.0665,-2.0665,-2.0665,-2.0665,-2.0665,-2.0665,-2.0665,-2.0665,-2.0665,-2.0665,-2.0804,-2.1069,-2.1346,-2.2035,-2.3665,-2.5278,-2.6871,-2.8493,-2.851,-2.851,-2.9168,-2.9935,-3.0825,-3.1598,-3.3126,-3.4027,-3.4278,-3.5046,-3.5418,-3.5418,-3.6013,-3.721,-3.9098,-3.9803,-4.0731,-4.2125,-4.2737,-4.3713,-4.5101,-4.5926,-4.6971,-4.8252,-4.9277,-4.9669,-4.9669,-5.0154,-5.0887,-5.188,-5.2366,-5.3664,-5.5491,-5.6668,-5.6959,-5.6816,-5.7555,-5.7435,-5.6902,-5.7057,-5.7859,-5.8912,-5.9571,-6.015,-6.0572,-6.0734,-6.0983,-6.1186,-6.1186,-6.1442,-6.169,-6.1676,-6.2928,-6.42,-6.4157,-6.5397,-6.6489,-6.6167,-6.6007,-6.5812,-6.5542,-6.5523,-6.5552,-6.5608,-6.558,-6.5608,-6.5705,-6.5717,-6.5717,-6.5947,-6.5872,-6.5767,-6.5608,-6.5552,-6.5244,-6.4641,-6.3809,-6.3251,-6.3155,-6.309,-6.3192,-6.3533,-6.3984,-6.3963,-6.3419,-6.2003,-6.1135,-6.0915,-5.9282,-5.849,-5.849,-5.8099,-5.7072,-2.0665,-2.0665,-2.0665,-2.0665,-2.0665,-2.0665,-2.0665,-2.0665,-2.0665,-2.0665,-2.0665,-2.0804,-2.1081,-2.1346,-2.1897,-2.3393,-2.5398,-2.7403,-2.8774,-2.7998,-2.7716,-2.9151,-2.9526,-3.0549,-3.3126,-3.3631,-3.4153,-3.5294,-3.5418,-3.5418,-3.5418,-3.6603,-3.791,-3.9098,-4.0384,-4.1696,-4.2986,-4.2986,-4.3628,-4.467,-4.582,-4.6867,-4.8021,-4.9149,-4.9669,-4.9669,0.0,0.0,-5.188,-5.1972,-5.3403,-5.5491,-5.6668,-5.6689,-5.6269,-5.7416,-5.7188,-5.6492,-5.7116,-5.8433,-5.9809,-5.9809,-6.0265,-6.0781,-6.0827,-6.1002,-6.12,-6.1253,-6.1461,-6.1681,-6.1694,-6.2929,-6.4203,-6.4197,-6.5328,-6.6377,-6.6205,-6.6028,-6.5874,-6.5651,-6.569,-6.5705,-6.5678,-6.5663,-6.5635,-6.5743,-6.569,-6.5728,-6.5872,-6.582,-6.5701,-6.558,-6.5523,-6.5405,-6.529,-6.4578,-6.4063,-6.3964,-6.3748,-6.3763,-6.4172,-6.4128,-6.3792,-6.3147,-6.195,-6.1135,-6.0855,-5.9282,-5.8561,-5.849,-5.8099,-5.6963,-2.0665,-2.0665,-2.0665,-2.0665,-2.0665,-2.0665,-2.0665,-2.0665,-2.0665,-2.0665,-2.0665,-2.0665,-2.0804,-2.176,-2.3119,-2.4588,-2.662,-2.7849,-2.76,-2.7334,-2.7716,-2.9151,-3.029,-3.1579,-3.3253,-3.4403,-3.517,-3.5418,-3.5418,-3.5418,-3.5418,-3.6603,-3.791,-3.9098,-4.0384,-4.1696,-4.2986,-4.2986,-4.3628,-4.467,-4.582,-4.6867,-4.8021,-4.9149,-4.9669,-4.9766,0.0,-5.1075,-5.1972,-5.2547,-5.3868,-5.5491,-5.6668,-5.6689,-5.6269,-5.7416,-5.7441,-5.7116,-5.8105,-5.9026,-5.9809,-5.9809,-6.0265,-6.0827,-6.0943,-6.107,-6.1253,-6.1401,-6.158,-6.1694,-6.164,-6.2883,-6.4193,-6.4115,-6.5426,-6.6606,-6.6392,-6.6221,-6.6051,-6.6046,-6.5913,-6.5905,-6.608,-6.6058,-6.6013,-6.5967,-6.5958,-6.5923,-6.582,-6.5701,-6.558,-6.5523,-6.5435,-6.5383,-6.5232,-6.5079,-6.4904,-6.4734,-6.4017,-6.3763,-6.4172,-6.3873,-6.3428,-6.2855,-6.1842,-6.1055,-6.0529,-5.9317,-5.8631,-5.849,-5.8277,-5.748,-2.0665,-2.0665,-2.0665,-2.0665,-2.0665,-2.0665,-2.0665,-2.0665,-2.0665,-2.0665,-2.0665,-2.0665,-2.0665,-2.176,-2.3256,-2.5532,-2.6902,-2.7733,-2.7733,-2.8114,-2.8888,-3.016,-3.1579,-3.298,-3.4403,-3.5046,-3.5418,-3.5418,-3.5418,-3.5418,-3.5418,-3.6603,-3.791,-3.9098,-4.0384,-4.1696,-4.2986,-4.2986,-4.3295,-4.3823,-4.4886,-4.6032,-4.7074,-4.8223,-4.9149,-4.9669,0.0,-5.0887,-5.188,-5.2276,-5.349,-5.5213,-5.6084,-5.6174,-5.586,-5.6999,-5.7298,-5.7266,-5.8319,-5.9178,-5.9809,-5.9809,-6.0265,-6.0804,-6.0877,-6.1057,-6.12,-6.1304,-6.1517,-6.169,-6.1679,-6.2924,-6.4197,-6.4177,-6.5455,-6.663,-6.6415,-6.6312,-6.6242,-6.6084,-6.6041,-6.608,-6.6123,-6.608,-6.6036,-6.6005,-6.5996,-6.5923,-6.582,-6.5674,-6.558,-6.5494,-6.5413,-6.529,-6.5232,-6.5128,-6.5027,-6.4888,-6.4256,-6.3992,-6.4172,-6.383,-6.3373,-6.2805,-6.1788,-6.1055,-6.0503,-5.9351,-5.8701,-5.849,-5.8243,-5.7372,-2.0665,-2.0665,-2.0665,-2.0665,-2.0665,-2.0665,-2.0665,-2.0665,-2.0665,-2.0665,-2.0665,-2.0665,-2.0665,-2.176,-2.3515,-2.6352,-2.7051,-2.7334,-2.7998,-2.8757,-2.9787,-3.1194,-3.26,-3.3882,-3.5294,-3.5418,-3.5418,-3.5418,-3.5418,-3.5418,-3.5418,-3.6603,-3.779,-3.8744,-4.0268,-4.1558,-4.2513,-4.2849,-4.2986,-4.2986,-4.4152,-4.5289,-4.6319,-4.7485,-4.8653,-4.9669,-4.9863,-5.0698,-5.188,-5.2063,-5.3227,-5.4851,-5.5643,-5.5842,-5.5754,-5.6723,-5.7116,-5.7266,-5.8319,-5.914,-5.9772,-5.9739,-6.0237,-6.0804,-6.085,-6.102,-6.12,-6.1266,-6.1461,-6.169,-6.1713,-6.2928,-6.42,-6.4202,-6.5463,-6.6618,-6.6415,-6.6422,-6.6373,-6.6105,-6.6123,-6.6144,-6.6102,-6.6036,-6.6005,-6.602,-6.5947,-6.5872,-6.5767,-6.5674,-6.558,-6.5494,-6.5383,-6.5258,-6.5161,-6.5061,-6.4958,-6.4888,-6.4445,-6.4209,-6.4209,-6.383,-6.3326,-6.2705,-6.1788,-6.0997,-6.0379,-5.9351,-5.8701,-5.849,-5.8348,-5.7222,-2.0665,-2.0665,-2.0665,-2.0665,-2.0665,-2.0665,-2.0665,-2.0665,-2.0665,-2.0665,-2.0665,-2.0665,-2.0665,-2.2435,-2.4467,-2.6784,-2.72,-2.72,-2.7334,-2.8493,-2.9787,-3.1194,-3.26,-3.3882,-3.5294,-3.5418,-3.5418,-3.5418,-3.5418,-3.5418,-3.5418,-3.6603,-3.7309,-3.7429,-3.9803,-4.11,-4.1215,-4.24,-4.2986,-4.2986,-4.4152,-4.5289,-4.6319,-4.7485,-4.8653,-4.9766,-5.0412,-5.1169,-5.1972,-5.2637,-5.3608,-5.4851,-5.5523,-5.596,-5.6379,-5.6886,-5.7116,-5.7266,-5.8194,-5.9102,-5.9772,-5.9635,-6.017,-6.0827,-6.0963,-6.1087,-6.1253,-6.1412,-6.1588,-6.169,-6.1713,-6.2928,-6.42,-6.4202,-6.5445,-6.6581,-6.6569,-6.6431,-6.6299,-6.6281,-6.6205,-6.6102,-6.6102,-6.6052,-6.602,-6.5996,-6.5947,-6.5808,-6.5635,-6.5608,-6.5552,-6.5444,-6.5352,-6.5226,-6.5023,-6.4958,-6.4888,-6.4888,-6.4445,-6.4209,-6.4209,-6.383,-6.3242,-6.2449,-6.1715,-6.0879,-6.0135,-5.9351,-5.8806,-5.849,-5.849,-5.7372,-2.0665,-2.0665,-2.0665,-2.0665,-2.0665,-2.0665,-2.0665,-2.0665,-2.0665,-2.0665,-2.0665,-2.1081,-2.2448,-2.3938,-2.5427,-2.6934,-2.72,-2.72,-2.72,-2.9134,-3.0678,-3.1176,-3.3233,-3.4777,-3.5294,-3.5418,-3.5418,-3.5418,-3.5418,-3.5418,-3.5418,-3.589,-3.6481,-3.7309,-3.898,-4.0268,-4.11,-4.2375,-4.2986,-4.2986,-4.3406,-4.4561,-4.6319,-4.6764,-4.7892,-4.9669,-4.996,-5.0793,-5.188,-5.2154,-5.3153,-5.4487,-5.5001,-5.5375,-5.5764,-5.676,-5.7065,-5.7166,-5.8418,-5.9215,-5.9739,-5.9899,-6.0349,-6.0827,-6.0983,-6.1087,-6.1253,-6.1422,-6.1595,-6.169,-6.1713,-6.2928,-6.4197,-6.4138,-6.5416,-6.6555,-6.6431,-6.6351,-6.6281,-6.6264,-6.6165,-6.608,-6.6058,-6.6005,-6.5996,-6.5947,-6.5872,-6.5793,-6.5608,-6.5552,-6.5494,-6.5413,-6.529,-6.5128,-6.4958,-6.4888,-6.4888,-6.4888,-6.4445,-6.4209,-6.4209,-6.383,-6.3194,-6.2449,-6.1678,-6.0879,-6.0107,-5.9351,-5.8806,-5.849,-5.849,-5.7372,-2.0665,-2.0665,-2.0665,-2.0665,-2.0665,-2.0665,-2.0665,-2.0665,-2.0665,-2.0665,-2.0943,-2.176,-2.3529,-2.4887,-2.5965,-2.7067,-2.72,-2.72,-2.72,-2.9526,-3.1322,-3.1322,-3.3757,-3.5418,-3.5418,-3.5418,-3.5418,-3.5418,-3.5418,-3.5418,-3.5418,-3.5418,-3.5767,-3.6703,-3.791,-3.9216,-4.05,-4.181,-4.2625,-4.2986,-4.2986,-4.4126,-4.6319,-4.6319,-4.7587,-4.9669,-4.996,-5.0793,-5.188,-5.1941,-5.2753,-5.3934,-5.4664,-5.4982,-5.5319,-5.6616,-5.7065,-5.713,-5.8586,-5.9289,-5.9706,-6.0023,-6.0403,-6.0781,-6.0882,-6.1053,-6.1253,-6.1379,-6.1534,-6.1686,-6.1707,-6.2929,-6.4197,-6.4106,-6.5366,-6.6514,-6.6334,-6.6281,-6.6244,-6.6205,-6.6123,-6.6058,-6.6013,-6.5982,-6.5947,-6.5872,-6.582,-6.5767,-6.558,-6.5523,-6.5465,-6.5352,-6.5226,-6.5133,-6.4888,-6.4888,-6.4888,-6.4888,-6.4445,-6.4209,-6.4209,-6.3698,-6.3099,-6.2412,-6.1548,-6.0796,-6.0107,-5.9351,-5.8806,-5.849,-5.8243,-5.7039,-2.0665,-2.0665,-2.0665,-2.0665,-2.0665,-2.0665,-2.0665,-2.0665,-2.0665,-2.0665,-2.1622,-2.2585,-2.3665,-2.4887,-2.5965,-2.7067,-2.72,-2.72,-2.72,-2.9526,-3.1322,-3.1322,-3.3757,-3.5418,-3.5418,-3.5418,-3.5418,-3.5418,-3.5418,-3.5418,-3.5418,-3.5418,-3.5418,-3.5418,-3.6603,-3.791,-3.9216,-4.05,-4.1696,-4.2986,-4.2986,-4.4126,-4.6319,-4.6319,-4.7587,-4.9766,-5.0442,-5.1263,-5.1911,-5.1986,-5.2522,-5.3407,-5.4499,-5.4952,-5.5199,-5.6563,-5.7116,-5.7315,-5.8545,-5.929,-5.9744,-5.9962,-6.0349,-6.071,-6.0757,-6.0983,-6.1186,-6.1186,-6.1451,-6.172,-6.172,-6.2928,-6.4161,-6.4101,-6.5338,-6.6454,-6.6316,-6.6264,-6.6185,-6.6185,-6.608,-6.6013,-6.6013,-6.5933,-6.5872,-6.5793,-6.5793,-6.574,-6.5523,-6.5494,-6.5405,-6.5232,-6.5199,-6.5133,-6.4888,-6.4888,-6.4888,-6.4888,-6.4445,-6.4209,-6.4209,-6.3437,-6.2805,-6.2397,-6.1243,-6.0503,-6.0107,-5.9351,-5.8806,-5.849,-5.7628,-5.6503,-2.0665,-2.0665,-2.0665,-2.0665,-2.0665,-2.0665,-2.0665,-2.0665,-2.0665,-2.0665,-2.2173,-2.3543,-2.3816,-2.5442,-2.68,-2.72,-2.72,-2.76,-2.8493,-3.016,-3.1707,-3.26,-3.4278,-3.5418,-3.5418,-3.5418,-3.5418,-3.5418,-3.5418,-3.5418,-3.5418,-3.5418,-3.5418,-3.5418,-3.6603,-3.791,-3.9216,-4.05,-4.1696,-4.2986,-4.2986,-4.3713,-4.5182,-4.5926,-4.7074,-4.8553,-4.9542,-5.0461,-5.1302,-5.2444,-5.3029,-5.3446,-5.4459,-5.5131,-5.5716,-5.6616,-5.718,-5.77,-5.8912,-5.9432,-5.9639,-6.0237,-6.052,-6.0734,-6.0882,-6.1053,-6.1214,-6.1379,-6.1534,-6.172,-6.172,-6.2959,-6.4177,-6.404,-6.527,-6.6464,-6.6263,-6.6205,-6.6165,-6.6123,-6.6058,-6.599,-6.6005,-6.5947,-6.5872,-6.5793,-6.5701,-6.558,-6.5435,-6.5405,-6.5383,-6.5232,-6.5199,-6.5133,-6.4888,-6.4888,-6.4888,-6.4888,-6.4445,-6.405,-6.3803,-6.3299,-6.2668,-6.1933,-6.1068,-6.0503,-6.0107,-5.9351,-5.8806,-5.849,-5.7628,-5.6503,-2.0665,-2.0665,-2.0665,-2.0665,-2.0665,-2.0665,-2.0665,-2.0665,-2.0804,-2.122,-2.2722,-2.4074,-2.4481,-2.5981,-2.72,-2.72,-2.72,-2.7716,-2.9134,-3.0419,-3.1835,-3.3253,-3.4528,-3.5418,-3.5418,-3.5418,-3.5418,-3.5418,-3.5418,-3.5418,-3.5418,-3.5418,-3.5418,-3.5418,-3.6114,-3.7188,-3.8387,-3.9216,-4.05,-4.2263,-4.2263,-4.2824,-4.4042,-4.5608,-4.6971,-4.8122,-4.9543,-5.0363,-5.0672,-5.2539,-5.3169,-5.2981,-5.4312,-5.5199,-5.5907,-5.6616,-5.7229,-5.7886,-5.9065,-5.9467,-5.9571,-6.036,-6.061,-6.0685,-6.0899,-6.1036,-6.1253,-6.1367,-6.1526,-6.172,-6.172,-6.292,-6.4138,-6.4028,-6.528,-6.6452,-6.6225,-6.6185,-6.6165,-6.6102,-6.6058,-6.599,-6.602,-6.5947,-6.5872,-6.5728,-6.5618,-6.5465,-6.5413,-6.5383,-6.5321,-6.5232,-6.5128,-6.5061,-6.4888,-6.4888,-6.4888,-6.4888,-6.4445,-6.3967,-6.3371,-6.2977,-6.2412,-6.1712,-6.0867,-6.0352,-6.0107,-5.9351,-5.8806,-5.849,-5.7628,-5.6503,-2.0527,-2.0527,-2.0665,-2.0665,-2.0665,-2.0665,-2.0665,-2.0804,-2.1081,-2.2035,-2.3133,-2.421,-2.5427,-2.6517,-2.72,-2.72,-2.72,-2.7716,-2.9134,-3.0419,-3.1835,-3.3253,-3.4528,-3.5418,-3.5418,-3.5418,-3.5418,-3.5418,-3.5418,-3.5418,-3.5418,-3.5418,-3.5418,-3.5418,-3.5418,-3.6013,-3.7309,-3.7309,-3.8602,-4.11,-4.11,-4.181,-4.3098,-4.5289,-4.6943,-4.8211,-4.9931,-5.0411,-5.0123,-5.227,-5.2837,-5.235,-5.4076,-5.5259,-5.5964,-5.6616,-5.7229,-5.7932,-5.9065,-5.947,-5.954,-6.0332,-6.0623,-6.061,-6.0734,-6.0983,-6.1186,-6.1186,-6.1442,-6.172,-6.1798,-6.2963,-6.4089,-6.4106,-6.5319,-6.6439,-6.6225,-6.6185,-6.6165,-6.6102,-6.6036,-6.599,-6.5996,-6.5947,-6.5808,-6.5608,-6.5465,-6.5413,-6.5413,-6.5352,-6.5258,-6.5232,-6.5095,-6.4955,-6.4888,-6.4888,-6.4888,-6.4888,-6.4445,-6.3846,-6.3057,-6.2631,-6.2149,-6.1656,-6.0635,-6.0107,-6.0107,-5.9351,-5.8806,-5.8314,-5.7446,-5.6426,-1.8832,-1.982,-2.0665,-2.0665,-2.0665,-2.0665,-2.0665,-2.1358,-2.2035,-2.231,-2.3133,-2.421,-2.5427,-2.6517,-2.72,-2.72,-2.72,-2.7716,-2.9134,-3.0419,-3.1835,-3.3253,-3.4528,-3.5418,-3.5418,-3.5418,-3.5418,-3.5418,-3.5418,-3.5418,-3.5418,-3.5418,-3.5418,-3.5418,-3.5418,-3.6013,-3.7309,-3.7309,-3.8602,0.0,-4.11,-4.181,-4.3098,-4.5289,-4.7105,-4.8567,-4.9074,-4.9296,-4.9304,-5.1534,-5.234,-5.235,-5.3946,-5.5249,-5.6277,-5.6474,-5.7229,-5.8356,-5.914,-5.9399,-5.9505,-6.0275,-6.0571,-6.0649,-6.0685,-6.0964,-6.1186,-6.1186,-6.1442,-6.1876,-6.254,-6.3395,-6.4248,-6.4808,-6.5717,-6.6383,-6.6245,-6.6144,-6.6102,-6.6036,-6.6029,-6.5958,-6.5947,-6.5872,-6.5767,-6.5552,-6.5435,-6.5413,-6.5413,-6.5352,-6.5258,-6.5232,-6.5095,-6.4955,-6.4888,-6.4888,-6.4888,-6.4888,-6.4445,-6.3846,-6.3057,-6.2631,-6.1987,-6.1234,-6.045,-6.0107,-6.0107,-5.9351,-5.8492,-5.7446,-5.6547,-5.5523,-1.7268,-1.8401,-1.982,-2.0527,-2.0665,-2.0665,-2.0665,-2.1081,-2.176,-2.2859,-2.3938,-2.5022,-2.6115,-2.6784,-2.72,-2.72,-2.72,-2.7716,-2.9134,-3.0419,-3.1835,-3.3253,-3.4528,-3.5418,-3.5418,-3.5418,-3.5418,-3.5418,-3.5418,-3.5418,-3.5418,-3.5418,-3.5418,-3.5418,-3.5418,-3.5788,-3.6359,-3.6359,-3.767,-4.0152,-4.0152,-4.1274,-4.3413,-4.5076,-4.6339,-4.7186,-4.8328,-4.8754,-4.8645,-5.1135,-5.2208,-5.235,-5.3912,-5.5308,-5.6385,-5.6385,-5.7229,-5.84,-5.914,-5.9363,-5.9432,-6.0275,-6.0559,-6.0635,-6.0811,-6.1,-6.12,-6.1304,-6.1829,-6.2423,-6.2891,-6.3865,-6.4825,-6.5198,-6.5862,-6.6353,-6.6167,-6.6123,-6.608,-6.6029,-6.5982,-6.5972,-6.5923,-6.5781,-6.5674,-6.5523,-6.5435,-6.5413,-6.5413,-6.5352,-6.5258,-6.5232,-6.5095,-6.4955,-6.4888,-6.4888,-6.4888,-6.4888,-6.4445,-6.3846,-6.3057,-6.2631,-6.2024,-6.1093,-6.0485,-6.0107,-6.0107,-5.9351,-5.8422,-5.7222,-5.6734,-5.5603,-1.5707,-1.6987,-1.8832,-2.0249,-2.0665,-2.0665,-2.0665,-2.0804,-2.1484,-2.3543,-2.4617,-2.5697,-2.6934,-2.72,-2.72,-2.72,-2.72,-2.76,-2.8757,-3.029,-3.1707,-3.2854,-3.4278,-3.517,-3.5418,-3.517,-3.517,-3.5418,-3.5418,-3.5418,-3.5418,-3.5418,-3.5418,-3.5418,-3.5418,-3.5418,-3.5418,-3.5418,-3.6724,-3.9216,-3.9593,-4.0934,-4.3282,-4.451,-4.5211,-4.5458,-4.7733,-4.845,-4.8126,-5.1048,-5.2208,-5.235,-5.3912,-5.5249,-5.6367,-5.6367,-5.713,-5.8268,-5.9102,-5.9289,-5.9361,-6.0304,-6.0559,-6.066,-6.0884,-6.1087,-6.1253,-6.1617,-6.2336,-6.3086,-6.336,-6.4411,-6.5453,-6.5574,-6.602,-6.6358,-6.6206,-6.6165,-6.6123,-6.6058,-6.6052,-6.5982,-6.5897,-6.5728,-6.558,-6.5494,-6.5444,-6.5413,-6.5413,-6.5352,-6.5258,-6.5232,-6.5095,-6.4955,-6.4888,-6.4888,-6.4888,-6.4888,-6.4445,-6.3846,-6.315,-6.2682,-6.1987,-6.1211,-6.045,-6.0107,-6.0107,-5.9182,-5.8103,-5.6963,-5.6811,-5.5683,-1.4164,-1.6282,-1.8832,-2.0249,-2.0665,-2.0665,-2.0665,-2.1346,-2.2448,-2.3665,-2.406,-2.4738,-2.6784,-2.72,-2.72,-2.72,-2.72,-2.7334,-2.7467,-2.9639,-3.1304,-3.1561,-3.2854,-3.4133,-3.5294,-3.4403,-3.4153,-3.5294,-3.5418,-3.5418,-3.5418,-3.5418,-3.5418,-3.5418,-3.5418,-3.5418,-3.5418,-3.5418,-3.6724,-3.9216,-4.0983,-4.1489,-4.1043,-4.2929,-4.4315,-4.543,-4.7228,-4.7995,-4.8126,-5.1048,-5.2208,-5.235,-5.3912,-5.5224,-5.6295,-5.6295,-5.7015,-5.8142,-5.8949,-5.9215,-5.9361,-6.0246,-6.0533,-6.0635,-6.0843,-6.107,-6.1421,-6.2367,-6.2804,-6.336,-6.4843,-6.5333,-6.5582,-6.6365,-6.6497,-6.6468,-6.6431,-6.6467,-6.6411,-6.6377,-6.6185,-6.5981,-6.569,-6.5608,-6.5552,-6.5405,-6.5413,-6.5413,-6.5413,-6.5352,-6.5258,-6.5232,-6.5095,-6.4955,-6.4888,-6.4888,-6.4888,-6.4888,-6.4445,-6.4009,-6.355,-6.2831,-6.2149,-6.16,-6.0635,-6.0107,-6.0107,-5.8494,-5.7156,-5.6047,-5.5084,-5.4062,-1.4173,-1.5717,-1.7549,-1.9529,-2.0388,-2.0665,-2.0665,-2.1081,-2.176,-2.2722,-2.3529,-2.4617,-2.68,-2.72,-2.72,-2.72,-2.72,-2.72,-2.72,-2.8871,-3.016,-3.016,-3.1451,-3.2473,-3.3107,-3.26,-3.2473,-3.3107,-3.3882,-3.4278,-3.4278,-3.5025,-3.5418,-3.5418,-3.5418,-3.5418,-3.5418,-3.5418,-3.6474,-3.878,-3.9826,-4.0714,-4.1415,-4.2644,-4.3464,-4.4041,-4.6756,-4.7904,-4.8126,-5.1048,-5.2208,-5.235,-5.3912,-5.5224,-5.6276,-5.6276,-5.7015,-5.8133,-5.891,-5.9214,-5.9395,-6.0275,-6.0647,-6.08,-6.1018,-6.1536,-6.2229,-6.275,-6.3656,-6.4614,-6.5407,-6.5915,-6.6344,-6.6706,-6.675,-6.672,-6.6702,-6.6581,-6.6431,-6.6368,-6.6165,-6.6003,-6.5793,-6.5651,-6.5494,-6.5405,-6.5485,-6.5542,-6.5405,-6.5456,-6.5427,-6.5194,-6.5128,-6.5061,-6.4888,-6.4888,-6.4888,-6.4888,-6.4445,-6.4009,-6.3631,-6.2831,-6.2095,-6.1451,-6.0538,-6.0107,-6.0107,-5.8353,-5.693,-5.5889,-5.4755,-5.375,-1.403,-1.5292,-1.6413,-1.8261,-1.982,-2.0665,-2.0388,-2.0527,-2.0943,-2.2035,-2.3119,-2.4481,-2.6383,-2.7067,-2.72,-2.72,-2.72,-2.72,-2.72,-2.8362,-2.9265,-2.9265,-3.016,-3.0936,-3.1322,-3.0936,-3.0936,-3.1304,-3.2218,-3.2854,-3.2854,-3.4133,-3.4901,-3.4901,-3.517,-3.5418,-3.5418,-3.5539,-3.6491,-3.8068,-3.8532,-3.9717,-4.1491,-4.2422,-4.2792,-4.2958,-4.6432,-4.7904,-4.8126,-5.1048,-5.2208,-5.235,-5.3912,-5.5224,-5.6276,-5.6276,-5.7015,-5.8133,-5.9173,-5.9552,-5.9804,-6.0867,-6.1334,-6.1523,-6.1772,-6.2432,-6.3156,-6.3533,-6.4609,-6.5668,-6.5879,-6.6393,-6.6906,-6.6912,-6.6908,-6.6883,-6.6878,-6.6663,-6.6439,-6.6329,-6.6128,-6.5942,-6.5827,-6.5651,-6.5465,-6.5413,-6.5542,-6.5559,-6.5405,-6.5542,-6.5503,-6.5226,-6.5199,-6.5133,-6.4888,-6.4888,-6.4888,-6.4888,-6.4367,-6.3888,-6.3593,-6.2695,-6.1897,-6.1185,-6.0477,-6.0043,-5.9978,-5.8283,-5.693,-5.5889,-5.4787,-5.3664,-1.3024,-1.4432,-1.5849,-1.6705,-1.8832,-2.0527,-1.968,-2.0098,-2.0943,-2.2035,-2.3106,-2.4331,-2.5427,-2.6517,-2.72,-2.72,-2.72,-2.72,-2.72,-2.8362,-2.9265,-2.9265,-2.9395,-2.9917,-3.1194,-3.016,-2.99,-3.1176,-3.1304,-3.1433,-3.1433,-3.2727,-3.3505,-3.3505,-3.4777,-3.5418,-3.5418,-3.6174,-3.6639,-3.7035,-3.82,-3.912,-3.9928,-4.194,-4.2792,-4.2958,-4.6432,-4.7904,-4.8126,-5.1048,-5.2208,-5.235,-5.3912,-5.5224,-5.6276,-5.6276,-5.7015,-5.8207,-5.9846,-6.0491,-6.0821,-6.2433,-6.3015,-6.3152,-6.3563,-6.3711,-6.3975,-6.512,-6.5546,-6.5785,-6.6605,-6.6875,-6.6883,-6.6883,-6.6895,-6.6898,-6.68,-6.6697,-6.6513,-6.6344,-6.6128,-6.5936,-6.5651,-6.5552,-6.5465,-6.5413,-6.5413,-6.5405,-6.5413,-6.5413,-6.5383,-6.5232,-6.5199,-6.5133,-6.4888,-6.4888,-6.4888,-6.4888,-6.4131,-6.3631,-6.3631,-6.2391,-6.1564,-6.1185,-6.0477,-5.9943,-5.9617,-5.8031,-5.6811,-5.5889,-5.4621,-5.3403,-1.1886,-1.3016,-1.429,-1.6141,-1.783,-1.91,-2.0098,-2.0527,-2.0804,-2.122,-2.2173,-2.3256,-2.4345,-2.5981,-2.72,-2.72,-2.72,-2.72,-2.72,-2.7584,-2.7981,-2.7981,-2.7981,-2.8097,-2.8625,-2.823,-2.8114,-2.8625,-2.9526,-3.0048,-3.0048,-3.1322,-3.2473,-3.3379,-3.3882,-3.4386,-3.5004,-3.4715,-3.4941,-3.5735,-3.6732,-3.7964,-3.9674,-4.1789,-4.3177,-4.3937,-4.6725,-4.7904,-4.8126,-5.1048,-5.2208,-5.2383,-5.4459,-5.5959,-5.7152,-5.7596,-5.8533,-5.9679,-6.0935,-6.1393,-6.1647,-6.2787,-6.3306,-6.3471,-6.3651,-6.4163,-6.4827,-6.528,-6.5907,-6.65,-6.68,-6.6914,-6.6873,-6.6834,-6.6844,-6.6844,-6.68,-6.6778,-6.6713,-6.6624,-6.6452,-6.629,-6.6128,-6.5986,-6.5818,-6.5613,-6.5743,-6.5743,-6.5435,-6.5513,-6.5513,-6.5226,-6.5199,-6.5133,-6.4888,-6.4888,-6.4888,-6.4888,-6.4091,-6.3631,-6.3631,-6.2391,-6.1451,-6.0891,-6.0352,-5.9748,-5.9046,-5.723,-5.6001,-5.5312,-5.3836,-5.2815,-1.0881,-1.2022,-1.3436,-1.5008,-1.6705,-1.8401,-1.968,-2.0098,-2.0388,-2.0665,-2.1484,-2.2585,-2.3665,-2.5442,-2.68,-2.72,-2.72,-2.72,-2.72,-2.72,-2.72,-2.72,-2.72,-2.72,-2.72,-2.72,-2.72,-2.72,-2.8114,0.0,-2.8625,-2.99,-3.1451,-3.3379,-3.3743,-3.4104,-3.4527,-3.3762,-3.3865,-3.4928,-3.5798,-3.7133,-3.903,-4.1663,-4.3177,-4.3937,-4.6725,-4.7904,-4.8126,-5.1048,-5.234,-5.2819,-5.4834,-5.6519,-5.7917,-5.8417,-5.9401,-6.0562,-6.1799,-6.2259,-6.2476,-6.3695,-6.4239,-6.4381,-6.4425,-6.5031,-6.5686,-6.5738,-6.6297,-6.6898,-6.6908,-6.691,-6.6873,-6.6834,-6.6795,-6.6795,-6.6795,-6.6739,-6.672,-6.6736,-6.6552,-6.6383,-6.6338,-6.6185,-6.6067,-6.5851,-6.5964,-6.6003,-6.5705,-6.5769,-6.568,-6.5345,-6.5314,-6.5188,-6.4924,-6.4888,-6.4853,-6.4781,-6.393,-6.3371,-6.328,-6.2129,-6.1198,-6.0503,-6.0036,-5.9282,-5.8174,-5.693,-5.5843,-5.4985,-5.3695,-5.2846,0.0,0.0,0.0,-1.2888,-1.5575,-1.8272,-1.8412,-1.8971,-1.968,-2.0527,-2.1484,-2.2585,-2.3665,-2.4752,-2.5831,-2.6934,-2.72,-2.72,-2.72,-2.72,-2.72,-2.72,-2.72,-2.72,-2.72,-2.72,-2.72,-2.72,-2.72,-2.72,-2.72,-2.8493,-3.0549,-3.3233,-3.4207,-3.4507,-3.4051,-3.3596,-3.3696,-3.4469,-3.5663,-3.6727,-3.7926,-4.1267,-4.2792,-4.2958,-4.6432,-4.7904,-4.8157,-5.108,-5.2743,-5.3551,-5.5074,-5.6869,-5.8631,-5.8667,-5.942,-6.0709,-6.2436,-6.305,-6.3457,-6.5217,-6.5846,-6.5909,-6.6063,-6.6225,-6.6428,-6.6549,-6.6756,-6.6895,-6.6898,-6.6912,-6.6873,-6.6834,-6.6795,-6.6795,-6.6795,-6.6705,-6.6624,-6.6602,-6.6383,-6.6221,-6.6205,-6.6167,-6.6128,-6.6108,-6.6108,-6.6108,-6.6108,-6.6108,-6.5942,-6.5548,-6.5493,-6.5359,-6.4958,-6.4888,-6.4817,-6.4634,-6.3593,-6.2915,-6.2745,-6.1712,-6.0793,-6.0107,-5.9482,-5.8564,-5.7222,-5.7147,-5.6426,-5.4934,-5.4232,-5.3139,-0.9446,0.0,0.0,0.0,0.0,0.0,-1.8121,-1.8552,-1.8971,-1.968,-2.0086,-2.078,-2.2435,-2.2983,-2.3802,-2.5697,-2.6651,-2.72,-2.72,-2.72,-2.72,-2.72,-2.72,-2.72,-2.72,-2.72,-2.72,0.0,-2.72,-2.72,-2.72,-2.8493,-2.9907,-3.1388,-3.2235,-3.3035,-3.3575,-3.3141,-3.2965,-3.3161,-3.5223,-3.6402,-3.6834,-4.0941,-4.2792,-4.2958,-4.6432,-4.8207,-4.8889,-5.1858,-5.3208,-5.3651,-5.6235,-5.8164,-5.9545,-6.0058,-6.11,-6.2339,-6.3566,-6.403,-6.4251,-6.5465,-6.5897,-6.5923,-6.6005,-6.6144,-6.6299,-6.6489,-6.6642,-6.6789,-6.6867,-6.6848,-6.6834,-6.6795,-6.679,-6.6817,-6.6817,-6.6752,-6.6728,-6.6759,-6.6634,-6.654,-6.6555,-6.653,-6.6489,-6.6345,-6.6312,-6.6278,-6.6128,-6.6046,-6.5897,-6.573,-6.5666,-6.5513,-6.5117,-6.5123,-6.5023,-6.4817,-6.368,-6.2962,-6.2915,-6.1732,-6.0793,-6.0107,-5.9482,-5.8564,-5.7222,-5.6113,-5.5181,-5.4327,-5.2274,-5.0798,-0.9879,-1.0881,-1.2173,-1.3729,0.0,0.0,-1.757,-1.8002,-1.8282,-1.9251,-1.9529,-2.0086,-2.1897,-2.231,-2.2983,-2.5292,-2.6115,-2.6651,-2.72,-2.72,-2.72,-2.72,-2.72,-2.72,-2.72,-2.72,-2.72,-2.72,-2.72,-2.72,-2.72,-2.9003,-3.0241,-3.0591,-3.206,-3.3092,-3.3389,-3.2934,-3.2727,-3.2727,-3.5113,-3.6185,-3.6402,-4.0815,-4.2792,-4.2985,-4.6757,-4.8572,-4.9255,-5.2441,-5.4006,-5.4516,-5.6953,-5.8864,-6.0272,-6.0736,-6.1715,-6.3014,-6.385,-6.4255,-6.4554,-6.5359,-6.5781,-6.5947,-6.5996,-6.6097,-6.6303,-6.6472,-6.6642,-6.6795,-6.6859,-6.6844,-6.6795,-6.6795,-6.6784,-6.6811,-6.6811,-6.6791,-6.6767,-6.6767,-6.672,-6.6702,-6.6712,-6.663,-6.653,-6.6407,-6.6329,-6.6242,-6.6128,-6.5986,-6.5859,-6.5804,-6.5743,-6.5559,-6.5245,-6.5213,-6.4947,-6.4483,-6.3512,-6.2866,-6.2558,-6.1656,-6.0635,-5.9714,-5.9113,-5.7857,-5.5908,-5.5507,-5.4601,-5.3258,-5.0892,-4.9582,-1.0737,-1.1886,-1.3031,-1.4173,-1.5319,0.0,-1.7026,-1.7168,-1.759,-1.8982,-1.9251,-1.9947,-2.1609,-2.2035,-2.2846,-2.4887,-2.5292,-2.5697,-2.7067,-2.72,-2.72,-2.72,-2.72,-2.72,-2.72,-2.72,-2.72,-2.72,-2.72,-2.72,-2.72,-2.9474,-3.0683,-3.0266,-3.2489,-3.3407,-3.3073,-3.2798,-3.2727,-3.2727,-3.5113,-3.6185,-3.6402,-4.0815,-4.2792,-4.3012,-4.7169,-4.8997,-4.9408,-5.2922,-5.4796,-5.5638,-5.7223,-5.9114,-6.0938,-6.0938,-6.1824,-6.3099,-6.3668,-6.4136,-6.459,-6.5137,-6.5597,-6.5996,-6.602,-6.6129,-6.6312,-6.6453,-6.6689,-6.6873,-6.6834,-6.6795,-6.6795,-6.6795,-6.6784,-6.6811,-6.6811,-6.6736,-6.6702,-6.6702,-6.6702,-6.6702,-6.6712,-6.6543,-6.6422,-6.6422,-6.6295,-6.6167,-6.6167,-6.6051,-6.5968,-6.5812,-6.5779,-6.5575,-6.5245,-6.5213,-6.4807,-6.385,-6.3288,-6.2708,-6.2024,-6.135,-6.0415,-5.918,-5.846,-5.682,-5.4189,-5.5017,-5.42,-5.1972,-4.9969,-4.8993,-1.0737,-1.1886,-1.3031,-1.4173,-1.5319,0.0,-1.632,-1.6461,-1.6603,-1.759,-1.8142,-1.8971,-1.9808,-2.0515,-2.1484,-2.2709,-2.2983,-2.3938,-2.68,-2.72,-2.72,-2.72,-2.72,-2.72,-2.72,-2.72,-2.72,-2.72,-2.72,-2.72,-2.72,-2.7441,-2.7877,-2.8633,-2.9696,-3.0634,-3.1307,-3.2174,-3.2727,-3.2727,-3.5113,-3.6185,-3.6402,-4.0815,-4.2792,-4.3012,-4.7169,-4.9326,-5.0049,-5.3031,-5.4796,-5.5671,-5.7195,-5.9172,-6.1055,-6.1055,-6.1933,-6.3242,-6.3755,-6.4176,-6.459,-6.5199,-6.5651,-6.602,-6.6074,-6.6119,-6.6167,-6.6407,-6.6635,-6.6834,-6.6795,-6.6795,-6.6795,-6.6795,-6.6811,-6.6791,-6.6791,-6.675,-6.6722,-6.6722,-6.6722,-6.6712,-6.6712,-6.6652,-6.6641,-6.6641,-6.6618,-6.6567,-6.6567,-6.6517,-6.6361,-6.607,-6.5986,-6.573,-6.5245,-6.5213,-6.4807,-6.3937,-6.3334,-6.272,-6.204,-6.07,-5.9709,-5.918,-5.7527,-5.6067,-5.4697,-5.3805,-5.2544,-5.0668,-4.8795,-4.7615,-1.1599,-1.2745,-1.3888,-1.5035,-1.5753,0.0,0.0,-1.6178,-1.6461,-1.7168,-1.758,-1.8142,-1.9251,-1.982,-2.0515,-2.2035,-2.231,-2.3119,-2.5307,-2.5562,-2.5831,-2.6383,-2.6383,-2.6651,-2.72,-2.72,-2.72,-2.72,-2.72,-2.72,-2.72,-2.7507,-2.776,-2.8152,-2.9605,-3.052,-3.082,-3.2018,-3.2727,-3.2727,-3.5113,-3.6185,-3.6402,-4.0815,-4.2955,-4.3448,-4.7731,-4.9874,-5.0631,-5.3134,-5.4955,-5.616,-5.7426,-5.921,-6.1113,-6.1207,-6.2129,-6.3336,-6.3617,-6.4012,-6.4482,-6.4971,-6.5446,-6.5909,-6.6036,-6.6206,-6.6329,-6.655,-6.6718,-6.6795,-6.6795,-6.6795,-6.6795,-6.6784,-6.6784,-6.6778,-6.6811,-6.6772,-6.6727,-6.6697,-6.6689,-6.672,-6.6712,-6.6618,-6.6543,-6.6543,-6.6475,-6.6392,-6.6392,-6.629,-6.6146,-6.5968,-6.5897,-6.568,-6.5245,-6.4976,-6.4481,-6.36,-6.2962,-6.2354,-6.164,-6.0651,-5.9644,-5.8564,-5.6282,-5.4736,-5.3836,-5.2365,-5.1266,-5.0668,-4.8195,-4.6818,-1.2459,-1.3603,-1.4742,-1.5895,-1.6178,-1.6178,0.0,0.0,0.0,-1.7026,-1.7168,-1.7721,-1.8843,-1.9251,-1.9935,-2.1408,-2.1859,-2.2284,-2.3052,-2.3215,-2.3788,-2.5158,-2.5427,-2.5965,-2.68,-2.6934,-2.6934,-2.72,-2.7067,-2.6902,-2.7105,-2.7767,-2.8027,-2.7672,-2.986,-3.0818,-3.047,-3.1903,-3.2727,-3.2727,-3.5113,-3.6185,-3.6402,-4.0815,-4.3118,-4.3884,-4.8021,-5.0183,-5.1029,-5.3065,-5.4934,-5.6691,-5.7487,-5.9143,-6.0997,-6.1322,-6.2235,-6.3289,-6.3382,-6.3798,-6.4369,-6.4696,-6.5253,-6.587,-6.608,-6.6306,-6.6537,-6.6657,-6.6755,-6.6795,-6.6795,-6.68,-6.68,-6.679,-6.6805,-6.6817,-6.6809,-6.6774,-6.6774,-6.67,-6.6688,-6.6705,-6.6683,-6.6594,-6.6475,-6.6475,-6.6329,-6.6224,-6.6224,-6.6109,-6.5992,-6.5859,-6.5765,-6.5601,-6.5245,-6.4734,-6.4099,-6.3243,-6.2608,-6.2005,-6.1328,-6.0574,-5.9314,-5.7707,-5.5442,-5.3805,-5.29,-5.1329,-5.0639,-5.0639,-4.7791,-4.6323,-1.2459,-1.3603,-1.4742,-1.5895,-1.6178,-1.6178,-1.6178,0.0,-1.6178,-1.632,0.0,-1.7308,-1.759,0.0,0.0,-1.9518,-2.0233,-2.0857,-2.0761,-2.0934,-2.176,-2.3802,-2.5022,-2.5697,-2.5831,-2.5831,-2.6249,-2.7067,-2.6383,-2.6111,-2.6756,-2.6519,-2.6296,-2.5943,-2.8008,-2.9213,-2.9157,-3.1536,-3.2727,-3.2727,-3.5113,-3.6185,-3.6402,-4.0815,-4.3118,-4.3884,-4.7497,-4.9764,-5.1029,-5.2537,-5.4485,-5.6614,-5.6854,-5.8427,-6.0651,-6.1322,-6.2093,-6.288,-6.3382,-6.3878,-6.4369,-6.4765,-6.5498,-6.6264,-6.6284,-6.6425,-6.661,-6.6622,-6.6718,-6.6795,-6.6795,-6.6813,-6.6784,-6.6784,-6.6789,-6.6793,-6.6793,-6.6735,-6.67,-6.6694,-6.6689,-6.6683,-6.6712,-6.6702,-6.6652,-6.6652,-6.6641,-6.663,-6.663,-6.663,-6.6464,-6.6109,-6.5908,-6.5628,-6.5207,-6.4631,-6.393,-6.3243,-6.2608,-6.2005,-6.1328,-5.9543,-5.8072,-5.7005,-5.5829,-5.4433,-5.29,-5.2063,-5.0892,-4.9444,-4.7335,-4.598,-1.2459,-1.3031,-1.3888,-1.5753,-1.5753,-1.5461,-1.6037,-1.6178,-1.6178,-1.6178,0.0,0.0,0.0,0.0,0.0,0.0,-2.0027,-2.0629,-2.0521,-2.0605,-2.122,-2.2859,-2.3393,0.0,-2.5427,-2.5562,-2.61,-2.7067,-2.68,-2.6643,-2.6692,-2.6342,-2.6358,-2.6753,-2.8179,-2.9275,-2.9982,-3.1787,-3.2727,-3.2727,-3.5113,-3.6185,-3.6402,-4.1152,-4.3633,-4.4502,-4.7956,-5.0214,-5.1577,-5.2603,-5.4453,-5.6778,-5.6896,-5.8427,-6.0626,-6.1472,-6.2182,-6.2794,-6.3474,-6.3873,-6.4212,-6.49,-6.5525,-6.6067,-6.6306,-6.6489,-6.6572,-6.6696,-6.6756,-6.6795,-6.6781,-6.6789,-6.6794,-6.6793,-6.6793,-6.6793,-6.6791,-6.6781,-6.6766,-6.67,-6.6713,-6.6681,-6.6722,-6.6712,-6.6712,-6.6712,-6.6712,-6.6712,-6.6712,-6.6606,-6.6422,-6.6128,-6.5797,-6.5509,-6.5245,-6.4293,-6.355,-6.3104,-6.2146,-6.1163,-6.0254,-5.9011,-5.7819,-5.6768,-5.5345,-5.3805,-5.2244,-5.1329,-4.994,-4.8078,-4.6374,-4.5422,-1.2459,-1.2888,-1.3745,-1.5753,-1.5603,-1.5177,-1.6037,-1.6178,-1.6178,-1.6178,-1.6178,0.0,0.0,0.0,-1.825,-1.9022,0.0,-2.0364,-2.0569,-2.0617,-2.0943,-2.176,-2.2173,-2.2983,0.0,-2.4887,-2.5292,-2.6651,-2.6439,-2.6238,-2.6549,-2.6199,-2.6339,-2.6834,-2.7885,-2.9039,-3.0236,-3.1536,-3.2363,-3.2727,-3.4781,-3.5859,-3.6402,-4.108,-4.376,-4.4884,-4.8047,-5.0448,-5.1972,-5.2637,-5.4369,-5.6591,-5.7122,-5.8425,-6.0254,-6.1415,-6.2182,-6.2608,-6.3519,-6.3958,-6.4291,-6.5003,-6.5536,-6.5964,-6.6299,-6.6477,-6.6566,-6.6687,-6.6784,-6.6791,-6.6796,-6.6797,-6.6796,-6.6797,-6.6797,-6.6797,-6.6797,-6.6795,-6.6789,-6.6735,-6.6712,-6.6727,-6.6736,-6.6702,-6.6712,-6.6712,-6.6712,-6.6712,-6.6712,-6.6555,-6.6392,-6.6128,-6.5774,-6.5493,-6.5245,-6.4254,-6.3416,-6.2818,-6.1787,-6.0818,-5.9972,-5.8875,-5.7963,-5.7147,-5.5035,-5.3253,-5.1789,-5.0798,-4.9288,-4.7288,-4.598,-4.5101,-1.2459,-1.3603,-1.4742,-1.5895,-1.6178,-1.6178,-1.6178,-1.6178,-1.6178,-1.6178,-1.6178,-1.6178,-1.6178,-1.6885,-1.7518,-1.7972,-1.8955,0.0,0.0,-2.0509,-2.0665,-2.0804,-2.1622,-2.2722,-2.3816,-2.2996,-2.3256,0.0,-2.4329,-2.4291,-2.6184,-2.5834,-2.5485,-2.5135,-2.6432,-2.7607,-2.892,-3.0217,-3.1536,-3.2727,-3.3931,-3.5113,-3.6294,-4.0284,-4.3078,-4.4884,-4.7527,-4.9917,-5.1972,-5.2426,-5.3976,-5.6146,-5.7338,-5.8317,-5.9249,-6.1185,-6.1969,-6.2214,-6.3391,-6.4289,-6.4913,-6.5052,-6.5586,-6.6185,-6.6205,-6.6377,-6.6595,-6.6605,-6.6694,-6.6787,-6.6787,-6.6787,-6.6787,-6.6787,-6.6813,-6.68,-6.68,-6.6784,-6.6794,-6.6795,-6.6745,-6.6706,-6.6781,-6.6759,-6.6712,-6.6712,-6.6712,-6.6712,-6.6712,-6.6702,-6.6543,-6.6146,-6.593,-6.5628,-6.5207,-6.4558,-6.3631,-6.2391,-6.1656,-6.1211,-6.1034,-5.9279,-5.8285,-5.8214,-5.5458,-5.3253,-5.1789,-5.0798,-4.9288,-4.7288,-4.6637,-4.5101,0.0,0.0,-1.1736,-1.4457,0.0,-1.4324,-1.5895,-1.6178,-1.6178,-1.6178,-1.6178,-1.6178,-1.6178,-1.6744,-1.7559,-1.8165,-1.8916,-1.9785,0.0,-2.0617,-2.0665,-2.0665,-2.1081,-2.1622,-2.2722,-2.2448,0.0,0.0,-2.4849,0.0,-2.6168,-2.5818,-2.5842,-2.6311,-2.6779,-2.7966,-3.0119,-3.0587,-3.1421,-3.2727,-3.4692,-3.5881,-3.6317,-4.1467,-4.4111,-4.4911,-4.7954,-5.049,-5.2336,-5.2516,-5.42,-5.6691,-5.7487,-5.8494,-5.9679,-6.1104,-6.1806,-6.2214,-6.3535,-6.4326,-6.4777,-6.5161,-6.5536,-6.5936,-6.6301,-6.647,-6.653,-6.6574,-6.6644,-6.6672,-6.6727,-6.6778,-6.6778,-6.6778,-6.6809,-6.6787,-6.6787,-6.6796,-6.6794,-6.6794,-6.6787,-6.6777,-6.6784,-6.677,-6.6745,-6.6713,-6.6705,-6.6689,-6.6712,-6.6569,-6.6345,-6.6128,-6.5741,-6.5446,-6.5213,-6.4176,-6.3187,-6.2339,-6.1207,-6.0282,-5.9644,-5.8319,-5.7338,-5.6844,-5.4952,-5.3253,-5.1789,-5.0798,-4.9092,-4.6637,-4.5874,-4.4535,-1.0737,-1.0449,0.0,-1.3174,-1.3317,0.0,-1.5177,-1.5612,-1.5612,-1.5612,-1.5895,-1.5895,-1.5177,-1.6037,-1.7017,-1.7278,-1.8131,-1.9122,0.0,-2.0527,-2.0665,-2.0665,-2.0665,-2.0943,-2.1622,-2.1671,-2.2427,0.0,0.0,0.0,0.0,0.0,-2.5714,-2.6311,-2.6294,-2.7486,-3.0119,-3.0119,-3.0937,-3.2727,-3.4246,-3.5443,-3.6317,-4.1205,-4.3868,-4.4911,-4.8407,-5.0887,-5.2606,-5.2843,-5.4369,-5.6724,-5.752,-5.8494,-5.9578,-6.0986,-6.1915,-6.2671,-6.3841,-6.4481,-6.4779,-6.5253,-6.5563,-6.589,-6.6281,-6.6439,-6.6446,-6.6192,-6.6322,-6.6528,-6.6293,-6.6486,-6.6783,-6.6783,-6.6795,-6.6787,-6.6787,-6.6794,-6.6797,-6.6797,-6.6796,-6.6795,-6.6797,-6.6796,-6.6789,-6.6722,-6.6706,-6.6681,-6.672,-6.6555,-6.6345,-6.6128,-6.5765,-6.5321,-6.4879,-6.3813,-6.2866,-6.2339,-6.0915,-5.9838,-5.9247,-5.7925,-5.6787,-5.6051,-5.4358,-5.2776,-5.1425,-4.989,-4.8066,-4.5874,-4.4859,-4.3661]}]]